[[{"header":{"parameterUnit":"m.s-1","parameterCategory":1,"la1":30.6,"la2":29.2853,"lo1":-89.7004,"lo2":-87.6739,"dy":0.0162,"dx":0.0183,"nx":112,"ny":82,"refTime":"2024-03-29T18:00:00:Z","depth":0,"parameterNumber":2,"parameterNumberName":"U-component_of_WINDS"},"data":[0.0,0.0,0.0,0.0,0.0,0.0,0.0,0.0,0.0,0.0,0.0,0.0,0.0,0.0,0.0,0.0,0.0,0.0,0.0,0.0,0.0,0.0,0.0,0.0,0.0,0.0,0.0,0.0,0.0,0.0,0.0,0.0,0.0,0.0,0.0,0.0,0.0,0.0,0.0,0.0,0.0,0.0,0.0,0.0,0.0,0.0,0.0,0.0,0.0,0.0,0.0,0.0,0.0,0.0,0.0,0.0,0.0,0.0,0.0,0.0,0.0,0.0,0.0,0.0,0.0,0.0,0.0,0.0,0.0,0.0,0.0,0.0,0.0,0.0,0.0,0.0,0.0,0.0,0.0,0.0,0.0,0.0,0.0,0.0,0.0,0.0,0.0,0.0,0.0,0.0,-1.8358,-1.7329,-1.8238,-1.8854,-1.8702,-1.9741,-1.9547,-1.7529,0.0,0.0,0.0,0.0,0.0,0.0,0.0,0.0,0.0,0.0,0.0,0.0,0.0,0.0,0.0,0.0,0.0,0.0,0.0,0.0,0.0,0.0,0.0,0.0,0.0,0.0,0.0,0.0,0.0,0.0,0.0,0.0,0.0,0.0,0.0,0.0,0.0,0.0,0.0,0.0,0.0,0.0,0.0,0.0,0.0,0.0,0.0,0.0,0.0,0.0,0.0,0.0,0.0,0.0,0.0,0.0,0.0,0.0,0.0,0.0,0.0,0.0,0.0,0.0,0.0,0.0,0.0,0.0,0.0,0.0,0.0,0.0,0.0,0.0,0.0,0.0,0.0,0.0,0.0,0.0,0.0,0.0,0.0,0.0,0.0,0.0,0.0,0.0,0.0,0.0,0.0,0.0,0.0,0.0,0.0,0.0,0.0,0.0,0.0,0.0,0.0,0.0,0.0,0.0,-1.838,-1.8207,-1.8661,-1.8923,-1.8719,-1.8648,-1.825,-1.7448,0.0,0.0,0.0,0.0,0.0,0.0,0.0,0.0,0.0,0.0,0.0,0.0,0.0,0.0,0.0,0.0,0.0,0.0,0.0,0.0,0.0,0.0,0.0,0.0,0.0,0.0,0.0,0.0,0.0,0.0,0.0,0.0,0.0,0.0,0.0,0.0,0.0,0.0,0.0,0.0,0.0,0.0,0.0,0.0,0.0,0.0,0.0,0.0,0.0,0.0,0.0,0.0,0.0,0.0,0.0,0.0,0.0,0.0,0.0,0.0,0.0,0.0,0.0,0.0,0.0,0.0,0.0,0.0,0.0,0.0,0.0,0.0,0.0,0.0,0.0,0.0,0.0,0.0,0.0,0.0,0.0,0.0,0.0,0.0,0.0,0.0,0.0,0.0,0.0,0.0,0.0,0.0,0.0,0.0,0.0,0.0,0.0,0.0,0.0,0.0,0.0,0.0,0.0,-1.7787,-1.8804,-1.845,-1.8723,-1.8908,-1.8823,-1.8096,-1.7636,-1.7579,-1.7166,0.0,0.0,0.0,0.0,0.0,0.0,0.0,0.0,0.0,0.0,0.0,0.0,0.0,0.0,0.0,0.0,0.0,0.0,0.0,0.0,0.0,0.0,0.0,0.0,0.0,0.0,0.0,0.0,0.0,0.0,0.0,0.0,0.0,0.0,0.0,0.0,0.0,0.0,0.0,0.0,0.0,0.0,0.0,0.0,0.0,0.0,0.0,0.0,0.0,0.0,0.0,0.0,0.0,0.0,0.0,0.0,0.0,0.0,0.0,0.0,0.0,0.0,0.0,0.0,0.0,0.0,0.0,0.0,0.0,0.0,0.0,0.0,0.0,0.0,0.0,0.0,0.0,0.0,0.0,0.0,0.0,0.0,0.0,0.0,0.0,0.0,0.0,0.0,0.0,0.0,0.0,0.0,0.0,0.0,0.0,0.0,0.0,0.0,0.0,0.0,0.0,0.0,-1.8301,-1.865,-1.8223,-1.8465,-1.8605,-1.8438,-1.767,-1.7282,-1.7456,-1.6034,0.0,0.0,0.0,0.0,0.0,0.0,0.0,0.0,0.0,0.0,0.0,0.0,0.0,0.0,0.0,0.0,0.0,0.0,0.0,0.0,0.0,0.0,0.0,0.0,0.0,0.0,0.0,0.0,0.0,0.0,0.0,0.0,0.0,0.0,0.0,0.0,0.0,0.0,0.0,0.0,0.0,0.0,0.0,0.0,0.0,0.0,0.0,0.0,0.0,0.0,0.0,0.0,0.0,0.0,0.0,0.0,0.0,0.0,0.0,0.0,0.0,0.0,0.0,0.0,0.0,0.0,0.0,0.0,0.0,0.0,0.0,0.0,0.0,0.0,0.0,0.0,0.0,0.0,0.0,0.0,0.0,0.0,0.0,0.0,0.0,0.0,0.0,0.0,0.0,0.0,0.0,0.0,0.0,0.0,0.0,0.0,0.0,0.0,0.0,0.0,0.0,0.0,-1.7675,-1.7196,-1.7532,-1.7806,-1.7727,-1.7091,-1.7135,-1.7076,-1.6794,-1.5787,0.0,0.0,0.0,0.0,0.0,0.0,0.0,0.0,0.0,0.0,0.0,0.0,0.0,0.0,0.0,0.0,0.0,0.0,0.0,0.0,0.0,0.0,0.0,0.0,0.0,0.0,0.0,0.0,0.0,0.0,0.0,0.0,0.0,0.0,0.0,0.0,0.0,0.0,0.0,0.0,0.0,0.0,0.0,0.0,0.0,0.0,0.0,0.0,0.0,0.0,0.0,0.0,0.0,0.0,0.0,0.0,0.0,0.0,0.0,0.0,0.0,0.0,0.0,0.0,0.0,0.0,0.0,0.0,0.0,0.0,0.0,0.0,0.0,0.0,0.0,0.0,0.0,0.0,0.0,0.0,0.0,0.0,0.0,0.0,0.0,0.0,0.0,0.0,0.0,0.0,0.0,0.0,0.0,0.0,0.0,0.0,0.0,0.0,0.0,0.0,0.0,0.0,-1.7422,-1.7338,0.0,-1.7194,-1.7273,-1.7104,-1.6765,-1.6638,-1.6806,0.0,0.0,0.0,0.0,0.0,0.0,0.0,0.0,0.0,0.0,0.0,0.0,0.0,0.0,0.0,0.0,0.0,0.0,0.0,0.0,0.0,0.0,0.0,0.0,0.0,0.0,0.0,0.0,0.0,0.0,0.0,0.0,0.0,0.0,0.0,0.0,0.0,0.0,0.0,0.0,0.0,0.0,0.0,0.0,0.0,0.0,0.0,0.0,0.0,0.0,0.0,0.0,0.0,0.0,0.0,0.0,0.0,0.0,0.0,0.0,0.0,0.0,0.0,0.0,0.0,0.0,0.0,0.0,0.0,0.0,0.0,0.0,0.0,0.0,0.0,0.0,0.0,0.0,0.0,0.0,0.0,0.0,0.0,0.0,0.0,0.0,0.0,0.0,0.0,0.0,0.0,0.0,0.0,0.0,0.0,0.0,0.0,0.0,0.0,0.0,0.0,0.0,-1.6901,-1.7138,-1.7044,0.0,-1.6593,-1.6769,-1.6897,-1.6482,-1.6515,-1.723,0.0,0.0,0.0,0.0,0.0,0.0,0.0,0.0,0.0,0.0,0.0,0.0,0.0,0.0,0.0,0.0,0.0,0.0,0.0,0.0,0.0,0.0,0.0,0.0,0.0,0.0,0.0,0.0,0.0,0.0,0.0,0.0,0.0,0.0,0.0,0.0,0.0,0.0,0.0,0.0,0.0,0.0,0.0,0.0,0.0,0.0,0.0,0.0,0.0,0.0,0.0,0.0,0.0,0.0,0.0,0.0,0.0,0.0,0.0,0.0,0.0,0.0,0.0,0.0,0.0,0.0,0.0,0.0,0.0,0.0,0.0,0.0,0.0,0.0,0.0,0.0,0.0,0.0,0.0,0.0,0.0,0.0,0.0,0.0,0.0,0.0,0.0,0.0,0.0,0.0,0.0,0.0,0.0,0.0,0.0,0.0,0.0,0.0,0.0,0.0,0.0,0.0,-1.7607,-1.6813,-1.6025,-1.5827,-1.5969,-1.6151,-1.6287,-1.6234,-1.6716,0.0,0.0,0.0,0.0,0.0,0.0,0.0,0.0,0.0,0.0,0.0,0.0,0.0,0.0,0.0,0.0,0.0,0.0,0.0,0.0,0.0,0.0,0.0,0.0,0.0,0.0,0.0,0.0,0.0,0.0,0.0,0.0,0.0,0.0,0.0,0.0,0.0,0.0,0.0,0.0,0.0,0.0,0.0,0.0,0.0,0.0,0.0,0.0,0.0,0.0,0.0,0.0,0.0,0.0,0.0,0.0,0.0,0.0,0.0,0.0,0.0,0.0,0.0,0.0,0.0,0.0,0.0,0.0,0.0,0.0,0.0,0.0,0.0,0.0,0.0,0.0,0.0,0.0,0.0,0.0,0.0,0.0,0.0,0.0,0.0,0.0,0.0,0.0,0.0,0.0,0.0,0.0,0.0,0.0,0.0,0.0,0.0,0.0,0.0,0.0,0.0,0.0,0.0,-1.7663,-1.6822,-1.6053,-1.5955,-1.5912,-1.5941,-1.608,-1.5582,-1.5757,-1.6827,0.0,0.0,0.0,0.0,0.0,0.0,0.0,0.0,0.0,0.0,0.0,0.0,0.0,0.0,0.0,0.0,0.0,0.0,0.0,0.0,0.0,0.0,0.0,0.0,0.0,0.0,0.0,0.0,0.0,0.0,0.0,0.0,0.0,0.0,0.0,0.0,0.0,0.0,0.0,0.0,0.0,0.0,0.0,0.0,0.0,0.0,0.0,0.0,0.0,0.0,0.0,0.0,0.0,0.0,0.0,0.0,0.0,0.0,0.0,0.0,0.0,0.0,0.0,0.0,0.0,0.0,0.0,0.0,0.0,0.0,0.0,0.0,0.0,0.0,0.0,0.0,0.0,0.0,0.0,0.0,0.0,0.0,0.0,0.0,0.0,0.0,0.0,0.0,0.0,0.0,0.0,0.0,0.0,0.0,0.0,0.0,0.0,0.0,0.0,0.0,0.0,0.0,-1.7693,-1.6876,-1.6109,-1.6053,-1.5927,-1.5913,-1.6067,-1.5534,-1.5498,-1.6232,0.0,0.0,0.0,0.0,0.0,0.0,0.0,0.0,0.0,0.0,0.0,0.0,0.0,0.0,0.0,0.0,0.0,0.0,0.0,0.0,0.0,0.0,0.0,0.0,0.0,0.0,0.0,0.0,0.0,0.0,0.0,0.0,0.0,0.0,0.0,0.0,0.0,0.0,0.0,0.0,0.0,0.0,0.0,0.0,0.0,0.0,0.0,0.0,0.0,0.0,0.0,0.0,0.0,0.0,0.0,0.0,0.0,0.0,0.0,0.0,0.0,0.0,0.0,0.0,0.0,0.0,0.0,0.0,0.0,0.0,0.0,0.0,0.0,0.0,0.0,0.0,0.0,0.0,0.0,0.0,0.0,0.0,0.0,0.0,0.0,0.0,0.0,0.0,0.0,0.0,0.0,0.0,0.0,0.0,0.0,0.0,0.0,0.0,0.0,0.0,0.0,0.0,-1.7693,-1.6901,-1.618,-1.6109,-1.5998,-1.5984,-1.6153,-1.5781,-1.5667,-1.5928,0.0,0.0,0.0,0.0,0.0,0.0,0.0,0.0,0.0,0.0,0.0,0.0,0.0,0.0,0.0,0.0,0.0,0.0,0.0,0.0,0.0,0.0,0.0,0.0,0.0,0.0,0.0,0.0,0.0,0.0,0.0,0.0,0.0,0.0,0.0,0.0,0.0,0.0,0.0,0.0,0.0,0.0,0.0,0.0,0.0,0.0,0.0,0.0,0.0,0.0,0.0,0.0,0.0,0.0,0.0,0.0,0.0,0.0,0.0,0.0,-2.0905,0.0,0.0,0.0,0.0,0.0,0.0,0.0,0.0,0.0,0.0,0.0,0.0,0.0,0.0,0.0,0.0,0.0,0.0,0.0,0.0,0.0,0.0,0.0,0.0,0.0,0.0,0.0,0.0,0.0,0.0,0.0,0.0,0.0,0.0,0.0,0.0,0.0,0.0,0.0,0.0,0.0,-1.7704,-1.6901,-1.618,-1.6109,-1.6067,-1.6025,-1.5971,-1.5499,-1.5085,-1.4786,-1.4277,0.0,0.0,0.0,0.0,0.0,0.0,0.0,0.0,0.0,0.0,0.0,0.0,0.0,0.0,0.0,0.0,0.0,0.0,0.0,0.0,0.0,0.0,0.0,0.0,0.0,0.0,0.0,0.0,0.0,0.0,0.0,0.0,0.0,0.0,0.0,0.0,0.0,0.0,0.0,0.0,0.0,0.0,0.0,0.0,0.0,0.0,0.0,0.0,0.0,0.0,0.0,0.0,0.0,0.0,0.0,0.0,0.0,0.0,0.0,0.0,-2.186,0.0,0.0,0.0,0.0,0.0,0.0,0.0,0.0,0.0,0.0,0.0,0.0,0.0,0.0,0.0,0.0,0.0,0.0,0.0,0.0,0.0,0.0,0.0,0.0,0.0,0.0,0.0,0.0,0.0,0.0,0.0,0.0,0.0,0.0,0.0,0.0,0.0,0.0,0.0,0.0,-1.7693,-1.6901,-1.6194,-1.6153,-1.6109,-1.6067,-1.5998,-1.5679,-1.5272,-1.4773,-1.4306,0.0,0.0,0.0,0.0,0.0,0.0,0.0,0.0,0.0,0.0,0.0,0.0,0.0,0.0,0.0,0.0,0.0,0.0,0.0,0.0,0.0,0.0,0.0,0.0,0.0,0.0,0.0,0.0,0.0,0.0,0.0,0.0,0.0,0.0,0.0,0.0,0.0,0.0,0.0,0.0,0.0,0.0,0.0,0.0,0.0,0.0,0.0,0.0,0.0,0.0,0.0,0.0,0.0,-2.4882,-2.4913,-2.4903,-2.3973,-2.3954,-2.4593,-2.3668,-2.3111,-2.2838,-2.2311,0.0,0.0,0.0,0.0,0.0,0.0,0.0,0.0,0.0,0.0,0.0,0.0,0.0,0.0,0.0,0.0,0.0,0.0,0.0,0.0,0.0,0.0,0.0,0.0,-2.0053,-1.9614,-1.9205,0.0,0.0,0.0,0.0,0.0,0.0,0.0,0.0,0.0,0.0,0.0,-1.7575,-1.6842,-1.6194,-1.6194,-1.6153,-1.6109,-1.6109,-1.6012,-1.5711,-1.5132,-1.4751,-1.4363,0.0,0.0,0.0,0.0,0.0,0.0,0.0,0.0,0.0,0.0,0.0,0.0,0.0,0.0,0.0,0.0,0.0,0.0,0.0,0.0,0.0,0.0,0.0,0.0,0.0,0.0,0.0,0.0,0.0,0.0,0.0,0.0,-2.1033,-2.0528,0.0,0.0,0.0,0.0,0.0,0.0,0.0,0.0,0.0,0.0,0.0,0.0,0.0,-2.4765,-2.4954,-2.6751,-2.7336,-2.674,-2.7144,-2.6655,-2.5409,-2.5384,-2.5178,-2.4843,-2.4705,0.0,-2.3195,-2.2586,0.0,0.0,0.0,0.0,0.0,0.0,0.0,0.0,0.0,0.0,0.0,0.0,0.0,0.0,0.0,0.0,0.0,0.0,0.0,0.0,0.0,0.0,-2.0407,-1.9721,-1.9494,-1.9475,-1.9508,-1.8996,-1.8315,-1.7585,-1.7134,0.0,0.0,0.0,0.0,0.0,0.0,0.0,-1.7143,-1.6625,-1.6194,-1.6194,-1.6194,-1.6194,-1.6194,-1.6125,-1.5807,-1.5132,-1.5049,-1.4921,-1.4772,-1.4186,0.0,0.0,0.0,0.0,0.0,0.0,0.0,0.0,0.0,0.0,0.0,0.0,0.0,0.0,0.0,0.0,0.0,0.0,0.0,0.0,0.0,0.0,0.0,0.0,0.0,0.0,0.0,0.0,0.0,-2.1133,-2.2146,-2.1622,-2.2239,-2.2489,0.0,0.0,0.0,0.0,0.0,0.0,0.0,0.0,0.0,-2.4002,-2.5174,-2.594,-2.6267,-2.7496,-2.7978,-2.773,-2.799,-2.7878,-2.74,-2.7046,-2.6905,-2.6874,-2.5969,-2.5279,-2.4654,-2.3372,-2.2597,-2.2109,0.0,0.0,0.0,0.0,-2.1389,-2.1641,-2.1902,-2.2103,-2.217,-2.1643,0.0,0.0,0.0,0.0,0.0,0.0,0.0,-2.0664,0.0,0.0,-2.075,-2.0515,-2.0416,-2.0273,-1.9895,-1.9571,-1.9249,0.0,-1.8397,-1.8217,-1.8487,0.0,0.0,0.0,0.0,-1.6403,-1.7027,-1.6575,-1.6194,-1.6194,-1.6194,-1.6194,-1.6194,-1.618,-1.6015,-1.5667,-1.5301,-1.5088,-1.5074,-1.4708,-1.4519,0.0,0.0,0.0,0.0,0.0,0.0,0.0,0.0,0.0,0.0,0.0,0.0,0.0,0.0,0.0,0.0,0.0,0.0,0.0,0.0,0.0,0.0,0.0,0.0,0.0,0.0,0.0,0.0,-2.1895,-2.2908,-2.2555,-2.3268,-2.3573,0.0,0.0,0.0,0.0,0.0,0.0,-2.4962,-2.5362,-2.5715,-2.6,-2.6718,-2.7288,-2.7682,-2.8362,-2.8741,-2.8781,-2.8998,-2.9056,-2.9026,-2.8672,-2.8494,-2.8395,-2.7129,-2.6525,-2.6298,-2.4432,-2.3295,-2.2707,-2.2203,-2.196,-2.197,-2.235,-2.2547,-2.2645,-2.2847,-2.294,-2.2878,-2.2382,-2.2168,-2.2032,-2.1661,0.0,0.0,0.0,0.0,-2.0472,-2.0696,-2.0738,-2.0844,-2.1207,-2.1214,-2.099,-2.0445,-2.0338,-2.0148,0.0,-1.9209,-1.9148,-1.9192,0.0,0.0,0.0,0.0,-1.6301,-1.6806,-1.6472,-1.6194,-1.6194,-1.6194,-1.6194,-1.6194,-1.6194,-1.618,-1.6123,-1.5664,-1.5426,-1.5526,-1.5217,-1.5022,-1.4997,0.0,0.0,0.0,0.0,0.0,0.0,0.0,0.0,0.0,0.0,0.0,0.0,0.0,0.0,0.0,0.0,0.0,0.0,0.0,0.0,0.0,0.0,0.0,0.0,0.0,0.0,0.0,0.0,0.0,-2.2825,-2.4497,0.0,0.0,0.0,0.0,-2.5932,-2.669,-2.7034,-2.6767,-2.7385,-2.7639,-2.7405,-2.8408,-2.9066,-2.9281,-2.9819,-3.0197,-3.039,-3.0784,-3.0415,-2.939,-3.013,-2.9679,-2.83,-2.8032,-2.7896,-2.7748,-2.5724,-2.4441,-2.3717,-2.3696,-2.3412,-2.2941,-2.241,-2.273,-2.3302,-2.2307,-2.2463,-2.302,-2.2703,-2.2365,-2.2043,-2.1768,-2.1277,0.0,0.0,-1.9989,-2.0005,-2.0252,-2.0333,-2.0497,-2.1163,-2.1293,-2.1277,-2.1229,-2.0978,-2.0213,0.0,-1.8182,-1.8203,-1.7697,0.0,-1.7394,-1.7216,-1.7104,-1.6851,-1.6315,-1.6222,-1.6194,-1.6194,-1.6194,-1.6194,-1.6194,-1.6194,-1.6194,-1.6194,-1.6163,-1.6227,-1.6425,-1.5749,-1.6022,-1.7394,-1.5378,0.0,0.0,0.0,0.0,0.0,0.0,0.0,0.0,0.0,0.0,0.0,0.0,0.0,0.0,0.0,0.0,0.0,0.0,0.0,0.0,0.0,0.0,0.0,0.0,0.0,0.0,0.0,0.0,-2.4335,-2.4979,0.0,-2.563,-2.573,-2.6135,-2.6944,-2.7467,-2.8104,-2.884,-2.9324,-2.9512,-2.9387,-2.9741,-2.9938,-2.9901,-3.0185,-3.0359,-3.0443,-3.0634,-3.0484,-3.0133,-3.0399,-2.9989,-2.9007,-2.8802,-2.8327,-2.7628,-2.7002,-2.6237,-2.5417,-2.4896,-2.4448,-2.4035,-2.3823,-2.3723,-2.3578,-2.2707,-2.2518,-2.2586,-2.2172,-2.2051,-2.2061,-2.1827,-2.1643,-2.1423,-2.1016,-2.0879,-2.0891,-2.0933,-2.0937,-2.1002,-2.1245,-2.1293,-2.1293,-2.1293,-2.1206,-2.0749,-1.9482,-1.8702,-1.8421,-1.9004,-1.8099,-1.7385,-1.7585,-1.7356,-1.6919,-1.6282,-1.6194,-1.6194,-1.6194,-1.6194,-1.6363,-1.6809,-1.644,-1.6563,-1.7439,-1.6671,-1.6421,-1.6937,-1.6396,-1.6318,-1.6821,-1.6173,-1.5775,0.0,0.0,0.0,0.0,0.0,0.0,0.0,0.0,0.0,0.0,0.0,0.0,0.0,0.0,0.0,0.0,0.0,0.0,0.0,0.0,0.0,0.0,0.0,0.0,0.0,0.0,-2.4937,-2.5311,-2.5781,-2.6156,-2.6384,-2.6414,-2.6753,-2.7608,-2.825,-2.9,-2.9886,-3.0286,-3.0485,-3.0422,-3.0417,-3.0359,-3.0295,-3.0359,-3.0417,-3.0422,-3.0613,-3.0634,-3.0514,-3.0922,-3.0629,-2.9765,-2.9779,-2.9158,-2.8141,-2.807,-2.7604,-2.6857,-2.6185,-2.5667,-2.5301,-2.5221,-2.488,-2.4257,-2.3293,-2.2573,-2.1989,-2.1689,-2.1751,-2.1913,-2.1783,-2.1783,-2.1766,-2.1479,-2.1402,-2.1386,-2.1309,-2.1293,-2.1293,-2.1293,-2.1293,-2.1293,-2.1293,-2.1293,-2.1117,-2.0493,-1.9522,-1.8951,-1.941,-1.8465,-1.7781,-1.8198,-1.7779,-1.7347,-1.7158,-1.6898,-1.6769,-1.687,-1.687,-1.7055,-1.75,-1.7045,-1.7166,-1.813,-1.7277,-1.698,-1.7516,-1.6905,-1.6704,-1.7,-1.6959,-1.6625,-1.5973,0.0,0.0,0.0,0.0,0.0,0.0,0.0,0.0,0.0,0.0,0.0,0.0,0.0,0.0,0.0,0.0,0.0,0.0,0.0,0.0,0.0,0.0,0.0,-2.4111,-2.5964,-2.684,-2.5677,-2.7008,-2.7516,-2.6374,-2.7311,-2.7996,-2.805,-2.9121,-2.9804,-2.9858,-3.029,-3.0522,-3.0522,-3.0455,-3.0455,-3.0506,-3.0422,-3.0422,-3.0489,-3.0902,-3.0882,-3.0531,-3.1732,-3.1638,-3.0523,-3.0922,-3.0441,-2.9358,-2.8886,-2.8413,-2.7954,-2.7487,-2.7067,-2.6691,-2.6487,-2.6031,-2.5357,-2.3998,-2.2556,-2.1325,-2.1436,-2.1544,-2.1604,-2.1621,-2.1665,-2.1648,-2.1463,-2.1402,-2.1386,-2.1324,-2.1293,-2.1293,-2.1293,-2.1293,-2.1293,-2.1293,-2.1293,-2.1246,-2.1119,-2.0542,-1.9732,-1.8732,-1.8546,-1.8651,-1.8972,-1.8362,0.0,-1.8866,-1.83,-1.7907,-1.8176,-1.8223,-1.8223,-1.8253,-1.8003,-1.795,-1.8253,-1.7989,-1.7937,-1.8223,-1.7272,-1.7225,-1.8212,-1.7704,-1.737,-1.7186,0.0,0.0,0.0,0.0,0.0,0.0,0.0,0.0,0.0,0.0,0.0,0.0,0.0,0.0,0.0,0.0,0.0,0.0,0.0,0.0,0.0,-2.4523,-2.51,-2.5182,-2.5895,-2.651,-2.6779,-2.7342,-2.7721,-2.7728,-2.7716,-2.8039,-2.8872,-2.9155,-2.9886,-3.1253,-3.1303,-3.13,-3.13,-3.1279,-3.1014,-3.0506,-3.0485,-3.0485,-3.0506,-3.0613,-3.0613,-3.0531,-3.1452,-3.1372,-3.0506,-3.0608,-3.0175,-2.9337,-2.8635,-2.8262,-2.8126,-2.7911,-2.7519,-2.7099,-2.6808,-2.5596,-2.4167,-2.4315,-2.3045,-2.1549,-2.2639,-2.2393,-2.1763,-2.2321,-2.2137,-2.1738,-2.1588,-2.1542,-2.1511,-2.134,-2.1293,-2.1293,-2.1293,-2.1293,-2.1293,-2.1293,-2.1293,-2.1294,-2.1246,-2.1085,-2.0781,-2.0257,-1.9752,-1.9467,-1.9574,-1.909,0.0,-1.8377,-1.8019,-1.7956,-1.836,-1.863,-1.8972,-1.9464,-1.8994,-1.8973,-1.9689,-1.8702,-1.8362,-1.8962,-1.8207,-1.8174,-1.8983,-1.8614,-1.8653,0.0,0.0,0.0,0.0,0.0,0.0,0.0,0.0,0.0,0.0,0.0,0.0,0.0,0.0,0.0,0.0,0.0,0.0,0.0,0.0,0.0,0.0,-2.5712,-2.6476,-2.7172,-2.7196,-2.7376,-2.8056,-2.8324,-2.8509,-2.8692,-2.8454,-2.8718,-2.9679,-2.9801,-3.0475,-3.1859,-3.2015,-3.2067,-3.2067,-3.2067,-3.1697,-3.0969,-3.1272,-3.1123,-3.0506,-3.0803,-3.0803,-3.0526,-3.1484,-3.1579,-3.1007,-3.1141,-3.0698,-2.9797,-2.9016,-2.8499,0.0,0.0,0.0,0.0,0.0,-2.5742,-2.4275,-2.4976,-2.3978,-2.254,-2.344,-2.3211,-2.2649,-2.2796,-2.2562,-2.2165,-2.1732,-2.1604,-2.1624,-2.1745,-2.152,-2.1374,-2.1681,-2.152,-2.1293,-2.1293,-2.1293,-2.1293,-2.1293,-2.1293,0.0,-2.086,-2.0543,-2.0384,-2.0508,-2.0033,-1.9641,-1.9603,-1.9353,-1.9373,-1.9825,-1.9937,-2.0114,-2.0508,-1.9703,0.0,0.0,0.0,-1.8622,-1.8872,-1.8579,0.0,0.0,0.0,-1.9339,-2.0492,-1.998,0.0,0.0,-2.0737,-2.0836,0.0,0.0,0.0,0.0,0.0,0.0,0.0,0.0,0.0,0.0,0.0,0.0,0.0,0.0,0.0,0.0,-2.7181,-2.7828,-2.9469,-2.919,-2.8955,-2.9347,-2.9561,-2.9618,-2.9494,-2.9483,-2.9811,-3.0552,-3.0847,-3.1371,-3.2181,0.0,0.0,0.0,0.0,-3.2464,-3.173,-3.2365,-3.2,-3.0621,-3.1283,-3.1217,-3.0543,-3.1594,-3.1998,-3.1852,-3.2109,-3.1607,-3.0582,-2.994,-2.9137,-2.832,-2.819,-2.7683,-2.7023,-2.6975,-2.6124,-2.5088,-2.5706,0.0,0.0,-2.4066,-2.4034,-2.3819,-2.3305,-2.3089,-2.2859,-2.2061,-2.185,-2.1935,-2.2394,-2.2037,-2.1714,-2.2361,-2.2021,-2.1552,-2.1552,-2.1471,-2.1423,-2.1423,-2.1358,-2.1198,-2.0909,-2.1006,-2.1198,-2.1385,-2.0845,-2.0682,-2.1438,-2.1195,-2.1124,-2.1602,-2.1409,0.0,-2.127,-2.0197,-1.9598,-1.9778,-1.9273,-1.8799,-1.8439,-1.8656,-1.8778,-1.8821,-1.8902,-1.9764,-2.1448,-2.1706,-2.2498,-2.3705,-2.1346,-2.118,0.0,0.0,0.0,0.0,0.0,0.0,0.0,0.0,0.0,0.0,0.0,0.0,0.0,0.0,0.0,-2.7612,-2.8132,-2.8775,-3.0133,-3.0208,-3.0114,-3.0031,-3.0066,-3.0253,-3.0632,-3.0667,-3.0999,-3.1801,-3.1815,-3.2343,-3.3615,-3.3632,-3.3597,-3.3597,-3.3597,-3.3226,-3.2481,-3.2636,-3.2249,-3.1399,0.0,0.0,-3.0526,-3.1056,-3.1815,-3.2648,-3.2388,-3.1975,-3.1457,-3.1314,-3.0422,-2.9073,-2.8155,-2.7552,-2.7117,-2.686,-2.5997,-2.5088,-2.5743,-2.507,-2.4066,-2.5218,-2.4876,-2.4083,-2.453,-2.4265,0.0,-2.3391,-2.3293,-2.3292,-2.3288,-2.3188,-2.3107,-2.3253,-2.3188,-2.3075,-2.3075,-2.2621,-2.2183,-2.2183,-2.1714,-2.1277,-2.1214,-2.123,-2.1183,-2.0958,-2.0629,-2.0458,-2.0634,-2.0303,-2.0228,-2.0707,-2.0933,-2.1068,-2.1068,-2.0571,-2.0145,-1.9808,-1.9486,-1.9274,-1.9191,-1.9245,-1.9371,-1.9587,-2.0119,-2.1044,-2.2347,-2.2926,-2.3744,-2.4689,-2.3601,-2.3699,0.0,0.0,0.0,0.0,0.0,0.0,0.0,0.0,0.0,0.0,0.0,-2.5084,-2.6039,0.0,-2.7367,-2.894,-2.9325,-2.9799,-3.0853,-3.0987,-3.1013,-3.1041,-3.114,-3.1402,-3.1863,-3.1906,-3.2217,-3.2994,-3.2959,-3.335,-3.4333,-3.4369,-3.4336,-3.4336,-3.4336,-3.3988,-3.3265,-3.363,-3.3061,-3.1598,-3.1984,-3.1586,-3.0543,-3.1466,-3.2263,-3.289,-3.2623,-3.2406,-3.2239,-3.1421,-3.0654,-2.9893,-2.9138,-2.8169,-2.7201,-2.7233,-2.6553,-2.5752,-2.6825,-2.6264,-2.5223,-2.6297,-2.5952,-2.511,-2.511,-2.4845,-2.4447,-2.3934,-2.3802,-2.3851,-2.4091,-2.3894,-2.3731,-2.4073,-2.3843,-2.3548,-2.3548,-2.2946,-2.2394,-2.2394,-2.1811,-2.1246,-2.1071,-2.1183,-2.123,-2.1071,-2.0942,-2.0855,-2.0843,-2.1113,-2.142,-2.1765,-2.1713,-2.1684,-2.1788,-2.0684,-1.9758,-1.9184,-1.9213,-1.9325,-1.9479,-1.9657,-2.0023,-2.0643,-2.1124,-2.1821,-2.2794,-2.3578,-2.4116,-2.4456,-2.4418,-2.4719,0.0,0.0,0.0,0.0,0.0,0.0,0.0,0.0,-2.4097,-2.4911,-2.5512,-2.6291,-2.7715,-2.8049,-2.8655,-3.0279,-3.0534,-3.0741,-3.1392,-3.1582,-3.1754,-3.2055,-3.2249,-3.2574,-3.3119,-3.3153,-3.3395,-3.4002,-3.4004,-3.4199,-3.4658,-3.4828,-3.4899,-3.4899,-3.4899,-3.4601,-3.4005,-3.4601,-3.3872,-3.1813,-3.2415,-3.2,-3.0754,-3.1934,-3.2799,-3.3321,-3.3068,-3.3125,-3.3203,-3.1296,-3.0585,-3.068,-3.018,-2.9041,-2.7682,-2.7929,-2.7324,-2.6584,-2.7779,-2.7352,-2.6375,-2.6919,-2.6721,-2.6176,-2.5508,-2.5308,-2.5159,-2.4496,-2.4297,-2.4412,-2.49,-2.4621,-2.4342,-2.4882,-2.4386,-2.3861,-2.3991,-2.3271,-2.2604,-2.2604,-2.2021,-2.1375,-2.0957,-2.1119,-2.1277,-2.1214,-2.123,-2.1311,-2.1432,-2.2151,-2.2697,-2.2844,-2.2485,-2.217,-2.2034,-2.0458,-1.9199,-1.8537,-1.8831,-1.9201,-1.9586,-1.9963,-2.0587,-2.1549,-2.1976,-2.2511,-2.3122,-2.3954,-2.4241,-2.4,-2.4522,-2.4895,-2.2736,-2.2846,-2.3649,-2.5513,-2.5064,-2.4965,0.0,0.0,-2.6128,-2.6992,-2.772,-2.8378,-2.8865,-2.9529,-3.0294,-3.1228,-3.1362,-3.1392,-3.1496,-3.1966,-3.2394,-3.2667,-3.2821,-3.3339,-3.4366,-3.4382,-3.439,-3.4594,-3.4601,-3.4633,-3.4691,-3.4828,-3.4899,-3.4899,-3.4899,-3.4849,-3.4767,-3.4849,-3.4121,-3.2586,-3.2669,-3.2266,-3.1482,-3.1648,-3.2904,-3.4898,-3.4217,-3.4334,-3.4722,-3.1727,-3.0921,-3.1462,-3.0409,-2.9687,-2.9197,-2.8882,-2.8098,-2.7199,-2.7383,-2.7084,-2.6606,-2.6393,-2.6466,-2.6573,-2.6192,-2.607,-2.6035,-2.583,-2.5761,-2.576,-2.577,-2.5735,-2.5668,-2.575,-2.5172,-2.4741,-2.5344,-2.4377,-2.3366,-2.3366,-2.2783,-2.2054,-2.1359,-2.1277,-2.1198,-2.0893,-2.1006,-2.1343,-2.193,-2.2004,-2.2013,-2.2023,-2.1993,-2.1401,-2.0044,-1.9604,-1.9153,-1.8537,-1.8653,-1.8992,-1.9587,-2.0084,-2.0804,-2.1739,-2.2779,-2.3394,-2.3522,-2.4233,-2.446,-2.4261,-2.4343,-2.4385,-2.4901,-2.4638,-2.4662,0.0,-2.5774,-2.614,-2.7489,-2.7337,-2.7165,-2.8033,-2.8721,-2.9382,-2.9986,-3.0353,-3.0763,0.0,-3.138,-3.1509,-3.1966,-3.2231,-3.2517,-3.2754,-3.3226,-3.3764,-3.4423,-3.4423,-3.4399,-3.4448,-3.4618,-3.4667,-3.4594,-3.4787,-3.4899,-3.4899,-3.4899,-3.4899,-3.4899,-3.4899,-3.4154,-3.2718,-3.3149,-3.2729,-3.1631,-3.2475,-3.3725,-3.5134,-3.4853,-3.4669,-3.442,-3.2634,-3.2097,-3.2349,-3.1868,-3.1469,-3.0976,-2.9713,-2.8812,-2.8338,-2.8996,-2.8544,-2.7741,-2.8032,-2.7487,-2.6674,-2.6521,-2.6346,-2.6185,-2.6115,-2.6115,-2.6097,-2.6079,-2.5748,-2.5435,-2.5435,-2.5117,-2.4865,-2.5123,-2.466,-2.4182,-2.4097,-2.3155,-2.2426,-2.2556,-2.2216,-2.1892,-2.1761,-2.144,-2.1424,-2.2015,-2.2392,-2.2577,-2.2489,-2.2037,-2.1173,-1.9833,-1.9512,-1.9191,-1.8702,-1.9121,-1.973,-2.0446,-2.1068,-2.1946,-2.317,-2.3544,-2.3752,-2.3774,-2.4194,-2.4099,-2.3494,-2.376,-2.3739,-2.5918,0.0,0.0,-2.6004,-2.678,-2.7461,-2.733,-2.7654,-2.8145,-2.8795,-2.9435,-3.006,-3.0674,-3.0791,-3.0969,-3.1437,-3.1523,-3.1766,-3.2504,-3.2738,-3.2872,-3.304,-3.3425,-3.3849,-3.4209,-3.4275,-3.43,-3.43,-3.4333,-3.4407,-3.4497,-3.4554,-3.4699,-3.4899,-3.4899,-3.4998,-3.5197,-3.4998,-3.4352,-3.3292,-3.3624,-3.3243,-3.2243,-3.3667,-3.4776,-3.5587,-3.5416,-3.4993,-3.4347,-3.3544,-3.3096,-3.29,-3.277,-3.2573,-3.2126,-3.0768,-2.9885,-2.9464,-3.019,-2.973,-2.8861,-2.899,-2.8186,-2.7147,-2.7046,-2.6636,-2.6235,-2.6452,-2.6369,-2.6202,-2.6202,-2.5788,-2.5408,-2.5408,-2.5156,-2.4954,-2.508,-2.4876,-2.4674,-2.4535,-2.369,-2.3091,-2.3431,-2.3058,-2.2702,-2.2702,-2.2248,-2.2053,-2.2453,-2.2899,-2.3167,-2.3078,-2.2175,-2.1233,-2.0391,-2.0068,-1.9792,-1.9532,-1.994,-2.0518,-2.1252,-2.203,-2.2956,-2.4006,-2.4134,-2.4075,-2.3815,-2.4015,-2.3674,-2.2925,-2.3253,-2.3216,0.0,0.0,-2.6699,-2.768,-2.8442,-2.9002,-2.9247,-2.9341,-2.9392,-2.9522,-3.0103,-3.0613,-3.0762,-3.0791,-3.1073,-3.1949,-3.2074,-3.2336,-3.3066,-3.3585,-3.3822,-3.3704,-3.342,-3.3445,0.0,-3.4226,-3.43,-3.43,-3.3758,-3.3742,-3.4472,-3.4086,-3.4169,-3.4875,-3.4899,-3.5247,-3.5959,-3.5263,-3.4883,-3.4816,-3.4121,-3.3773,-3.3763,-3.4998,-3.6024,-3.6792,-3.602,-3.5489,-3.5097,-3.4383,-3.3598,-3.2868,-3.2471,-3.2318,-3.2301,-3.2231,-3.1516,-3.0505,-3.0141,-2.9988,-2.9713,-2.8305,-2.8084,-2.8284,-2.7878,-2.7021,-2.6352,-2.7066,-2.675,-2.6202,-2.6202,-2.6169,-2.6169,-2.6169,-2.557,-2.5152,-2.5753,-2.5254,-2.4674,-2.4535,-2.4484,-2.4241,-2.3609,-2.348,-2.3463,-2.3463,-2.3447,-2.3431,-2.3463,-2.348,-2.3496,-2.3479,-2.2283,-2.1541,-2.1618,-2.1328,-2.1199,-2.1301,-2.1035,-2.1131,-2.1751,-2.2727,-2.3386,-2.3614,-2.445,-2.445,-2.3595,-2.3616,-2.337,-2.2888,-2.291,-2.291,-2.5977,0.0,-2.8168,-2.903,-2.9384,-2.9803,-3.0809,-3.0829,-3.0615,-3.0721,-3.0588,-3.034,-2.9925,-2.9639,-2.9855,-3.1099,-3.142,-3.2033,-3.3582,-3.3857,-3.3822,-3.3656,-3.3819,0.0,0.0,0.0,0.0,-3.3572,-3.385,-3.3977,-3.391,-3.4226,-3.4537,-3.4899,-3.4899,-3.5247,-3.5992,-3.5744,-3.5628,-3.5611,-3.5201,-3.5519,-3.6474,-3.7008,-3.7428,-3.7677,-3.7171,-3.6576,-3.5935,-3.515,-3.4383,-3.3671,-3.3555,-3.3167,-3.2705,-3.2705,-3.2462,-3.2099,-3.1964,-3.157,-3.0993,-3.0243,-2.9591,-2.8973,-2.8082,-2.739,-2.6884,-2.6634,-2.6402,-2.6202,-2.6202,-2.5838,-2.5457,-2.5457,-2.5258,-2.5107,-2.5217,-2.5412,-2.5504,-2.5324,-2.4932,-2.4686,-2.4855,-2.4482,-2.4338,-2.4822,-2.4484,-2.416,-2.416,-2.416,-2.416,-2.416,-2.311,-2.2447,-2.2485,-2.1889,-2.1565,-2.1595,-2.1633,-2.1976,-2.2757,-2.356,-2.4259,-2.4914,-2.4918,-2.4603,-2.4057,-2.419,-2.4014,-2.3572,-2.3572,-2.3572,-2.7572,-2.8787,-3.0015,-3.0612,-3.087,-3.1169,-3.1635,-3.1371,-3.1014,-3.1134,-3.0534,-2.9878,-2.9441,-2.893,-2.9066,-3.0558,-3.0635,-3.1325,-3.3608,-3.3583,-3.3478,-3.3816,-3.3868,-3.377,0.0,0.0,0.0,-3.3505,-3.3774,-3.3901,-3.3919,-3.4177,-3.4488,-3.4899,-3.5148,-3.5644,-3.639,-3.639,-3.6472,-3.6642,-3.6655,-3.7267,-3.8339,-3.8312,-3.8459,-3.8724,-3.8062,-3.7412,-3.6756,-3.5971,-3.5025,-3.4115,-3.4115,-3.3598,-3.29,-3.29,-3.29,-3.2884,-3.2737,-3.2432,-3.2001,-3.1162,-3.0439,-2.9678,-2.8557,-2.7776,-2.7199,-2.6717,-2.6402,-2.6202,-2.6202,-2.5838,-2.549,-2.549,-2.549,-2.5456,-2.5318,-2.5663,-2.5956,-2.5809,-2.5379,-2.5177,-2.5575,-2.5213,-2.5049,-2.5532,-2.5211,-2.4887,-2.4887,-2.4661,-2.45,-2.45,-2.3738,-2.3322,-2.3467,-2.2941,-2.2637,-2.2637,-2.2757,-2.3002,-2.3386,-2.4122,-2.471,-2.5123,-2.4977,-2.4603,-2.4051,-2.4431,-2.4236,-2.3557,-2.3789,-2.3775,-2.9244,-3.0844,-3.2133,-3.2302,-3.2767,-3.2886,-3.1772,-3.1039,-3.0669,-3.0797,-2.998,-2.9255,0.0,0.0,-2.8652,-3.0318,-2.9902,-3.0376,-3.3247,-3.2928,-3.2894,0.0,0.0,0.0,0.0,0.0,0.0,-3.4052,0.0,-3.3604,-3.4382,-3.3935,-3.402,-3.4859,-3.5611,-3.6357,-3.7102,-3.7168,-3.7444,-3.7902,-3.8402,-3.8921,-3.9413,-3.889,-3.9115,-3.9822,-3.8651,-3.7913,-3.7488,-3.6756,-3.5525,-3.4115,-3.4151,-3.3633,-3.29,-3.29,-3.29,-3.2852,-3.2454,-3.2589,-3.2645,-3.1063,-3.061,-3.0436,-2.9251,-2.8159,-2.7332,-2.7249,-2.6733,-2.6202,-2.6202,-2.6202,-2.6202,-2.6202,-2.6202,-2.6168,-2.6045,-2.6026,-2.599,-2.5917,-2.5791,-2.5701,-2.5701,-2.564,-2.5597,-2.5597,-2.5597,-2.5597,-2.5597,-2.4984,-2.4565,-2.4565,-2.4217,-2.4124,-2.4529,-2.4418,-2.4323,-2.4323,-2.4302,-2.4099,-2.3681,-2.4492,-2.4786,-2.4426,-2.4833,-2.4631,-2.3786,-2.4402,-2.4119,-2.3094,-2.3638,-2.3557,-3.1371,-3.2559,-3.3298,-3.3162,-3.2974,-3.2648,-3.1905,-3.1258,-3.0651,-3.0044,-2.9268,-2.8503,0.0,0.0,0.0,-3.0006,-3.0321,0.0,-3.39,-3.4079,0.0,-3.4399,0.0,-3.4178,-3.4234,-3.4088,0.0,0.0,-3.3958,-3.3799,-3.3691,-3.4052,-3.4431,-3.4739,-3.5563,-3.6357,-3.7102,-3.8179,-3.8963,-3.9453,-3.9373,-3.9914,-4.092,-3.9991,-3.97,-3.9841,-3.8996,-3.7894,-3.6738,-3.7131,-3.6024,-3.4151,-3.4704,-3.4079,-3.29,-3.29,-3.29,-3.2884,-3.2786,-3.2802,-3.2734,-3.1706,-3.1402,-3.1052,-2.9122,-2.8336,-2.7895,-2.6783,-2.6352,-2.6202,-2.6202,-2.6202,-2.6202,-2.6202,-2.6202,-2.6185,-2.6168,-2.615,-2.6115,-2.6008,-2.5828,-2.5701,-2.5701,-2.564,-2.5597,-2.5597,-2.5597,-2.5597,-2.5597,-2.5435,-2.5306,-2.5306,-2.5231,-2.5212,-2.5306,-2.4976,-2.4759,-2.4759,-2.4472,-2.4369,-2.4563,-2.5307,-2.583,-2.6078,-2.6675,-2.6732,-2.6213,-2.5971,-2.5726,-2.5409,-2.4381,-2.4013,-3.268,-3.3667,-3.4126,-3.3952,-3.3614,-3.3005,-3.1774,-3.0914,-3.0097,-2.8988,-2.8246,0.0,0.0,0.0,0.0,0.0,0.0,0.0,-3.2894,-3.32,-3.3396,0.0,-3.4349,0.0,-3.4399,-3.4325,-3.4275,0.0,-3.4201,-3.4084,-3.3809,-3.4243,-3.4546,-3.4707,-3.5803,-3.6936,-3.8046,-3.9319,-4.0087,-4.0351,-4.0654,-4.0872,-4.1012,-4.0606,-4.0137,-3.9623,-3.9053,-3.829,-3.7452,-3.7559,-3.6631,-3.5114,-3.5186,-3.4472,-3.3366,-3.3025,-3.29,-3.29,-3.29,-3.2786,-3.2538,-3.1896,-3.1584,-3.1085,-2.9192,-2.8622,-2.8304,-2.6835,-2.6417,-2.6399,-2.6239,-2.6202,-2.6202,-2.6202,-2.6202,-2.6202,-2.6202,-2.6202,-2.6168,-2.6026,-2.5919,-2.5793,-2.5719,-2.568,-2.5621,-2.5597,-2.5597,-2.5597,-2.5597,-2.5597,-2.5597,-2.5597,-2.5597,-2.5597,-2.5597,-2.5664,-2.5592,-2.5417,-2.5352,-2.551,-2.586,-2.6154,-2.6579,-2.7138,-2.751,-2.7504,-2.7089,-2.6576,-2.6067,-2.5575,-2.464,-2.4192,-3.3683,-3.453,-3.488,-3.4571,-3.4307,-3.3522,-3.1324,-3.0169,-2.914,-2.7616,0.0,-2.6131,-2.479,-2.5306,-2.6217,-2.7105,0.0,-2.8462,-3.1457,-3.1726,-3.2178,-3.3729,-3.4305,-3.4628,-3.4775,-3.4693,-3.4569,-3.4471,-3.4528,-3.4495,-3.4275,-3.4399,-3.4628,-3.4987,-3.6307,-3.7781,-3.9372,-4.0336,-4.0825,-4.0896,-4.1705,-4.1552,-4.0486,-4.0745,-4.0263,-3.92,-3.8815,-3.8594,-3.8451,-3.7826,-3.7059,-3.6167,-3.5471,-3.4741,-3.4008,-3.3203,-3.29,-3.29,-3.29,-3.2639,-3.2249,-3.1895,-3.1509,-3.0893,-2.9434,-2.8977,-2.8689,-2.7301,-2.6927,-2.6843,-2.6514,-2.6442,-2.6424,-2.6352,-2.6268,-2.6236,-2.6318,-2.6268,-2.6168,-2.6045,-2.6026,-2.5937,-2.5775,-2.5719,-2.568,-2.5619,-2.5616,-2.5597,-2.5597,-2.5597,-2.5597,-2.5597,-2.5597,-2.5597,-2.5597,-2.628,-2.6482,-2.5977,-2.6487,-2.6901,-2.7031,-2.6989,-2.7251,-2.7834,-2.7948,-2.7814,-2.746,-2.6836,-2.6096,-2.5241,-2.4867,-2.4409,-3.5583,-3.6122,-3.5922,-3.4783,-3.4307,-3.3271,-3.0077,-2.8865,0.0,0.0,0.0,-2.4487,-2.3891,-2.411,0.0,-2.7271,0.0,0.0,0.0,0.0,-3.3193,0.0,0.0,0.0,0.0,0.0,0.0,0.0,-3.5801,-3.5477,-3.4216,-3.425,-3.5004,-3.647,-3.7259,-3.8359,-3.9876,-4.0473,-4.0972,-4.1378,-4.1174,-4.1042,-4.0953,-3.9956,-3.9287,-3.8836,-3.8129,0.0,-3.6863,-3.7381,-3.672,-3.5383,-3.524,-3.4741,-3.4008,-3.3203,-3.29,-3.29,-3.29,-3.2639,-3.2283,-3.2231,-3.1931,-3.1309,-2.985,-2.9403,-2.9214,-2.8336,-2.8112,-2.8029,-2.7691,-2.7621,-2.7516,-2.7191,-2.6634,-2.6369,-2.6984,-2.6617,-2.6185,-2.6168,-2.6079,-2.5992,-2.5956,-2.5811,-2.5701,-2.5682,-2.5656,-2.5597,-2.5597,-2.5597,-2.5597,-2.5597,-2.5597,-2.5597,-2.5597,-2.628,-2.6422,-2.5712,-2.6839,-2.7292,-2.678,-2.7846,-2.8482,-2.8595,-2.9216,-2.9486,-2.9421,-2.8335,-2.7898,-2.8052,-2.6094,-2.5317,-3.5839,-3.6226,-3.5751,-3.4278,-3.3646,-3.2453,-2.8917,0.0,0.0,0.0,-2.3778,-2.3591,-2.2622,0.0,0.0,0.0,0.0,0.0,0.0,0.0,0.0,0.0,0.0,0.0,0.0,0.0,0.0,0.0,0.0,-3.5968,-3.4843,-3.5161,-3.599,-3.7337,-3.7962,-3.8837,-3.9986,-4.0767,-4.1288,-4.1494,-4.0892,-4.0447,-4.0129,-3.9092,-3.8337,-3.781,-3.7664,-3.7381,-3.7059,-3.7452,-3.7149,-3.6363,-3.5543,-3.4972,-3.4543,-3.3346,-3.29,-3.29,-3.29,-3.2905,-3.2967,-3.3174,-3.2249,-3.099,-3.049,-2.9759,-2.9237,-2.972,-2.9564,-2.9238,-2.9334,-2.892,-2.8401,-2.8202,-2.7729,-2.7429,-2.7796,-2.7597,-2.723,-2.6849,-2.6713,-2.6526,-2.6076,-2.5919,-2.5846,-2.5809,-2.5733,-2.5659,-2.5659,-2.5619,-2.5597,-2.5597,-2.5597,-2.5759,-2.615,-2.6814,-2.7073,-2.6733,-2.7688,-2.8126,-2.7802,-2.8454,-2.8989,-2.9362,-2.9718,-2.9896,-2.9896,-2.8684,-2.8224,-2.8404,-2.6908,-2.6351,-3.5517,-3.5825,-3.5275,-3.3788,-3.2929,-3.1526,-2.7892,-2.6501,0.0,0.0,-2.2867,-2.2769,-2.1613,0.0,0.0,0.0,0.0,0.0,0.0,0.0,0.0,0.0,0.0,0.0,0.0,0.0,0.0,0.0,0.0,-3.6237,-3.5616,-3.6104,-3.6845,-3.7783,-3.8497,-3.9291,-4.0161,-4.1162,-4.1622,-4.1494,-4.0815,-4.0065,-3.9234,-3.8502,-3.7755,-3.7073,-3.743,-3.7595,-3.7595,-3.7595,-3.7506,-3.7202,-3.5757,-3.5097,-3.4829,-3.3598,-3.3168,-3.3168,-3.3168,-3.3486,-3.3864,-3.3854,-3.2614,-3.1219,-3.1616,-3.0783,-2.9955,-3.1219,-3.1236,-3.0873,-3.0819,-3.0403,-2.9863,-2.9396,-2.907,-2.8827,-2.8659,-2.8569,-2.8344,-2.7763,-2.7456,-2.71,-2.6485,-2.6163,-2.6026,-2.6028,-2.6014,-2.5982,-2.5945,-2.6032,-2.6072,-2.605,-2.5775,-2.5907,-2.6636,-2.7316,-2.7705,-2.7705,-2.853,-2.8973,-2.8811,-2.8957,-2.9313,-2.988,-2.9896,-2.9896,-2.9896,-2.8948,-2.8484,-2.8452,-2.7774,-2.7455,-3.5034,-3.5401,-3.5184,-3.3767,-3.2594,-3.0826,-2.7146,0.0,0.0,-2.2269,-2.1688,-2.1564,-2.1418,-2.2231,-2.3299,0.0,0.0,-2.7717,0.0,0.0,0.0,0.0,0.0,0.0,0.0,0.0,0.0,0.0,-3.6686,-3.6426,-3.6238,-3.6328,-3.6845,-3.7783,-3.8862,-3.9828,-4.0731,-4.1727,-4.198,-4.1494,-4.0995,-4.0214,-3.9193,-3.8621,-3.808,-3.754,-3.7577,-3.7595,0.0,-3.7595,-3.7184,-3.6417,-3.5543,-3.4793,-3.4187,-3.4044,-3.399,-3.399,-3.399,-3.4438,-3.4814,-3.3455,-3.3118,-3.3301,-3.3698,-3.321,-3.2549,-3.2692,-3.3226,-3.334,-3.1594,-3.2159,-3.2722,-3.0959,-3.0455,-3.0212,-2.9541,-2.9107,-2.8838,-2.877,-2.7957,-2.7376,-2.7599,-2.6745,-2.6101,-2.6402,-2.6682,-2.6842,-2.6707,-2.728,-2.7631,-2.751,-2.6358,-2.5907,-2.6636,-2.7316,-2.7705,-2.7705,-2.9021,-2.9491,-2.8843,-2.9443,-2.9832,-2.9896,-2.9896,-2.9896,-2.9896,-2.9793,-2.9739,-2.9723,-2.8973,-2.8634,-3.3451,-3.4375,-3.4474,-3.2644,-3.1303,-2.955,-2.6179,0.0,0.0,-2.1788,-2.1387,-2.1371,-2.1511,-2.2099,-2.2932,-2.4061,0.0,0.0,0.0,0.0,0.0,0.0,0.0,0.0,0.0,0.0,0.0,0.0,-3.7961,-3.7792,-3.7582,-3.766,-3.8084,-3.8854,-3.9736,-4.0504,-4.1202,-4.1622,-4.1709,-4.1494,-4.0255,-3.9497,-3.9175,-3.8179,-3.7693,-3.7595,-3.7595,-3.7595,0.0,-3.7595,-3.7131,-3.6363,-3.6042,-3.5453,-3.4705,-3.4258,-3.4366,-3.4704,-3.4258,-3.49,-3.5828,-3.5204,-3.5118,-3.5013,-3.3761,-3.2829,-3.2382,-3.3348,-3.3491,-3.3421,-3.3574,-3.3917,-3.3652,-3.1219,-3.1337,-3.1785,-3.099,-3.0692,-3.0446,-3.0001,-2.9227,-2.8526,-2.822,-2.776,-2.7335,-2.6957,-2.7213,-2.7359,-2.7228,-2.7227,-2.7371,-2.7656,-2.7183,-2.717,-2.7899,-2.8207,-2.8352,-2.8352,-2.9329,-2.9572,-2.8843,-2.9507,-2.9896,-2.9896,-2.9896,-2.9896,-2.9896,-2.9896,-2.9896,-2.988,-2.9589,-2.9459,-3.1713,-3.2942,-3.3361,-3.1704,-3.0197,-2.8387,0.0,0.0,-2.266,-2.1517,-2.1356,-2.1434,-2.1557,-2.2295,-2.3145,-2.3917,0.0,-2.5762,0.0,0.0,0.0,0.0,0.0,0.0,0.0,0.0,0.0,-3.875,-3.8579,-3.8427,-3.8391,-3.8548,-3.8832,-3.9348,-4.0161,-4.0814,-4.1293,-4.1428,-4.1428,-4.1271,-4.0044,-3.9295,-3.8946,-3.8196,-3.7784,-3.7595,-3.7595,-3.7595,0.0,-3.7345,-3.6756,-3.6024,-3.5792,-3.5239,-3.4508,-3.4454,-3.4633,-3.4847,-3.4527,-3.5293,-3.6328,-3.5864,-3.6185,-3.631,-3.3971,-3.3009,-3.2989,-3.4197,-3.3783,-3.3353,-3.4894,-3.4745,-3.3741,-3.2039,-3.2266,-3.2737,-3.2178,-3.195,-3.1652,-3.089,-3.0076,-2.9437,-2.9225,-2.895,-2.8727,-2.8755,-2.8836,-2.8826,-2.8568,-2.8207,-2.8089,-2.835,-2.8378,-2.8487,-2.8778,-2.8811,-2.8892,-2.9119,-2.9605,-2.967,-2.9151,-2.9621,-2.9896,-2.9896,-2.9896,-2.9896,-2.9896,-2.9896,-2.9896,-2.9896,-2.9896,-2.9896,-2.9966,-3.1104,-3.1845,-3.1177,-2.95,-2.7428,0.0,0.0,-2.2599,-2.1517,-2.145,-2.1604,-2.1604,-2.2801,-2.3869,-2.416,-2.586,0.0,0.0,0.0,0.0,0.0,0.0,0.0,0.0,0.0,0.0,-3.8706,-3.8067,0.0,-3.8363,-3.8548,-3.8655,-3.8805,-3.9961,-4.0666,-4.0802,-4.1271,-4.1288,-4.0802,-4.0802,-3.9951,-3.8429,-3.8946,-3.8594,-3.7595,-3.7595,-3.7595,0.0,-3.6738,-3.5935,-3.5133,-3.4418,-3.3633,-3.3114,-3.4633,-3.4723,-3.4222,-3.4937,-3.5721,-3.6149,-3.4633,-3.5685,-3.7149,-3.4811,-3.4597,-3.5219,-3.5504,-3.4431,-3.3566,-3.5173,-3.4257,-3.3098,-3.3885,-3.3473,-3.2902,-3.29,-3.2571,-3.2073,-3.1248,-3.0229,-2.9833,-3.0883,-3.0193,-3.0143,-3.2054,-3.2004,-3.1568,-3.1035,-3.0854,-3.0547,-3.0027,-2.9979,-2.9659,-2.8876,-2.8811,-2.9119,-2.9832,-2.9896,-2.9896,-2.988,-2.9896,-2.9896,-2.9896,-2.9896,-2.9896,-2.9896,-2.9896,-2.9896,-2.9896,-2.9896,-2.9896,-2.7408,-2.8481,-2.9049,-2.8365,-2.7229,-2.5954,-2.4662,0.0,-2.1788,-2.156,-2.148,-2.1526,-2.1693,-2.2163,-2.302,-2.4613,-2.548,0.0,0.0,0.0,0.0,0.0,0.0,0.0,0.0,0.0,0.0,-3.8675,-3.8969,-3.8963,-3.8424,-3.902,-3.9357,-3.9339,-3.9825,-4.0285,-4.0802,-4.0577,-4.0151,-3.9494,-3.9445,-3.8805,-3.7649,-3.8157,-3.81,-3.7595,-3.7595,-3.7595,-3.7541,-3.672,-3.5935,-3.5169,-3.4937,-3.4401,-3.3776,-3.4276,-3.4972,-3.5543,-3.474,-3.5311,-3.6238,-3.5204,-3.5364,-3.5917,-3.5739,-3.5828,-3.5844,-3.5001,-3.5078,-3.5284,-3.4889,-3.5442,-3.5774,-3.4418,-3.4704,-3.4864,-3.3257,-3.3231,-3.345,-3.3202,-3.2428,-3.2111,-3.3008,-3.2869,-3.2675,-3.2721,-3.2913,-3.2913,-3.2606,-3.2342,-3.197,-3.1433,-3.137,-3.0877,-2.967,-2.9605,-2.9702,-2.9902,-2.9896,-2.9896,-2.9896,-2.9896,-2.9896,-2.9896,-2.9896,-2.9896,-2.9896,-2.9896,-2.9896,-2.9896,-2.9896,-2.9896,0.0,-2.6673,-2.7248,-2.676,-2.5899,0.0,0.0,0.0,-2.1402,-2.1495,-2.1572,-2.1646,-2.1811,-2.216,-2.2968,-2.4627,-2.5212,0.0,0.0,0.0,0.0,0.0,0.0,0.0,0.0,0.0,-3.8865,-3.9143,-3.9613,-3.9723,-3.9332,-3.9568,-3.9706,-3.97,-3.977,-4.0011,-4.0497,-4.0178,-3.9766,-3.9317,-3.9168,-3.8623,-3.774,-3.8117,-3.8043,-3.7577,-3.7291,-3.7149,0.0,-3.5971,-3.5239,-3.4741,-3.4454,-3.4044,-3.3669,-3.399,-3.4526,-3.4989,-3.4329,-3.474,-3.5507,-3.5258,-3.5186,-3.5276,-3.581,-3.6237,-3.6267,-3.4925,-3.5301,-3.596,-3.532,-3.5914,-3.6363,-3.4999,-3.5111,-3.5132,-3.3669,-3.3508,-3.3651,-3.3651,-3.3239,-3.3239,-3.4329,-3.4526,-3.4561,-3.4667,-3.4657,-3.4553,-3.4284,-3.3781,-3.3266,-3.2771,-3.2309,-3.1646,-3.0701,-3.0228,-2.9968,-2.9902,-2.9896,-2.9896,-2.9896,-2.9896,-2.9896,-2.9896,-2.9896,-2.9896,-2.9896,-2.9896,-2.9896,-2.9896,-2.9896,-2.9896,0.0,-2.5461,-2.6168,-2.5949,-2.5216,-2.4123,0.0,0.0,0.0,0.0,-2.1646,-2.1886,-2.1951,-2.2708,-2.36,-2.4468,-2.5258,0.0,0.0,0.0,0.0,0.0,0.0,0.0,0.0,-3.7674,-3.8472,-3.9895,-3.9996,-4.0173,-4.0619,-4.0069,-3.9781,-3.982,-3.9751,-3.9783,-3.9952,-3.9952,-3.9902,-3.9783,-3.9593,-3.9038,-3.8239,-3.8538,-3.829,0.0,-3.6738,-3.6399,-3.6274,-3.474,-3.4115,-3.4026,-3.3221,-3.29,-3.2989,-3.374,-3.358,-3.3078,-3.3776,-3.4062,-3.4188,-3.4847,-3.5096,-3.5097,-3.5044,-3.5767,-3.6358,-3.5121,-3.5214,-3.5754,-3.6146,-3.5776,-3.5326,-3.5537,-3.4851,-3.4169,-3.4099,-3.3508,-3.2989,-3.2989,-3.2989,-3.3489,-3.5025,-3.524,-3.5757,-3.7363,-3.6934,-3.6292,-3.598,-3.5233,-3.4535,-3.4079,-3.3045,-3.2238,-3.196,-3.0771,-2.9989,-2.9918,-2.9902,-2.9902,-2.9896,-2.9896,-2.9896,-2.9896,-2.9896,-2.9896,-2.9896,-2.9896,-2.9896,-2.9896,-2.9896,-2.9896,-2.268,0.0,-2.3307,-2.3108,-2.2889,-2.2591,0.0,0.0,0.0,0.0,0.0,0.0,0.0,-2.3063,-2.4169,-2.6333,-2.7112,0.0,0.0,0.0,0.0,0.0,0.0,0.0,0.0,-3.8123,-3.8982,-3.9093,-4.0119,-4.0275,-3.9186,-3.9884,-3.9926,-3.91,-3.9035,-3.9169,-3.9451,-3.9451,-3.8902,-3.7786,-3.808,-3.7689,-3.6728,-3.7151,-3.744,-3.7559,-3.6738,-3.6399,-3.6274,-3.474,-3.4115,-3.4026,-3.3221,-3.29,-3.2918,-3.3114,-3.3437,-3.3758,-3.3328,-3.358,-3.4026,-3.358,-3.3865,-3.424,-3.3632,-3.4057,-3.4711,-3.4553,-3.5326,-3.6,-3.51,-3.5488,-3.5988,-3.5432,-3.5113,-3.4793,-3.4206,-3.3955,-3.383,-3.383,-3.383,-3.4311,-3.5846,-3.5614,-3.5757,-3.7363,-3.6934,-3.6595,-3.7093,-3.7003,-3.6483,-3.5473,-3.5095,-3.4515,-3.3491,-3.1496,-3.0184,-2.9918,-2.9946,-2.9946,-2.9896,-2.9896,-2.9896,-2.9896,-2.9896,-2.9896,-2.9896,-2.9896,-2.9896,-2.9896,-2.9896,-2.9896,-2.1714,-2.2245,-2.2677,-2.2556,-2.2436,-2.2269,-2.1864,0.0,0.0,0.0,0.0,0.0,0.0,0.0,0.0,0.0,-2.759,0.0,0.0,0.0,0.0,0.0,0.0,0.0,0.0,-3.8912,-3.9645,-3.9544,-4.017,-4.0312,-3.974,-4.0029,-3.9944,-3.9329,-3.904,-3.9023,-3.9299,-3.9299,-3.8735,-3.7615,-3.7758,-3.7329,-3.6446,-3.6757,-3.7054,-3.7246,-3.6666,-3.6185,-3.5757,-3.4579,-3.3883,-3.3508,-3.3078,-3.29,-3.29,-3.29,-3.3186,-3.3491,-3.3061,-3.3435,-3.3972,-3.3168,-3.3437,-3.3955,-3.315,-3.3203,-3.3681,-3.4276,-3.5119,-3.577,-3.5405,-3.5666,-3.5944,-3.5645,-3.5202,-3.4694,-3.4203,-3.3812,-3.3651,-3.4026,-3.4383,-3.4882,-3.5721,-3.5792,-3.5917,-3.6417,-3.6435,-3.656,-3.6988,-3.7381,-3.7343,-3.6697,-3.614,-3.5368,-3.4276,-3.2391,-3.1133,-3.0793,-3.0283,-2.9968,-2.9902,-2.9896,-2.9896,-2.9896,-2.9896,-2.9896,-2.9896,-2.9896,-2.9896,-2.9896,-2.9896,-2.9896,-2.1295,-2.2142,-2.3014,-2.2738,-2.2647,-2.2427,-2.1645,0.0,0.0,0.0,0.0,0.0,0.0,0.0,0.0,0.0,0.0,0.0,0.0,0.0,0.0,0.0,0.0,0.0,-3.8881,-3.9617,-4.017,-4.0221,-4.0155,-4.0273,-4.0652,-4.0152,-3.9825,-3.9722,-3.9243,-3.9094,-3.9299,-3.9299,-3.8924,-3.8212,-3.7861,-3.7337,-3.6694,-3.6745,-3.677,-3.6708,-3.6362,0.0,-3.4972,-3.424,-3.3508,-3.29,-3.29,-3.29,-3.29,-3.29,-3.29,-3.29,-3.29,-3.3364,-3.3794,-3.3114,-3.3364,-3.3794,-3.3114,-3.29,-3.3091,-3.3993,-3.4636,-3.5175,-3.5769,-3.5675,-3.5487,-3.5733,-3.4978,-3.4207,-3.416,-3.3487,-3.3096,-3.3776,-3.4418,-3.49,-3.5025,-3.5507,-3.5703,-3.5258,-3.5685,-3.6131,-3.6363,-3.6899,-3.7345,-3.7577,-3.6573,-3.5643,-3.5022,-3.3524,-3.2493,-3.2189,-3.0929,-3.0152,-3.0058,-2.9945,-2.9896,-2.9896,-2.9896,-2.9896,-2.9896,-2.9896,-2.9896,-2.9896,-2.9896,-2.9945,-2.1907,-2.2459,-2.2635,-2.1444,-2.1756,-2.2096,-2.1059,0.0,0.0,0.0,0.0,0.0,0.0,0.0,0.0,0.0,0.0,0.0,0.0,0.0,0.0,0.0,0.0,-3.8933,-3.8203,-3.9495,-4.0097,-3.9502,-3.9858,-3.9813,-3.9165,-3.9499,-3.9499,-3.8985,-3.8881,-3.8969,-3.9299,-3.9299,-3.8924,-3.8195,-3.7526,-3.7034,-3.6694,-3.6427,-3.6157,-3.5881,0.0,-3.4955,-3.4222,-3.3418,-3.3007,-3.29,-3.29,-3.29,-3.29,-3.29,-3.29,-3.29,-3.29,-3.2971,-3.3061,-3.2936,-3.2971,-3.3061,-3.2936,-3.29,-3.2934,-3.3091,-3.3684,-3.4181,-3.3792,-3.4132,-3.4638,-3.4863,-3.4126,-3.355,-3.4222,-3.3598,-3.2936,-3.3061,-3.3186,-3.3455,-3.4151,-3.3812,-3.3846,-3.5025,-3.4775,-3.4918,-3.6238,-3.5917,-3.6096,-3.7452,-3.6827,-3.6524,-3.7075,-3.5266,-3.401,-3.3842,-3.2123,-3.099,-3.0765,-3.0204,-2.9896,-2.9896,-2.9896,-2.9896,-2.9896,-2.9896,-2.9896,-2.9896,-2.9896,-3.0204,-2.1472,-2.2081,-2.2415,-2.1299,-2.2081,-2.2911,-2.2212,0.0,0.0,0.0,0.0,0.0,0.0,0.0,0.0,0.0,0.0,0.0,0.0,0.0,0.0,0.0,0.0,-3.8968,-3.9111,-3.9586,-3.969,-3.9317,-3.9534,-3.9413,-3.8821,-3.9049,-3.9082,-3.8805,-3.8805,-3.8942,-3.9299,-3.9299,-3.8924,-3.8186,-3.7864,-3.7211,-3.6346,-3.6654,-3.6277,-3.5409,0.0,-3.581,-3.4704,-3.4757,-3.4294,-3.3544,-3.3544,-3.3293,-3.29,-3.29,-3.29,-3.29,-3.29,-3.29,-3.29,-3.29,-3.29,-3.29,-3.29,-3.29,-3.29,-3.29,-3.323,-3.3584,-3.3447,-3.3771,-3.413,-3.4101,-3.3756,-3.3447,-3.3568,-3.323,-3.29,-3.29,-3.3257,-3.3526,-3.3455,-3.3508,-3.3633,-3.3919,-3.4044,-3.4365,-3.5079,-3.5186,-3.565,-3.6827,-3.6613,-3.6542,-3.6916,-3.5841,-3.4561,-3.3146,-3.1988,-3.132,-3.1231,-3.0715,-3.0263,-2.9896,-2.9896,-2.9896,-2.9896,-2.9896,-2.9896,-2.9896,-3.0263,-3.0619,-2.1471,-2.1939,-2.2279,-2.1575,0.0,-2.338,-2.328,0.0,0.0,0.0,0.0,0.0,0.0,0.0,0.0,0.0,0.0,0.0,0.0,0.0,-3.6238,-3.7731,-3.8461,-3.9155,-3.9856,-3.9745,-3.953,-3.9322,-3.9299,-3.9148,-3.8832,-3.8805,-3.8805,-3.8805,-3.8805,-3.8942,-3.9299,-3.9299,-3.9033,-3.846,-3.8268,-3.7584,-3.6437,-3.703,-3.6559,-3.5322,-3.6712,-3.6399,-3.499,-3.5792,-3.5204,-3.3847,-3.4026,-3.3598,-3.29,-3.29,-3.2932,-3.2961,-3.2961,-3.2961,-3.2961,-3.2961,-3.2948,-3.29,-3.29,-3.29,-3.2916,-3.2963,-3.3132,-3.3339,-3.3563,-3.3753,-3.3868,-3.3766,-3.3858,-3.3846,-3.3493,-3.3371,-3.334,-3.334,-3.3701,-3.3793,-3.3163,-3.356,-3.3775,-3.3163,-3.353,-3.3965,-3.4144,-3.4452,-3.5043,-3.6006,-3.6114,-3.6185,-3.6328,-3.6057,-3.5042,-3.3097,-3.239,-3.1979,-3.1873,-3.133,-3.0721,-3.0011,-2.9924,-2.9977,-3.0139,-3.0139,-3.022,-3.0399,-3.0927,-3.1244,-2.286,-2.273,-2.2262,-2.2008,-2.2073,0.0,-2.3277,-2.3781,0.0,0.0,0.0,0.0,0.0,0.0,0.0,0.0,0.0,0.0,0.0,0.0,-3.6846,-3.7048,-3.8418,-3.937,-3.9434,-3.9987,-4.004,-3.9348,-3.9299,-3.9148,-3.8832,-3.8805,-3.8805,-3.8805,-3.8805,-3.8942,-3.9299,-3.9299,-3.9282,-3.9216,-3.8526,-3.7994,-3.7665,-3.741,-3.671,-3.5684,-3.6256,-3.5614,-3.424,-3.4972,-3.4383,-3.3061,-3.3812,-3.3598,-3.29,-3.29,-3.3024,-3.3175,-3.3175,-3.3175,-3.3175,-3.3175,-3.3055,-3.29,-3.29,-3.29,-3.2948,-3.3114,-3.3371,-3.3591,-3.3587,-3.3753,-3.3947,-3.4124,-3.4583,-3.4972,-3.4945,-3.4796,-3.4652,-3.4652,-3.4109,-3.3621,-3.3549,-3.3603,-3.3621,-3.3549,-3.3378,-3.3535,-3.4274,-3.36,-3.365,-3.5132,-3.5276,-3.5509,-3.6077,-3.6093,-3.5911,-3.5561,-3.4563,-3.3672,-3.2909,-3.1956,-3.1067,-3.0284,-3.0038,-3.022,-3.0823,-3.0823,-3.1179,-3.185,-3.1898,-3.2287,-2.1842,-2.2319,-2.266,-2.2326,0.0,0.0,0.0,0.0,0.0,0.0,0.0,0.0,0.0,0.0,0.0,0.0,0.0,0.0,-3.4747,-3.5581,-3.6487,-3.7449,-3.7791,-3.8511,-3.9902,-3.946,-3.9166,-3.9288,-3.9299,-3.9175,-3.8942,-3.8914,-3.8914,-3.8914,-3.8914,-3.904,-3.9299,-3.9299,-3.9299,-3.9299,-3.9033,-3.8349,-3.7369,-3.7786,-3.7012,-3.5387,-3.6625,-3.6524,-3.5543,-3.5828,-3.5311,-3.4276,-3.3598,-3.3168,-3.2916,-3.3039,-3.3129,-3.322,-3.3401,-3.3444,-3.343,-3.325,-3.3486,-3.3717,-3.3091,-3.3257,-3.356,-3.3136,-3.3298,-3.3633,-3.3753,-3.4339,-3.4883,-3.4781,-3.5744,-3.6458,-3.5801,-3.5989,-3.6148,-3.5641,-3.5294,-3.4929,-3.444,-3.4349,-3.4185,-3.3678,-3.3368,-3.3554,-3.4516,-3.3617,-3.375,-3.5958,-3.6486,-3.6774,-3.7004,-3.6911,-3.6799,-3.6742,-3.5445,-3.4551,-3.4265,-3.3072,-3.2095,-3.1379,-3.1252,-3.1214,-3.1215,-3.1673,-3.1913,-3.2012,-3.2465,-3.2821,-2.1778,-2.248,-2.3078,0.0,0.0,0.0,0.0,0.0,0.0,0.0,0.0,0.0,0.0,0.0,0.0,0.0,0.0,-3.4414,-3.4414,-3.4962,-3.5837,-3.7125,-3.7187,-3.7776,-3.957,-3.9067,-3.8816,-3.9272,-3.9299,-3.9202,-3.8996,-3.8996,-3.8996,-3.8996,-3.8996,-3.9094,-3.9299,-3.9299,-3.9183,-3.8941,-3.8941,-3.8373,-3.7344,-3.7837,-3.7185,-3.5749,-3.705,-3.7149,-3.6399,-3.6399,-3.5792,-3.4722,-3.3418,-3.29,-3.2932,-3.3114,-3.325,-3.3353,-3.3615,-3.3684,-3.3671,-3.3484,-3.3686,-3.3895,-3.3201,-3.3323,-3.3614,-3.3122,-3.3283,-3.3661,-3.386,-3.4493,-3.5045,-3.4868,-3.5895,-3.674,-3.5997,-3.6262,-3.6501,-3.595,-3.584,-3.5675,-3.5124,-3.5234,-3.5202,-3.4651,-3.4363,-3.4477,-3.5217,-3.4615,-3.4869,-3.6855,-3.7148,-3.7327,-3.7577,-3.7466,-3.7391,-3.7391,-3.6284,-3.5486,-3.5166,-3.418,-3.3275,-3.2504,-3.2404,-3.2331,-3.2287,-3.2667,-3.284,-3.2867,-3.3251,-3.3404,-2.3168,-2.343,-2.3497,0.0,0.0,0.0,0.0,0.0,0.0,0.0,0.0,0.0,0.0,0.0,0.0,-3.4173,-3.4339,-3.4414,-3.4414,-3.4597,-3.5001,-3.5817,-3.6615,-3.7413,-3.8222,-3.8898,-3.9299,-3.9299,-3.9299,-3.9202,-3.9023,-3.8996,-3.8996,-3.8996,-3.8996,-3.9077,-3.9299,-3.9282,-3.8907,-3.8195,-3.8169,-3.8036,-3.7763,-3.7444,-3.7147,-3.6919,-3.7393,-3.7149,-3.6381,-3.6381,-3.5471,-3.4008,-3.3221,-3.29,-3.2914,-3.3129,-3.3368,-3.3633,-3.3829,-3.3895,-3.3895,-3.3895,-3.3597,-3.3205,-3.3205,-3.307,-3.2948,-3.3144,-3.3401,-3.3661,-3.386,-3.4049,-3.4197,-3.4197,-3.4878,-3.5529,-3.551,-3.5529,-3.5529,-3.5529,-3.5529,-3.5529,-3.5529,-3.6197,-3.6718,-3.6718,-3.6527,-3.6408,-3.6408,-3.6659,-3.7033,-3.756,-3.6899,-3.6738,-3.7541,-3.7595,-3.7613,-3.7595,-3.7222,-3.6558,-3.5553,-3.5186,-3.4559,-3.3635,-3.3288,-3.3487,-3.4203,-3.3812,-3.3983,-3.4691,-3.43,-3.4101,-2.1876,-2.2568,0.0,0.0,0.0,0.0,0.0,0.0,0.0,0.0,0.0,0.0,0.0,0.0,0.0,-3.3622,-3.4047,-3.4414,-3.4414,-3.4938,-3.5642,-3.6461,-3.7279,-3.8124,-3.8942,-3.9175,-3.9299,-3.9299,-3.9299,-3.9272,-3.9202,-3.9202,-3.9202,-3.9202,-3.8695,-3.8474,-3.8526,-3.8013,-3.7649,-3.7433,-3.6903,-3.6613,-3.6536,-3.707,-3.6701,-3.5711,-3.7032,-3.6809,-3.5525,-3.5007,-3.4169,-3.3239,-3.2989,-3.29,-3.2948,-3.3342,-3.353,-3.3643,-3.3998,-3.4111,-3.4086,-3.3947,-3.406,-3.4119,-3.3412,-3.345,-3.3664,-3.3291,-3.3401,-3.3661,-3.386,-3.4049,-3.4346,-3.4971,-3.6179,-3.7021,-3.6476,-3.6792,-3.7201,-3.7201,-3.7201,-3.7355,-3.7931,-3.7764,-3.7541,-3.7541,-3.6897,-3.6536,-3.6908,-3.8172,-3.9045,-3.9017,-3.8614,-3.8402,-3.8509,-3.7824,-3.7334,-3.7201,-3.7066,-3.6862,-3.6576,-3.5639,-3.5015,-3.473,-3.4631,-3.455,-3.4477,-3.4661,-3.4721,-3.4691,-3.43,-3.4101,-2.1807,-2.2736,0.0,0.0,0.0,0.0,0.0,0.0,0.0,0.0,0.0,0.0,0.0,0.0,0.0,-3.4528,-3.4469,-3.4601,-3.5121,-3.5139,-3.5627,-3.7024,-3.7411,-3.8023,-3.9175,-3.9299,-3.9299,-3.9299,-3.9299,-3.9299,-3.9299,-3.9299,-3.9183,-3.8858,-3.8444,-3.8079,-3.7781,-3.7334,-3.6953,-3.6671,-3.6224,-3.5924,-3.5863,-3.6551,-3.6379,-3.5594,-3.6656,-3.6381,-3.5186,-3.4722,-3.3883,-3.2953,-3.3578,-3.3453,-3.2999,-3.376,-3.386,-3.3675,-3.4061,-3.4197,-3.4185,-3.4061,-3.4127,-3.416,-3.3643,-3.3608,-3.3685,-3.3304,-3.3455,-3.3799,-3.4165,-3.4225,-3.4327,-3.486,-3.572,-3.6296,-3.5813,-3.6092,-3.6519,-3.6885,-3.7188,-3.7671,-3.8469,-3.8488,-3.8377,-3.8377,-3.7854,-3.7778,-3.8676,-3.9228,-3.9782,-4.0472,-3.9831,-3.9406,-3.9481,-3.8542,-3.7835,-3.7602,-3.7143,-3.6869,-3.6869,-3.6191,-3.5766,-3.5628,-3.5628,-3.5507,-3.5283,-3.5391,-3.5339,-3.5125,-3.4706,-3.4537,-2.242,0.0,0.0,0.0,0.0,0.0,0.0,0.0,0.0,0.0,0.0,0.0,0.0,-3.481,-3.4776,-3.6152,-3.5335,-3.4938,-3.6228,-3.54,-3.5449,-3.7544,-3.7322,-3.7602,-3.9121,-3.9299,-3.9299,-3.9299,-3.9249,-3.9232,-3.9299,-3.9166,-3.8808,-3.8228,-3.8053,-3.7698,-3.7019,-3.6936,-3.6572,-3.5909,-3.5942,-3.584,-3.5616,-3.602,-3.6201,-3.6222,-3.6198,-3.5792,-3.5114,-3.5114,-3.4276,-3.315,-3.4561,-3.4257,-3.3174,-3.4304,-3.4298,-3.3812,-3.4277,-3.4383,-3.4309,-3.4309,-3.3989,-3.3657,-3.3842,-3.3578,-3.3235,-3.3265,-3.3564,-3.4021,-3.4609,-3.4468,-3.4197,-3.4197,-3.4197,-3.4234,-3.4383,-3.4364,-3.4599,-3.5547,-3.6309,-3.7113,-3.8061,-3.8711,-3.9101,-3.9101,-3.9101,-3.9592,-4.0953,-3.985,-3.974,-4.1857,-4.06,-3.9846,-4.0366,-3.9391,-3.863,-3.8339,-3.7291,-3.6664,-3.6664,-3.6664,-3.6544,-3.6301,-3.6301,-3.6301,-3.6301,-3.5958,-3.5805,-3.5805,-3.5385,-3.5201,0.0,-2.2639,0.0,0.0,0.0,0.0,0.0,0.0,0.0,0.0,0.0,0.0,0.0,-3.4853,-3.4827,-3.6182,-3.5706,-3.5464,-3.6291,-3.6707,-3.71,-3.7589,-3.8153,-3.8662,-3.9023,-3.9202,-3.9299,-3.9299,-3.8758,-3.8692,-3.9265,-3.8195,-3.7781,-3.8195,-3.7085,-3.6406,-3.6241,-3.5661,-3.5297,-3.5131,-3.5498,-3.565,-3.5616,-3.602,-3.6252,-3.6289,-3.51,-3.4508,-3.4347,-3.4347,-3.4151,-3.3865,-3.4222,-3.423,-3.413,-3.4615,-3.4792,-3.4898,-3.5847,-3.5751,-3.5231,-3.5231,-3.4591,-3.3842,-3.3881,-3.3707,-3.3545,-3.3707,-3.3829,-3.3957,-3.4239,-3.4266,-3.4197,-3.4197,-3.4197,-3.455,-3.5869,-3.5677,-3.5659,-3.7095,-3.7522,-3.8321,-4.0438,-3.9863,-3.9101,-3.9101,-3.9101,-3.9458,-4.0455,-4.0273,-4.0722,-4.2437,-4.1009,-4.0061,-4.0454,-3.8779,-3.7547,-3.7111,-3.6651,-3.6402,-3.6402,-3.6402,-3.6343,-3.6301,-3.6301,-3.6301,-3.6301,-3.5958,-3.5805,-3.5805,-3.5385,-3.5201,0.0,0.0,0.0,0.0,0.0,0.0,0.0,0.0,0.0,0.0,0.0,0.0,-3.527,-3.4836,-3.4793,-3.6135,-3.5799,-3.5707,-3.6704,-3.6658,-3.676,-3.7484,-3.7418,-3.7644,-3.8443,-3.8312,-3.8325,-3.8742,-3.8096,-3.7847,-3.8228,-3.7516,-3.7119,-3.7152,-3.6406,-3.5827,-3.5479,-3.5081,-3.5001,-3.5241,-3.5476,-3.582,-3.6228,-3.644,-3.6708,-3.6899,-3.5311,-3.4847,-3.5168,-3.4793,-3.4633,-3.4722,-3.5625,-3.556,-3.5072,-3.5835,-3.5946,-3.5827,-3.6472,-3.6439,-3.6012,-3.564,-3.5314,-3.4971,-3.4264,-3.4171,-3.4257,-3.3979,-3.3972,-3.4123,-3.4542,-3.4433,-3.4494,-3.5683,-3.5052,-3.4439,-3.5312,-3.551,-3.5863,-3.7076,-3.7634,-3.8562,-4.0661,-4.029,-3.9584,-3.9157,-3.9101,-3.9417,-4.029,-4.003,-4.0401,-4.2054,-4.1004,-4.0317,-4.0611,-3.9211,-3.8057,-3.7411,-3.6835,-3.6423,-3.6301,-3.6301,-3.6301,-3.6301,-3.6301,-3.6301,-3.6301,-3.6131,-3.6045,-3.6045,-3.6224,-3.6084,0.0,0.0,0.0,0.0,0.0,0.0,0.0,0.0,0.0,0.0,0.0,0.0,-3.5434,-3.4973,-3.4911,-3.6253,-3.581,-3.5732,-3.6964,-3.6169,-3.5936,-3.7151,-3.6318,-3.6232,-3.7633,-3.7244,-3.7197,-3.7954,-3.7334,-3.697,-3.7102,-3.687,-3.6506,-3.6025,-3.5876,-3.5512,-3.4899,-3.4767,-3.4941,-3.5385,-3.5426,-3.5832,-3.661,-3.661,-3.6818,-3.7095,-3.5792,-3.5435,-3.5757,-3.5364,-3.5221,-3.5432,-3.714,-3.7022,-3.6061,-3.7132,-3.7159,-3.6676,-3.6838,-3.6829,-3.6569,-3.577,-3.584,-3.6011,-3.4779,-3.4771,-3.5029,-3.4352,-3.4185,-3.4309,-3.4829,-3.4574,-3.4754,-3.6946,-3.5906,-3.4531,-3.4959,-3.5386,-3.5993,-3.6928,-3.7764,-3.8711,-3.9955,-4.029,-4.0085,-3.9231,-3.9101,-3.9361,-4.0067,-3.9547,-3.9695,-4.1219,-4.0661,-4.0355,-4.0833,-3.9887,-3.8996,-3.8294,-3.7411,-3.6765,-3.6381,-3.6381,-3.636,-3.6301,-3.6301,-3.6301,-3.6301,-3.6301,-3.6301,-3.6318,-3.6973,-3.6939,0.0,0.0,0.0,0.0,0.0,0.0,0.0,0.0,0.0,0.0,0.0,-3.4776,-3.6027,-3.5661,-3.5608,-3.6942,-3.6123,-3.5558,-3.6325,-3.6271,-3.6227,-3.6432,-3.6399,-3.6499,-3.6849,-3.6896,-3.6999,-3.7226,-3.6572,-3.6439,-3.7069,-3.5893,-3.5446,-3.5976,-3.5379,-3.4998,-3.4899,-3.427,-3.4151,-3.4563,-3.4688,-3.4971,-3.5438,-3.5438,-3.5473,-3.5525,-3.5276,-3.4508,-3.3471,-3.4686,-3.5339,-3.5642,-3.6594,-3.7069,-3.7268,-3.7503,-3.7627,-3.77,-3.7726,-3.7294,-3.6569,-3.577,-3.554,-3.5583,-3.5386,-3.5373,-3.5416,-3.5324,-3.4761,-3.4216,-3.4303,-3.4259,-3.4476,-3.5566,-3.5566,-3.59,-3.7986,-3.7429,-3.6978,-3.8488,-3.9472,-3.9914,-3.9361,-3.99,-4.0085,-3.9231,-3.9101,-3.9138,-3.925,-3.9175,-3.9472,-4.0471,-3.9788,-3.9781,-4.1038,-3.997,-3.9085,-3.8813,-3.8245,-3.7531,-3.6678,-3.6643,-3.6544,-3.6301,-3.6301,-3.6301,-3.6301,-3.6301,-3.6301,-3.6301,-3.6404,-3.6404,0.0,0.0,0.0,0.0,0.0,0.0,0.0,0.0,0.0,0.0,-3.3884,-3.4649,-3.5611,-3.5174,-3.5005,-3.5975,-3.5621,-3.5348,-3.5645,-3.5671,-3.5671,-3.5671,-3.5351,-3.5356,-3.5934,-3.5734,-3.5778,-3.6331,-3.5761,-3.5346,-3.5263,-3.4634,-3.4237,-3.4154,-3.3822,-3.3657,-3.3657,-3.3365,-3.3522,-3.4185,-3.4701,-3.503,-3.5186,-3.5186,-3.5186,-3.5169,-3.4758,-3.4436,-3.4257,-3.5086,-3.5756,-3.6391,-3.7478,-3.8041,-3.8236,-3.8381,-3.8493,-3.8507,-3.8061,-3.7671,-3.7169,-3.5919,-3.6105,-3.6681,-3.577,-3.5807,-3.6086,-3.564,-3.4866,-3.4197,-3.4197,-3.4197,-3.4531,-3.5863,-3.5826,-3.616,-3.8581,-3.8191,-3.7708,-3.8878,-3.967,-3.9941,-3.9217,-3.9807,-4.0085,-3.9231,-3.9101,-3.9101,-3.9101,-3.9101,-3.925,-3.9621,-3.9324,-3.9314,-3.9813,-3.9191,-3.8608,-3.8241,-3.787,-3.7358,-3.674,-3.6702,-3.6564,-3.6301,-3.6301,-3.6301,-3.6301,-3.6301,-3.6525,-3.6956,-3.6956,-3.718,0.0,0.0,0.0,0.0,0.0,0.0,0.0,0.0,0.0,0.0,-3.3162,-3.3972,-3.4624,-3.4591,-3.4611,-3.5117,-3.5049,-3.4936,-3.4936,-3.4936,-3.4936,-3.4936,-3.4424,-3.4361,-3.5049,-3.4709,-3.4669,-3.5218,-3.482,-3.4263,-3.3557,-3.3531,-3.3282,-3.2718,-3.2702,-3.2702,-3.2702,-3.2722,-3.2966,-3.3438,-3.4235,-3.4615,-3.4615,-3.4615,-3.4615,-3.4597,-3.4258,-3.4311,-3.4649,-3.5109,-3.5686,-3.6449,-3.7906,-3.8505,-3.8615,-3.8971,-3.9101,-3.8952,-3.7949,-3.7596,-3.7355,-3.5956,-3.6458,-3.7411,-3.642,-3.6402,-3.6625,-3.6216,-3.5194,-3.429,-3.4717,-3.4513,-3.4661,-3.6556,-3.6402,-3.6346,-3.8358,-3.8469,-3.8377,-3.8971,-3.9474,-3.9638,-3.9185,-3.964,-3.9844,-3.9194,-3.9101,-3.9101,-3.9101,-3.9101,-3.9101,-3.9101,-3.9101,-3.9124,-3.9206,-3.8946,-3.8609,-3.8203,-3.788,-3.7415,-3.6803,-3.6722,-3.6564,-3.6301,-3.6301,-3.6301,-3.6301,-3.6301,-3.6715,-3.7512,-3.7512,-3.7909,0.0,0.0,0.0,0.0,0.0,0.0,0.0,0.0,0.0,0.0,-3.1415,-3.2503,-3.3182,-3.4312,-3.5143,-3.5185,-3.4603,-3.4165,-3.4165,-3.4165,-3.4165,-3.4165,-3.4117,-3.4167,-3.4349,-3.4316,-3.4145,-3.3729,-3.3686,-3.341,-3.2779,-3.2768,-3.2752,-3.2702,-3.2702,-3.2702,-3.2702,-3.2754,-3.2485,-3.1834,-3.2645,-3.3025,-3.3025,-3.3025,-3.3025,-3.3061,-3.3794,-3.3687,-3.3094,-3.4067,-3.464,-3.5075,-3.6883,-3.7724,-3.8047,-3.8804,-3.9101,-3.8878,-3.7312,-3.6773,-3.6625,-3.5789,-3.6067,-3.6904,-3.7559,-3.7262,-3.6848,-3.7559,-3.6055,-3.4569,-3.6147,-3.5386,-3.481,-3.7262,-3.7219,-3.6885,-3.7764,-3.8525,-3.9045,-3.9082,-3.9124,-3.9143,-3.912,-3.9138,-3.9157,-3.9101,-3.9101,-3.9101,-3.9101,-3.9101,-3.9101,-3.9101,-3.9101,-3.9435,-4.0238,-4.0018,-3.9719,-3.9511,-3.9013,-3.8197,-3.7025,-3.6806,-3.6564,-3.6301,-3.6301,-3.6301,-3.6301,-3.6301,-3.6715,-3.7512,-3.7512,-3.7909,0.0,0.0,0.0,0.0,0.0,0.0,0.0,0.0,0.0,0.0,-3.0847,-3.1462,-3.1851,-3.3338,-3.4371,-3.3962,-3.4018,-3.3958,-3.3594,-3.3496,-3.3453,-3.3453,-3.3032,-3.2959,-3.3478,-3.3177,-3.3077,-3.3312,-3.3067,-3.2605,-3.1962,-3.151,-3.1305,-3.1305,-3.0824,-3.0808,-3.1288,-3.1808,-3.1954,-3.1714,-3.2521,-3.29,-3.29,-3.29,-3.29,-3.2918,-3.3203,-3.3168,-3.2985,-3.4163,-3.5023,-3.5721,-3.7183,-3.8123,-3.8637,-3.8414,-3.8321,-3.8098,-3.6495,-3.6272,-3.6495,-3.5107,-3.5603,-3.6649,-3.6439,-3.616,-3.5993,-3.629,-3.5312,-3.4327,-3.494,-3.4643,-3.4699,-3.6649,-3.7689,-3.8321,-3.8599,-3.8803,-3.895,-3.9073,-3.9007,-3.895,-3.9073,-3.9101,-3.9101,-3.9101,-3.9101,-3.9101,-3.9101,-3.9101,-3.9101,-3.9101,-3.9101,-3.9231,-3.9547,-3.9331,-3.9087,-3.8853,-3.8484,-3.79,-3.7027,-3.6928,-3.6708,-3.6301,-3.6301,-3.6301,-3.6301,-3.6301,-3.6956,-3.8185,-3.718,-3.7922,0.0,0.0,0.0,0.0,0.0,0.0,0.0,0.0,0.0,-2.8717,-2.9899,-3.0594,-3.0639,-3.1854,-3.275,-3.2615,-3.2918,-3.3143,-3.2971,-3.2851,-3.2723,-3.2457,-3.1958,-3.1737,-3.2003,-3.1878,-3.1883,-3.2164,-3.1899,-3.144,-3.0818,-3.0154,-2.9914,-3.0125,-2.9645,-2.9825,-3.0699,-3.1357,-3.1786,-3.1913,-3.2571,-3.29,-3.29,-3.29,-3.29,-3.29,-3.29,-3.29,-3.2983,-3.3978,-3.4652,-3.5202,-3.6749,-3.7692,-3.8188,-3.8192,-3.8081,-3.7708,-3.6383,-3.6086,-3.616,-3.5312,-3.5776,-3.6662,-3.6402,-3.6123,-3.59,-3.59,-3.5287,-3.4754,-3.5293,-3.5646,-3.6055,-3.6891,-3.8135,-3.9101,-3.9101,-3.9007,-3.895,-3.9073,-3.8989,-3.8931,-3.9073,-3.9101,-3.9101,-3.9101,-3.9101,-3.9073,-3.9003,-3.9059,-3.9073,-3.9003,-3.9059,-3.9101,-3.9101,-3.8921,-3.8683,-3.8415,-3.8086,-3.7739,-3.7378,-3.7068,-3.685,-3.6719,-3.6439,-3.6301,-3.6301,-3.6301,-3.6956,-3.8198,-3.718,-3.806,0.0,0.0,0.0,0.0,0.0,0.0,-2.3768,0.0,-2.5287,-2.6496,-2.8353,-2.9722,-2.9561,-2.9912,-3.0455,-3.1164,-3.1327,-3.1574,-3.2213,-3.2185,-3.1855,-3.1119,-3.0909,-3.0548,-2.9929,-3.0457,-3.0677,-3.0216,-3.0172,-2.9929,-2.941,-2.8754,-2.8691,-2.9334,-2.938,-2.9949,-3.1069,-3.149,-3.1913,-3.2301,-3.2705,-3.29,-3.29,-3.29,-3.29,-3.29,-3.29,-3.29,-3.2948,-3.3386,-3.3462,-3.343,-3.5461,-3.6325,-3.6592,-3.8158,-3.8344,-3.7708,-3.6946,-3.6197,-3.5659,-3.6458,-3.6699,-3.6835,-3.7596,-3.7294,-3.6649,-3.6649,-3.6123,-3.59,-3.7448,-3.8451,-3.8859,-3.8079,-3.8507,-3.9101,-3.9101,-3.9101,-3.9101,-3.9101,-3.9101,-3.9101,-3.9101,-3.9101,-3.9101,-3.9101,-3.9101,-3.9031,-3.8818,-3.8974,-3.9017,-3.8837,-3.8974,-3.9101,-3.9101,-3.8921,-3.8716,-3.8467,-3.7984,-3.786,-3.8151,-3.7242,-3.6981,-3.753,-3.6766,-3.637,-3.637,-3.6318,-3.6715,-3.7512,-3.7547,-3.8341,-2.2608,0.0,0.0,0.0,0.0,0.0,-2.2832,-2.322,-2.3916,-2.5175,-2.6048,-2.6845,-2.7685,-2.798,-2.8192,-2.8649,-2.9451,-3.0068,-3.014,-3.0045,-2.9831,-2.9464,-2.8947,-2.8725,-2.9086,-2.9259,-2.9562,0.0,-2.9613,-2.9341,-2.919,-2.8692,-2.8243,-2.7895,-2.887,-2.9699,-3.0311,-3.1235,-3.1913,-3.2301,-3.2705,-3.29,-3.29,-3.29,-3.29,-3.29,-3.29,-3.29,-3.2916,-3.3208,-3.3641,-3.422,-3.509,-3.5823,-3.6459,-3.7054,-3.6814,-3.6216,-3.6588,-3.6551,-3.6402,-3.663,-3.6699,-3.663,-3.6272,-3.6012,-3.5826,-3.5826,-3.6086,-3.6476,-3.6922,-3.7634,-3.8172,-3.7949,-3.8507,-3.9101,-3.9101,-3.9101,-3.9101,-3.9101,-3.9101,-3.9101,-3.9101,-3.9101,-3.9101,-3.9101,-3.9101,-3.9073,-3.9017,-3.9073,-3.9073,-3.9017,-3.9073,-3.9101,-3.9101,-3.9045,-3.9176,-3.954,-3.8709,-3.8526,-3.9235,-3.8262,-3.7913,-3.8289,-3.8099,-3.7956,-3.7956,-3.6835,-3.6715,-3.753,-3.8577,-3.9301,0.0,0.0,0.0,0.0,0.0,0.0,-2.3342,-2.3318,-2.354,0.0,-2.5068,-2.5309,-2.6306,-2.6236,-2.621,-2.6823,-2.7428,-2.7991,-2.8561,-2.8528,-2.8257,-2.7775,-2.728,-2.7118,-2.7425,-2.7737,-2.8118,-2.8565,-2.8335,-2.8115,-2.7898,-2.7637,-2.7431,-2.7298,-2.8111,-2.9078,-3.0233,-3.0915,-3.1672,-3.2538,-3.2786,-3.29,-3.29,-3.29,-3.29,-3.29,-3.29,-3.29,-3.2916,-3.3114,-3.3509,-3.4024,-3.4684,-3.5317,-3.5961,-3.6735,-3.6589,-3.6123,-3.6922,-3.6978,-3.6773,-3.7076,-3.7188,-3.7113,-3.6643,-3.6513,-3.6439,-3.6105,-3.6588,-3.7294,-3.7596,-3.8042,-3.8395,-3.8395,-3.8767,-3.9101,-3.9101,-3.9101,-3.9101,-3.9101,-3.9101,-3.9101,-3.9101,-3.9101,-3.9101,-3.9101,-3.9101,-3.9185,-3.9437,-3.946,-3.9427,-3.946,-3.946,-3.9341,-3.9106,-3.9017,-3.9076,-3.9313,-3.8556,-3.851,-3.9456,-3.8219,-3.7854,-3.8599,-3.8284,-3.8306,-3.8594,-3.7387,-3.7025,-3.7547,-3.9008,-3.9698,0.0,0.0,0.0,0.0,-2.3153,0.0,-2.438,-2.3998,-2.3692,-2.4916,-2.4717,-2.4529,-2.5176,-2.4709,-2.4542,-2.5516,-2.5445,-2.5767,-2.7229,-2.7336,-2.6958,-2.6152,-2.5941,-2.5795,-2.5608,-2.6264,-2.6724,-2.6772,-2.6853,-2.6709,-2.6235,-2.6202,-2.6501,-2.7149,-2.7249,-2.8288,-3.0334,-3.0455,-3.1201,-3.2632,-3.2721,-3.2775,-3.2775,-3.2864,-3.29,-3.29,-3.29,-3.2916,-3.2963,-3.3114,-3.3205,-3.3289,-3.4229,-3.4765,-3.516,-3.6721,-3.6989,-3.6686,-3.7578,-3.7429,-3.6965,-3.7764,-3.7968,-3.7894,-3.7894,-3.7894,-3.7764,-3.7132,-3.7466,-3.8191,-3.8915,-3.9101,-3.9101,-3.9101,-3.9101,-3.9101,-3.9101,-3.9101,-3.9101,-3.9101,-3.9101,-3.9101,-3.9101,-3.9101,-3.9101,-3.9101,-3.9101,-3.9276,-3.9795,-3.9823,-3.9789,-3.9826,-3.9758,-3.954,-3.9026,-3.8862,-3.8689,-3.8494,-3.8003,-3.8162,-3.9185,-3.7679,-3.7415,-3.8703,-3.8185,-3.8168,-3.8715,-3.7996,-3.7668,-3.7789,-3.9077,-3.975,0.0,0.0,0.0,0.0,0.0,0.0,-2.3064,-2.2863,-2.2965,0.0,-2.2904,-2.2959,-2.3881,-2.3882,-2.3841,-2.4168,-2.4286,-2.4668,-2.5639,-2.576,-2.5589,-2.5206,-2.5127,-2.5234,-2.5559,-2.6264,-2.672,-2.6724,-2.683,-2.6709,-2.6235,-2.6202,-2.6268,-2.6419,-2.7,-2.78,-2.8815,-2.942,-3.0136,-3.0975,-3.1617,-3.192,-3.1956,-3.2596,-3.29,-3.29,-3.29,-3.2993,-3.3144,-3.319,-3.3205,-3.3268,-3.3831,-3.4094,-3.4289,-3.5456,-3.5825,-3.5937,-3.7392,-3.7801,-3.7801,-3.8599,-3.8432,-3.7894,-3.7894,-3.7894,-3.7986,-3.8488,-3.8729,-3.8897,-3.9064,-3.9101,-3.9101,-3.9101,-3.9101,-3.9101,-3.9101,-3.9101,-3.9101,-3.9101,-3.9101,-3.9101,-3.9101,-3.9101,-3.9101,-3.9101,-3.9101,-3.9073,-3.9039,-3.9028,-3.8952,-3.8732,-3.87,-3.8577,-3.8316,-3.8507,-3.87,-3.8867,-3.8238,-3.8312,-3.9332,-3.8209,-3.8174,-3.9457,-3.998,-3.9997,-3.9474,-3.8732,-3.8681,-3.9267,-3.956,-4.0043,0.0,0.0,0.0,-2.4542,0.0,0.0,0.0,-2.4031,-2.4001,-2.4364,-2.3366,-2.2752,-2.3692,0.0,-2.286,-2.3319,-2.4097,-2.4547,-2.4236,-2.4268,-2.4446,-2.4842,-2.4602,-2.4853,-2.6047,-2.615,-2.6189,-2.6287,-2.6365,-2.6332,-2.6219,-2.6202,-2.6274,-2.6434,-2.6803,-2.7521,-2.8641,-2.9009,-2.9648,-3.0511,-3.1314,-3.1689,-3.1724,-3.2525,-3.29,-3.29,-3.29,-3.3008,-3.3205,-3.3339,-3.3455,-3.3564,-3.3815,-3.3959,-3.4209,-3.5602,-3.6105,-3.6328,-3.7931,-3.8488,-3.8562,-3.8971,-3.8822,-3.8488,-3.8488,-3.8488,-3.8581,-3.899,-3.9101,-3.9101,-3.9101,-3.9101,-3.9101,-3.9101,-3.9101,-3.9101,-3.9101,-3.9101,-3.9101,-3.9101,-3.9101,-3.9101,-3.9101,-3.9101,-3.9101,-3.9101,-3.9101,-3.9165,-3.9371,-3.9588,-3.952,-3.8904,-3.9231,-3.9055,-3.7983,-3.8229,-3.8378,-3.8205,-3.7738,-3.7799,-3.8579,-3.7586,-3.7703,-3.9112,-3.9905,-4.0284,-4.0284,-3.9945,-3.9715,-3.9698,-4.0095,-4.0284,0.0,0.0,0.0,0.0,0.0,-2.5365,0.0,0.0,0.0,0.0,0.0,0.0,0.0,0.0,0.0,0.0,0.0,0.0,0.0,-2.3056,0.0,-2.4712,-2.4446,-2.485,-2.6617,-2.6097,-2.5807,-2.6253,-2.595,-2.5924,-2.6348,-2.6323,-2.6484,-2.6928,-2.6843,-2.7461,-2.889,-2.875,-2.92,-3.0315,-3.1082,-3.1546,-3.1724,-3.2525,-3.29,-3.29,-3.29,-3.3039,-3.3294,-3.3502,-3.3739,-3.3959,-3.3959,-3.4154,-3.4606,-3.5974,-3.6681,-3.7113,-3.8414,-3.8971,-3.9101,-3.9101,-3.9101,-3.9101,-3.9101,-3.9101,-3.9101,-3.9101,-3.9101,-3.9101,-3.9101,-3.9101,-3.9101,-3.9101,-3.9073,-3.9045,-3.9045,-3.9045,-3.9045,-3.9045,-3.9203,-3.9305,-3.912,-3.9231,-3.9287,-3.912,-3.9231,-3.9443,-3.9691,-4.0141,-4.0035,-3.9082,-3.9661,-3.941,-3.7667,-3.7858,-3.7825,-3.7226,-3.7057,-3.7141,-3.7492,-3.689,-3.7111,-3.8353,-3.9112,-3.9802,-4.0463,-4.0463,-4.029,-3.9939,-4.0446,-4.0325,0.0,0.0,0.0,0.0,-2.6063,0.0,0.0,0.0,-2.4499,-2.3712,0.0,0.0,0.0,0.0,0.0,0.0,0.0,0.0,-2.2687,-2.2506,-2.2922,-2.4533,-2.4922,-2.5599,-2.7001,-2.6311,-2.6292,-2.7574,-2.6136,-2.5719,-2.6932,-2.6769,-2.6979,-2.7742,-2.7364,-2.7702,-2.889,-2.819,-2.8391,-2.953,-3.0279,-3.1011,-3.1724,-3.2525,-3.29,-3.29,-3.29,-3.3147,-3.3563,-3.3591,-3.3815,-3.4173,-3.4173,-3.4649,-3.538,-3.5566,-3.6551,-3.7782,-3.7968,-3.8488,-3.9101,-3.9101,-3.9101,-3.9101,-3.9101,-3.9101,-3.9101,-3.9101,-3.9101,-3.9101,-3.9101,-3.9101,-3.9101,-3.9101,-3.896,-3.8818,-3.8818,-3.8818,-3.8818,-3.8818,-3.9604,-4.0011,-3.9231,-3.9733,-3.9974,-3.9212,-3.9751,-3.9892,-3.8882,-3.9119,-3.8976,-3.7918,-3.8151,-3.7961,-3.6898,-3.7129,-3.7075,-3.6451,-3.6721,-3.6774,-3.6485,-3.7047,-3.7461,-3.7633,-3.8358,-3.8767,-3.8853,-3.8853,-3.9531,-4.0756,-4.0112,-3.9784,0.0,0.0,0.0,0.0,0.0,0.0,-2.4548,0.0,-2.5173,0.0,0.0,0.0,0.0,0.0,0.0,0.0,-2.2183,0.0,0.0,0.0,-2.4017,0.0,0.0,0.0,-2.6561,-2.7116,-2.7599,-2.8145,-2.6699,-2.6188,-2.7064,-2.7075,-2.7398,-2.8168,-2.8405,-2.894,-2.9819,-2.9482,-2.9559,-3.0047,-3.098,-3.1518,-3.174,-3.2647,-3.3008,-3.29,-3.29,-3.3162,-3.3605,-3.3605,-3.3847,-3.4197,-3.4197,-3.4729,-3.5566,-3.603,-3.6922,-3.7968,-3.8432,-3.8822,-3.9101,-3.9101,-3.9101,-3.9101,-3.9101,-3.9101,-3.9101,-3.9101,-3.9101,-3.9101,-3.9101,-3.9101,-3.9101,-3.9101,-3.895,-3.8807,-3.8807,-3.9001,-3.9268,-3.9458,-4.0246,-4.0648,-3.9978,-4.0531,-4.0958,-4.0606,-4.0457,-4.0166,-3.951,-3.9898,-3.9547,-3.7684,-3.8591,-3.8532,-3.6631,-3.6816,-3.6818,-3.6343,-3.6451,-3.6471,-3.6322,-3.706,-3.7512,-3.7512,-3.8215,-3.8801,-3.9232,-3.9232,-3.956,-4.0204,-3.9405,-3.906,-2.7631,0.0,0.0,0.0,0.0,0.0,-2.4815,-2.5141,-2.565,0.0,0.0,0.0,0.0,0.0,0.0,0.0,0.0,-2.3234,0.0,-2.3579,0.0,0.0,0.0,0.0,0.0,-2.7087,-2.7833,-2.8179,-2.7173,-2.6735,-2.7174,-2.7742,-2.8235,-2.8677,-2.9397,-3.0106,-3.0817,-3.0603,-3.0648,-3.0954,-3.1719,-3.2144,-3.2242,-3.2889,-3.3114,-3.2977,-3.2932,-3.3117,-3.3502,-3.3577,-3.3788,-3.4142,-3.4445,-3.5083,-3.59,-3.6495,-3.7206,-3.8024,-3.8822,-3.9101,-3.9101,-3.9101,-3.9101,-3.9101,-3.9101,-3.9101,-3.9101,-3.9101,-3.9101,-3.9101,-3.9101,-3.9059,-3.9017,-3.9017,-3.8785,-3.863,-3.8868,-3.9167,-3.9557,-3.9991,-4.0868,-4.1414,-4.1011,-4.149,-4.1776,-4.133,-4.1144,-4.09,-4.0465,-4.0806,-4.02,-3.8005,-3.8963,-3.8828,-3.6506,-3.6557,-3.6597,-3.6322,-3.6301,-3.6301,-3.6301,-3.6853,-3.7163,-3.7163,-3.7698,-3.8215,-3.8767,-3.8767,-3.8767,-3.8767,-3.8646,-3.8474,-2.7913,-2.8579,-2.851,-2.5897,-2.5828,-2.5808,-2.3498,-2.4431,-2.5578,-2.4803,0.0,0.0,0.0,0.0,0.0,0.0,0.0,0.0,0.0,0.0,0.0,0.0,0.0,0.0,0.0,-2.5578,-2.6185,-2.7619,-2.7384,-2.7232,-2.7379,-2.8989,-2.9769,-2.947,-3.0123,-3.0838,-3.1653,-3.0886,-3.1004,-3.2058,-3.2076,-3.2625,-3.3541,-3.3309,-3.3205,-3.3175,-3.2977,-3.3024,-3.3235,-3.3488,-3.3726,-3.4013,-3.5045,-3.5956,-3.6649,-3.6686,-3.7206,-3.8024,-3.8822,-3.9101,-3.9101,-3.9101,-3.9101,-3.9101,-3.9101,-3.9101,-3.9101,-3.9101,-3.9101,-3.9101,-3.9101,-3.8964,-3.8822,-3.8822,-3.8399,-3.8235,-3.903,-3.9193,-3.9409,-4.0149,-4.1407,-4.2345,-4.2343,-4.2569,-4.2222,-4.0661,-4.1739,-4.2414,-4.1563,-4.1302,-4.0576,-3.8922,-3.8684,-3.8,-3.6422,-3.6322,-3.6322,-3.6301,-3.6301,-3.6301,-3.6301,-3.6318,-3.6335,-3.6335,-3.6353,-3.6387,-3.6404,-3.6404,-3.6404,-3.6439,-3.7905,-3.8237,-2.8644,-2.9007,-2.8844,-2.6836,-2.6264,-2.5712,-2.3802,-2.4552,-2.5452,-2.4691,-2.5741,0.0,0.0,0.0,0.0,0.0,0.0,0.0,0.0,0.0,0.0,0.0,0.0,0.0,0.0,0.0,-2.7336,-2.8226,-2.8188,-2.8091,-2.7998,-2.9191,-2.9866,-2.9822,-3.0783,-3.1667,-3.2489,-3.2222,-3.2345,-3.2823,-3.2823,-3.3012,-3.3324,-3.3235,-3.3129,-3.2993,-3.2932,-3.3008,-3.322,-3.3488,-3.3726,-3.4013,-3.5082,-3.5677,-3.603,-3.7108,-3.7986,-3.8729,-3.9008,-3.9101,-3.9101,-3.9101,-3.9101,-3.9101,-3.9101,-3.9101,-3.9101,-3.9101,-3.9101,-3.9073,-3.8935,-3.8848,-3.8891,-3.9184,-3.9035,-3.8995,-3.9752,-4.0199,-4.0609,-4.1086,-4.1941,-4.2558,-4.2408,-4.2924,-4.3204,-4.2838,-4.2797,-4.2689,-4.2414,-4.2247,-4.1552,-3.9841,-3.9818,-3.9164,-3.727,-3.6611,-3.6409,-3.6678,-3.6451,-3.6301,-3.6301,-3.6301,-3.6301,-3.6301,-3.6301,-3.6559,-3.7077,-3.7077,-3.7077,-3.7116,-3.7633,-3.7754,-2.8342,-2.8674,-2.8724,-2.7468,-2.6855,-2.6161,-2.4626,-2.5321,-2.6067,-2.5327,-2.6301,-2.7182,0.0,0.0,0.0,0.0,0.0,0.0,0.0,-2.3128,0.0,0.0,0.0,0.0,0.0,-2.6102,-2.6944,-2.8049,-2.7985,-2.7958,-2.8074,-2.9833,-3.0576,-3.0018,-3.1654,-3.2668,-3.29,-3.29,-3.2993,-3.3205,-3.3205,-3.325,-3.3339,-3.325,-3.3175,-3.3132,-3.3055,-3.3114,-3.3371,-3.3907,-3.4215,-3.4455,-3.581,-3.6346,-3.6495,-3.7522,-3.8414,-3.9101,-3.9101,-3.9101,-3.9101,-3.9101,-3.9101,-3.9101,-3.9101,-3.9101,-3.9101,-3.9101,-3.9101,-3.9059,-3.8848,-3.8728,-3.8792,-3.9269,-3.9228,-3.9337,-4.036,-4.0872,-4.1241,-4.1761,-4.2309,-4.2663,-4.252,-4.3043,-4.3488,-4.3568,-4.3373,-4.3225,-4.3225,-4.3019,-4.2272,-4.0689,-4.0561,-3.9731,-3.7672,-3.7008,-3.6721,-3.6696,-3.6451,-3.6301,-3.6301,-3.6301,-3.6422,-3.6715,-3.6439,-3.6697,-3.7512,-3.7198,-3.706,-3.706,-3.706,-3.706]},{"header":{"parameterUnit":"m.s-1","parameterCategory":1,"la1":30.6,"la2":29.2853,"lo1":-89.7004,"lo2":-87.6739,"dy":0.0162,"dx":0.0183,"nx":112,"ny":82,"refTime":"2024-03-29T18:00:00:Z","depth":0,"parameterNumber":3,"parameterNumberName":"V-component_of_WINDS"},"data":[0.0,0.0,0.0,0.0,0.0,0.0,0.0,0.0,0.0,0.0,0.0,0.0,0.0,0.0,0.0,0.0,0.0,0.0,0.0,0.0,0.0,0.0,0.0,0.0,0.0,0.0,0.0,0.0,0.0,0.0,0.0,0.0,0.0,0.0,0.0,0.0,0.0,0.0,0.0,0.0,0.0,0.0,0.0,0.0,0.0,0.0,0.0,0.0,0.0,0.0,0.0,0.0,0.0,0.0,0.0,0.0,0.0,0.0,0.0,0.0,0.0,0.0,0.0,0.0,0.0,0.0,0.0,0.0,0.0,0.0,0.0,0.0,0.0,0.0,0.0,0.0,0.0,0.0,0.0,0.0,0.0,0.0,0.0,0.0,0.0,0.0,0.0,0.0,0.0,0.0,1.1085,1.1855,1.4058,1.5542,1.5693,1.5148,1.3592,1.0794,0.0,0.0,0.0,0.0,0.0,0.0,0.0,0.0,0.0,0.0,0.0,0.0,0.0,0.0,0.0,0.0,0.0,0.0,0.0,0.0,0.0,0.0,0.0,0.0,0.0,0.0,0.0,0.0,0.0,0.0,0.0,0.0,0.0,0.0,0.0,0.0,0.0,0.0,0.0,0.0,0.0,0.0,0.0,0.0,0.0,0.0,0.0,0.0,0.0,0.0,0.0,0.0,0.0,0.0,0.0,0.0,0.0,0.0,0.0,0.0,0.0,0.0,0.0,0.0,0.0,0.0,0.0,0.0,0.0,0.0,0.0,0.0,0.0,0.0,0.0,0.0,0.0,0.0,0.0,0.0,0.0,0.0,0.0,0.0,0.0,0.0,0.0,0.0,0.0,0.0,0.0,0.0,0.0,0.0,0.0,0.0,0.0,0.0,0.0,0.0,0.0,0.0,0.0,0.0,1.2252,1.4975,1.5315,1.5426,1.5673,1.4833,1.326,1.085,0.0,0.0,0.0,0.0,0.0,0.0,0.0,0.0,0.0,0.0,0.0,0.0,0.0,0.0,0.0,0.0,0.0,0.0,0.0,0.0,0.0,0.0,0.0,0.0,0.0,0.0,0.0,0.0,0.0,0.0,0.0,0.0,0.0,0.0,0.0,0.0,0.0,0.0,0.0,0.0,0.0,0.0,0.0,0.0,0.0,0.0,0.0,0.0,0.0,0.0,0.0,0.0,0.0,0.0,0.0,0.0,0.0,0.0,0.0,0.0,0.0,0.0,0.0,0.0,0.0,0.0,0.0,0.0,0.0,0.0,0.0,0.0,0.0,0.0,0.0,0.0,0.0,0.0,0.0,0.0,0.0,0.0,0.0,0.0,0.0,0.0,0.0,0.0,0.0,0.0,0.0,0.0,0.0,0.0,0.0,0.0,0.0,0.0,0.0,0.0,0.0,0.0,0.0,1.0556,1.2743,1.5689,1.5607,1.5414,1.5517,1.4491,1.2843,1.0562,1.0187,0.0,0.0,0.0,0.0,0.0,0.0,0.0,0.0,0.0,0.0,0.0,0.0,0.0,0.0,0.0,0.0,0.0,0.0,0.0,0.0,0.0,0.0,0.0,0.0,0.0,0.0,0.0,0.0,0.0,0.0,0.0,0.0,0.0,0.0,0.0,0.0,0.0,0.0,0.0,0.0,0.0,0.0,0.0,0.0,0.0,0.0,0.0,0.0,0.0,0.0,0.0,0.0,0.0,0.0,0.0,0.0,0.0,0.0,0.0,0.0,0.0,0.0,0.0,0.0,0.0,0.0,0.0,0.0,0.0,0.0,0.0,0.0,0.0,0.0,0.0,0.0,0.0,0.0,0.0,0.0,0.0,0.0,0.0,0.0,0.0,0.0,0.0,0.0,0.0,0.0,0.0,0.0,0.0,0.0,0.0,0.0,0.0,0.0,0.0,0.0,0.0,0.0,1.1659,1.3272,1.5564,1.5459,1.5167,1.5031,1.4087,1.2499,1.0155,0.9682,0.0,0.0,0.0,0.0,0.0,0.0,0.0,0.0,0.0,0.0,0.0,0.0,0.0,0.0,0.0,0.0,0.0,0.0,0.0,0.0,0.0,0.0,0.0,0.0,0.0,0.0,0.0,0.0,0.0,0.0,0.0,0.0,0.0,0.0,0.0,0.0,0.0,0.0,0.0,0.0,0.0,0.0,0.0,0.0,0.0,0.0,0.0,0.0,0.0,0.0,0.0,0.0,0.0,0.0,0.0,0.0,0.0,0.0,0.0,0.0,0.0,0.0,0.0,0.0,0.0,0.0,0.0,0.0,0.0,0.0,0.0,0.0,0.0,0.0,0.0,0.0,0.0,0.0,0.0,0.0,0.0,0.0,0.0,0.0,0.0,0.0,0.0,0.0,0.0,0.0,0.0,0.0,0.0,0.0,0.0,0.0,0.0,0.0,0.0,0.0,0.0,0.0,1.252,1.4144,1.514,1.4908,1.4451,1.3964,1.366,1.235,0.9623,0.9486,0.0,0.0,0.0,0.0,0.0,0.0,0.0,0.0,0.0,0.0,0.0,0.0,0.0,0.0,0.0,0.0,0.0,0.0,0.0,0.0,0.0,0.0,0.0,0.0,0.0,0.0,0.0,0.0,0.0,0.0,0.0,0.0,0.0,0.0,0.0,0.0,0.0,0.0,0.0,0.0,0.0,0.0,0.0,0.0,0.0,0.0,0.0,0.0,0.0,0.0,0.0,0.0,0.0,0.0,0.0,0.0,0.0,0.0,0.0,0.0,0.0,0.0,0.0,0.0,0.0,0.0,0.0,0.0,0.0,0.0,0.0,0.0,0.0,0.0,0.0,0.0,0.0,0.0,0.0,0.0,0.0,0.0,0.0,0.0,0.0,0.0,0.0,0.0,0.0,0.0,0.0,0.0,0.0,0.0,0.0,0.0,0.0,0.0,0.0,0.0,0.0,0.0,1.1613,1.3274,0.0,1.4269,1.3956,1.3575,1.3216,1.1923,0.9364,0.0,0.0,0.0,0.0,0.0,0.0,0.0,0.0,0.0,0.0,0.0,0.0,0.0,0.0,0.0,0.0,0.0,0.0,0.0,0.0,0.0,0.0,0.0,0.0,0.0,0.0,0.0,0.0,0.0,0.0,0.0,0.0,0.0,0.0,0.0,0.0,0.0,0.0,0.0,0.0,0.0,0.0,0.0,0.0,0.0,0.0,0.0,0.0,0.0,0.0,0.0,0.0,0.0,0.0,0.0,0.0,0.0,0.0,0.0,0.0,0.0,0.0,0.0,0.0,0.0,0.0,0.0,0.0,0.0,0.0,0.0,0.0,0.0,0.0,0.0,0.0,0.0,0.0,0.0,0.0,0.0,0.0,0.0,0.0,0.0,0.0,0.0,0.0,0.0,0.0,0.0,0.0,0.0,0.0,0.0,0.0,0.0,0.0,0.0,0.0,0.0,0.0,0.9272,1.1156,1.2756,0.0,1.3617,1.3368,1.3142,1.2848,1.1725,0.9404,0.0,0.0,0.0,0.0,0.0,0.0,0.0,0.0,0.0,0.0,0.0,0.0,0.0,0.0,0.0,0.0,0.0,0.0,0.0,0.0,0.0,0.0,0.0,0.0,0.0,0.0,0.0,0.0,0.0,0.0,0.0,0.0,0.0,0.0,0.0,0.0,0.0,0.0,0.0,0.0,0.0,0.0,0.0,0.0,0.0,0.0,0.0,0.0,0.0,0.0,0.0,0.0,0.0,0.0,0.0,0.0,0.0,0.0,0.0,0.0,0.0,0.0,0.0,0.0,0.0,0.0,0.0,0.0,0.0,0.0,0.0,0.0,0.0,0.0,0.0,0.0,0.0,0.0,0.0,0.0,0.0,0.0,0.0,0.0,0.0,0.0,0.0,0.0,0.0,0.0,0.0,0.0,0.0,0.0,0.0,0.0,0.0,0.0,0.0,0.0,0.0,0.0,0.961,1.1502,1.289,1.3163,1.296,1.2733,1.2526,1.2627,1.1813,0.0,0.0,0.0,0.0,0.0,0.0,0.0,0.0,0.0,0.0,0.0,0.0,0.0,0.0,0.0,0.0,0.0,0.0,0.0,0.0,0.0,0.0,0.0,0.0,0.0,0.0,0.0,0.0,0.0,0.0,0.0,0.0,0.0,0.0,0.0,0.0,0.0,0.0,0.0,0.0,0.0,0.0,0.0,0.0,0.0,0.0,0.0,0.0,0.0,0.0,0.0,0.0,0.0,0.0,0.0,0.0,0.0,0.0,0.0,0.0,0.0,0.0,0.0,0.0,0.0,0.0,0.0,0.0,0.0,0.0,0.0,0.0,0.0,0.0,0.0,0.0,0.0,0.0,0.0,0.0,0.0,0.0,0.0,0.0,0.0,0.0,0.0,0.0,0.0,0.0,0.0,0.0,0.0,0.0,0.0,0.0,0.0,0.0,0.0,0.0,0.0,0.0,0.0,0.9466,1.1454,1.2855,1.2978,1.303,1.2995,1.2791,1.2506,1.1606,0.9838,0.0,0.0,0.0,0.0,0.0,0.0,0.0,0.0,0.0,0.0,0.0,0.0,0.0,0.0,0.0,0.0,0.0,0.0,0.0,0.0,0.0,0.0,0.0,0.0,0.0,0.0,0.0,0.0,0.0,0.0,0.0,0.0,0.0,0.0,0.0,0.0,0.0,0.0,0.0,0.0,0.0,0.0,0.0,0.0,0.0,0.0,0.0,0.0,0.0,0.0,0.0,0.0,0.0,0.0,0.0,0.0,0.0,0.0,0.0,0.0,0.0,0.0,0.0,0.0,0.0,0.0,0.0,0.0,0.0,0.0,0.0,0.0,0.0,0.0,0.0,0.0,0.0,0.0,0.0,0.0,0.0,0.0,0.0,0.0,0.0,0.0,0.0,0.0,0.0,0.0,0.0,0.0,0.0,0.0,0.0,0.0,0.0,0.0,0.0,0.0,0.0,0.0,0.9408,1.141,1.2785,1.2855,1.3042,1.306,1.2838,1.272,1.1919,1.0143,0.0,0.0,0.0,0.0,0.0,0.0,0.0,0.0,0.0,0.0,0.0,0.0,0.0,0.0,0.0,0.0,0.0,0.0,0.0,0.0,0.0,0.0,0.0,0.0,0.0,0.0,0.0,0.0,0.0,0.0,0.0,0.0,0.0,0.0,0.0,0.0,0.0,0.0,0.0,0.0,0.0,0.0,0.0,0.0,0.0,0.0,0.0,0.0,0.0,0.0,0.0,0.0,0.0,0.0,0.0,0.0,0.0,0.0,0.0,0.0,0.0,0.0,0.0,0.0,0.0,0.0,0.0,0.0,0.0,0.0,0.0,0.0,0.0,0.0,0.0,0.0,0.0,0.0,0.0,0.0,0.0,0.0,0.0,0.0,0.0,0.0,0.0,0.0,0.0,0.0,0.0,0.0,0.0,0.0,0.0,0.0,0.0,0.0,0.0,0.0,0.0,0.0,0.9408,1.1373,1.2727,1.2785,1.2955,1.2973,1.2762,1.3067,1.2462,1.0543,0.0,0.0,0.0,0.0,0.0,0.0,0.0,0.0,0.0,0.0,0.0,0.0,0.0,0.0,0.0,0.0,0.0,0.0,0.0,0.0,0.0,0.0,0.0,0.0,0.0,0.0,0.0,0.0,0.0,0.0,0.0,0.0,0.0,0.0,0.0,0.0,0.0,0.0,0.0,0.0,0.0,0.0,0.0,0.0,0.0,0.0,0.0,0.0,0.0,0.0,0.0,0.0,0.0,0.0,0.0,0.0,0.0,0.0,0.0,0.0,0.6767,0.0,0.0,0.0,0.0,0.0,0.0,0.0,0.0,0.0,0.0,0.0,0.0,0.0,0.0,0.0,0.0,0.0,0.0,0.0,0.0,0.0,0.0,0.0,0.0,0.0,0.0,0.0,0.0,0.0,0.0,0.0,0.0,0.0,0.0,0.0,0.0,0.0,0.0,0.0,0.0,0.0,0.9388,1.1373,1.2727,1.2785,1.2838,1.289,1.302,1.2579,1.1813,1.0718,0.9881,0.0,0.0,0.0,0.0,0.0,0.0,0.0,0.0,0.0,0.0,0.0,0.0,0.0,0.0,0.0,0.0,0.0,0.0,0.0,0.0,0.0,0.0,0.0,0.0,0.0,0.0,0.0,0.0,0.0,0.0,0.0,0.0,0.0,0.0,0.0,0.0,0.0,0.0,0.0,0.0,0.0,0.0,0.0,0.0,0.0,0.0,0.0,0.0,0.0,0.0,0.0,0.0,0.0,0.0,0.0,0.0,0.0,0.0,0.0,0.0,0.705,0.0,0.0,0.0,0.0,0.0,0.0,0.0,0.0,0.0,0.0,0.0,0.0,0.0,0.0,0.0,0.0,0.0,0.0,0.0,0.0,0.0,0.0,0.0,0.0,0.0,0.0,0.0,0.0,0.0,0.0,0.0,0.0,0.0,0.0,0.0,0.0,0.0,0.0,0.0,0.0,0.9408,1.1373,1.2709,1.2762,1.2785,1.2838,1.2955,1.2697,1.2175,1.1387,1.0514,0.0,0.0,0.0,0.0,0.0,0.0,0.0,0.0,0.0,0.0,0.0,0.0,0.0,0.0,0.0,0.0,0.0,0.0,0.0,0.0,0.0,0.0,0.0,0.0,0.0,0.0,0.0,0.0,0.0,0.0,0.0,0.0,0.0,0.0,0.0,0.0,0.0,0.0,0.0,0.0,0.0,0.0,0.0,0.0,0.0,0.0,0.0,0.0,0.0,0.0,0.0,0.0,0.0,1.1802,1.1551,1.086,1.1211,1.1297,1.1078,0.9563,0.89,0.8738,0.7492,0.0,0.0,0.0,0.0,0.0,0.0,0.0,0.0,0.0,0.0,0.0,0.0,0.0,0.0,0.0,0.0,0.0,0.0,0.0,0.0,0.0,0.0,0.0,0.0,1.0916,1.0984,0.8677,0.0,0.0,0.0,0.0,0.0,0.0,0.0,0.0,0.0,0.0,0.0,0.9667,1.1494,1.2709,1.2709,1.2762,1.2785,1.2785,1.2938,1.2751,1.2037,1.1319,1.0435,0.0,0.0,0.0,0.0,0.0,0.0,0.0,0.0,0.0,0.0,0.0,0.0,0.0,0.0,0.0,0.0,0.0,0.0,0.0,0.0,0.0,0.0,0.0,0.0,0.0,0.0,0.0,0.0,0.0,0.0,0.0,0.0,1.0775,1.0347,0.0,0.0,0.0,0.0,0.0,0.0,0.0,0.0,0.0,0.0,0.0,0.0,0.0,1.2179,1.2104,1.3963,1.4611,1.4068,1.5046,1.508,1.4266,1.4071,1.3635,1.2933,1.269,0.0,1.0086,0.9269,0.0,0.0,0.0,0.0,0.0,0.0,0.0,0.0,0.0,0.0,0.0,0.0,0.0,0.0,0.0,0.0,0.0,0.0,0.0,0.0,0.0,0.0,1.2414,1.2263,1.233,1.2288,1.175,0.9994,0.8274,0.751,0.6966,0.0,0.0,0.0,0.0,0.0,0.0,0.0,1.0712,1.1941,1.2709,1.2709,1.2709,1.2709,1.2709,1.2797,1.2601,1.2037,1.189,1.1193,0.9777,0.9103,0.0,0.0,0.0,0.0,0.0,0.0,0.0,0.0,0.0,0.0,0.0,0.0,0.0,0.0,0.0,0.0,0.0,0.0,0.0,0.0,0.0,0.0,0.0,0.0,0.0,0.0,0.0,0.0,0.0,1.071,1.1042,1.0198,1.04,1.0278,0.0,0.0,0.0,0.0,0.0,0.0,0.0,0.0,0.0,1.2728,1.3846,1.4639,1.5089,1.6277,1.6728,1.6457,1.686,1.6668,1.5939,1.5576,1.4914,1.4064,1.3772,1.3195,1.2359,1.0836,0.9447,0.8239,0.0,0.0,0.0,0.0,0.7706,0.8038,0.8877,0.9411,0.9554,0.858,0.0,0.0,0.0,0.0,0.0,0.0,0.0,0.9801,0.0,0.0,1.2715,1.345,1.3706,1.3674,1.3325,1.2318,1.1113,0.0,0.8973,0.8111,0.7423,0.0,0.0,0.0,0.0,1.02,1.1005,1.2043,1.2709,1.2709,1.2709,1.2709,1.2709,1.2727,1.2653,1.2462,1.2171,1.1682,1.0952,0.9944,0.8941,0.0,0.0,0.0,0.0,0.0,0.0,0.0,0.0,0.0,0.0,0.0,0.0,0.0,0.0,0.0,0.0,0.0,0.0,0.0,0.0,0.0,0.0,0.0,0.0,0.0,0.0,0.0,0.0,1.0976,1.1484,1.0368,1.1192,1.137,0.0,0.0,0.0,0.0,0.0,0.0,1.231,1.3414,1.4401,1.5239,1.6133,1.6886,1.7508,1.8112,1.8354,1.8291,1.7945,1.7588,1.7183,1.6471,1.5632,1.4781,1.4501,1.4141,1.369,1.2148,1.0955,1.008,0.9625,0.9096,0.8654,0.943,0.9862,1.0171,1.0897,1.1375,1.15,1.0556,0.9899,0.938,0.8587,0.0,0.0,0.0,0.0,1.0544,1.216,1.2584,1.2898,1.4103,1.4512,1.4528,1.4183,1.3751,1.3084,0.0,1.0868,0.9915,0.9077,0.0,0.0,0.0,0.0,1.0969,1.1443,1.2216,1.2709,1.2709,1.2709,1.2709,1.2709,1.2709,1.2727,1.2768,1.2404,1.2106,1.1914,1.0854,0.9966,0.9281,0.0,0.0,0.0,0.0,0.0,0.0,0.0,0.0,0.0,0.0,0.0,0.0,0.0,0.0,0.0,0.0,0.0,0.0,0.0,0.0,0.0,0.0,0.0,0.0,0.0,0.0,0.0,0.0,0.0,1.1819,1.3128,0.0,0.0,0.0,0.0,1.3463,1.3783,1.4223,1.4799,1.5376,1.5917,1.6507,1.7967,1.8607,1.8341,1.9134,1.9377,1.9036,1.8315,1.8095,1.8276,1.683,1.578,1.5087,1.5458,1.4638,1.305,1.3142,1.2859,1.2346,1.2302,1.1609,1.0789,1.1978,1.2535,1.2751,1.3042,1.3431,1.3526,1.2135,1.0727,0.9699,1.0208,0.9922,0.0,0.0,1.1194,1.1755,1.3246,1.3618,1.376,1.4275,1.4396,1.4419,1.4387,1.3526,1.2692,0.0,1.2092,1.1485,1.0555,0.0,1.0529,1.0889,1.1028,1.1447,1.249,1.2674,1.2709,1.2709,1.2709,1.2709,1.2709,1.2709,1.2709,1.2709,1.2685,1.2508,1.2182,1.1814,1.1271,1.0529,0.9104,0.0,0.0,0.0,0.0,0.0,0.0,0.0,0.0,0.0,0.0,0.0,0.0,0.0,0.0,0.0,0.0,0.0,0.0,0.0,0.0,0.0,0.0,0.0,0.0,0.0,0.0,0.0,0.0,1.3944,1.5382,0.0,1.4353,1.5043,1.5472,1.5244,1.6058,1.6554,1.6609,1.7446,1.8041,1.8318,1.8856,1.9165,1.9187,1.9323,1.9341,1.9208,1.8865,1.8772,1.8783,1.7068,1.5987,1.5504,1.4715,1.4008,1.3438,1.3426,1.3296,1.3056,1.2788,1.2761,1.2915,1.3342,1.387,1.4343,1.4155,1.4345,1.4493,1.3421,1.2508,1.1885,1.2349,1.2276,1.2151,1.2879,1.3174,1.3373,1.3987,1.4156,1.4199,1.4363,1.4396,1.4396,1.4396,1.4069,1.3734,1.3515,1.2615,1.2049,1.2549,1.2527,1.2287,1.1861,1.2295,1.2663,1.2692,1.2709,1.2709,1.2709,1.2709,1.2842,1.3192,1.2902,1.2999,1.3686,1.3083,1.28,1.3026,1.2383,1.1965,1.1833,1.1089,1.0026,0.0,0.0,0.0,0.0,0.0,0.0,0.0,0.0,0.0,0.0,0.0,0.0,0.0,0.0,0.0,0.0,0.0,0.0,0.0,0.0,0.0,0.0,0.0,0.0,0.0,0.0,1.6466,1.5701,1.7348,1.7977,1.6527,1.7277,1.7791,1.7588,1.8215,1.8564,1.8404,1.8833,1.9142,1.9241,1.9285,1.9341,1.944,1.9341,1.9285,1.9241,1.8898,1.8865,1.9021,1.7052,1.6072,1.591,1.4685,1.3907,1.3498,1.3691,1.3575,1.3281,1.327,1.3756,1.4497,1.4598,1.5172,1.5828,1.5163,1.4906,1.4762,1.4153,1.3658,1.3396,1.3644,1.3644,1.3634,1.4082,1.4199,1.4222,1.4373,1.4396,1.4396,1.4396,1.4396,1.4396,1.4396,1.4396,1.4378,1.425,1.3354,1.2873,1.3686,1.3726,1.3369,1.2625,1.3306,1.3676,1.293,1.3173,1.3368,1.324,1.324,1.3385,1.3734,1.3079,1.3113,1.4229,1.3257,1.297,1.3746,1.2681,1.2164,1.2323,1.1875,1.0977,0.9669,0.0,0.0,0.0,0.0,0.0,0.0,0.0,0.0,0.0,0.0,0.0,0.0,0.0,0.0,0.0,0.0,0.0,0.0,0.0,0.0,0.0,0.0,0.0,1.4631,1.7144,1.8533,1.7117,1.9043,1.9945,1.8553,1.9661,2.048,2.0473,2.0249,2.015,2.014,1.9483,1.9119,1.9119,1.9262,1.9262,1.9108,1.9241,1.9241,1.9098,1.8385,1.8418,1.9031,1.6828,1.599,1.6272,1.5544,1.4438,1.3148,1.3933,1.3743,1.3072,1.3855,1.4658,1.541,1.5758,1.6464,1.7103,1.6149,1.5178,1.4384,1.4289,1.4125,1.3997,1.4007,1.3902,1.3858,1.4106,1.4199,1.4222,1.435,1.4396,1.4396,1.4396,1.4396,1.4396,1.4396,1.4396,1.4466,1.4651,1.4317,1.401,1.3956,1.3912,1.3738,1.3223,1.4089,0.0,1.3272,1.4106,1.4663,1.4329,1.4269,1.4269,1.4293,1.32,1.3041,1.4261,1.322,1.3092,1.4269,1.281,1.2005,1.2083,1.136,1.1012,1.1081,0.0,0.0,0.0,0.0,0.0,0.0,0.0,0.0,0.0,0.0,0.0,0.0,0.0,0.0,0.0,0.0,0.0,0.0,0.0,0.0,0.0,1.6697,1.7986,1.7838,1.9249,2.025,2.0088,2.141,2.2001,2.1133,2.185,2.2354,2.2305,2.1377,2.0927,2.118,2.0183,1.9606,1.9606,1.964,1.9474,1.9108,1.9142,1.9142,1.9108,1.8898,1.8898,1.9031,1.7345,1.6506,1.6221,1.4722,1.3712,1.31,1.3088,1.2917,1.2744,1.3164,1.3833,1.4599,1.5167,1.5685,1.6072,1.6132,1.5326,1.4365,1.502,1.4612,1.3931,1.4254,1.4035,1.3716,1.3986,1.4057,1.4104,1.4326,1.4396,1.4396,1.4396,1.4396,1.4396,1.4396,1.4396,1.443,1.4466,1.439,1.4383,1.4718,1.4449,1.4144,1.3994,1.4616,0.0,1.4133,1.4494,1.4541,1.3866,1.3567,1.3595,1.398,1.3361,1.3627,1.5279,1.4383,1.4121,1.4782,1.4066,1.382,1.4175,1.3155,1.279,0.0,0.0,0.0,0.0,0.0,0.0,0.0,0.0,0.0,0.0,0.0,0.0,0.0,0.0,0.0,0.0,0.0,0.0,0.0,0.0,0.0,0.0,1.92,2.0454,2.1373,2.1876,2.2119,2.2018,2.309,2.3449,2.2568,2.2836,2.31,2.324,2.1851,2.1141,2.154,2.0593,2.0038,2.0038,2.0038,1.9855,1.9399,1.9541,1.9448,1.9108,1.9295,1.9295,1.9075,1.8086,1.7235,1.6486,1.5146,1.4071,1.3267,1.2957,1.2726,0.0,0.0,0.0,0.0,0.0,1.5969,1.5802,1.6336,1.5721,1.4778,1.5258,1.4965,1.4394,1.4418,1.4167,1.3917,1.3979,1.3997,1.411,1.4564,1.4549,1.4451,1.4659,1.4549,1.4396,1.4396,1.4396,1.4396,1.4396,1.4396,0.0,1.5017,1.4755,1.4406,1.4194,1.4858,1.5277,1.4974,1.5359,1.5584,1.5454,1.4921,1.4681,1.5003,1.4217,0.0,0.0,0.0,1.4614,1.4579,1.4224,0.0,0.0,0.0,1.3954,1.5025,1.3893,0.0,0.0,1.3179,1.2799,0.0,0.0,0.0,0.0,0.0,0.0,0.0,0.0,0.0,0.0,0.0,0.0,0.0,0.0,0.0,0.0,2.1864,2.2585,2.4618,2.4494,2.3922,2.3188,2.4045,2.4253,2.3095,2.2983,2.3134,2.3549,2.1902,2.111,2.1655,0.0,0.0,0.0,0.0,2.0286,1.9876,2.0224,1.9996,1.9181,1.9596,1.9554,1.9085,1.875,1.8011,1.6936,1.6184,1.5033,1.3616,1.333,1.2973,1.2646,1.2699,1.3502,1.4902,1.6611,1.6683,1.5983,1.6574,0.0,0.0,1.5369,1.5274,1.5102,1.4598,1.4428,1.4354,1.419,1.4156,1.4313,1.4999,1.4864,1.4646,1.5083,1.4854,1.4571,1.4571,1.4517,1.4484,1.4484,1.444,1.4535,1.4949,1.4811,1.4535,1.4188,1.4971,1.562,1.5683,1.63,1.6991,1.7611,1.6915,0.0,1.6395,1.5323,1.5141,1.6232,1.5677,1.502,1.4341,1.409,1.3895,1.3737,1.3891,1.4859,1.6644,1.6468,1.6877,1.7742,1.3928,1.3171,0.0,0.0,0.0,0.0,0.0,0.0,0.0,0.0,0.0,0.0,0.0,0.0,0.0,0.0,0.0,2.2013,2.2985,2.3985,2.5285,2.5347,2.488,2.3834,2.3916,2.3743,2.2926,2.2848,2.299,2.3317,2.2122,2.1764,2.2673,2.1581,2.0943,2.0943,2.0943,2.0762,2.0296,2.0343,2.0151,1.9668,0.0,0.0,1.9075,1.8431,1.7817,1.7268,1.6237,1.5123,1.4005,1.3942,1.3545,1.302,1.3241,1.3812,1.4647,1.5508,1.5853,1.5983,1.6479,1.601,1.5369,1.6104,1.5733,1.5085,1.5365,1.5163,0.0,1.5082,1.5126,1.5199,1.556,1.5604,1.5549,1.5647,1.5604,1.5527,1.5527,1.5222,1.4963,1.4963,1.4646,1.4419,1.4512,1.4489,1.4558,1.4846,1.53,1.5592,1.5619,1.6078,1.6235,1.5781,1.5349,1.5062,1.5062,1.5083,1.5423,1.6256,1.646,1.6498,1.6355,1.6292,1.6111,1.5755,1.6183,1.659,1.6916,1.7315,1.769,1.802,1.6757,1.6517,0.0,0.0,0.0,0.0,0.0,0.0,0.0,0.0,0.0,0.0,0.0,1.8604,2.0253,0.0,2.2409,2.3909,2.4607,2.5227,2.5946,2.6059,2.5509,2.4034,2.4384,2.4205,2.2833,2.2706,2.2874,2.3264,2.2074,2.1658,2.251,2.1843,2.1455,2.1455,2.1455,2.1238,2.0736,2.0963,2.0659,1.9793,1.9986,1.9737,1.9085,1.9188,1.8533,1.7396,1.6937,1.5849,1.4312,1.3989,1.3648,1.3387,1.3859,1.4237,1.4616,1.5447,1.5915,1.6248,1.6926,1.6571,1.5915,1.6592,1.6296,1.5691,1.5691,1.5525,1.5351,1.5321,1.531,1.5415,1.5833,1.5777,1.567,1.5896,1.5819,1.5697,1.5697,1.5368,1.5105,1.5105,1.4712,1.4466,1.472,1.4558,1.4489,1.472,1.4903,1.5257,1.5957,1.6311,1.6585,1.6777,1.6362,1.6009,1.5866,1.5907,1.6287,1.7047,1.7073,1.6947,1.671,1.6531,1.6396,1.631,1.6393,1.6896,1.7808,1.7487,1.7845,1.8724,1.8027,1.7713,0.0,0.0,0.0,0.0,0.0,0.0,0.0,0.0,1.7307,1.9029,1.9977,2.11,2.3,2.3484,2.4098,2.5747,2.6021,2.6139,2.6458,2.6383,2.5714,2.4155,2.4802,2.4602,2.2709,2.252,2.2685,2.3043,2.1977,2.1526,2.208,2.1921,2.1807,2.1807,2.1807,2.1621,2.1248,2.1621,2.1166,1.9927,2.0255,1.9996,1.9264,1.9955,1.932,1.7624,1.7352,1.6291,1.474,1.3934,1.3657,1.378,1.4395,1.4677,1.4835,1.5842,1.6337,1.6612,1.7316,1.6967,1.6282,1.6739,1.6576,1.6159,1.5901,1.5853,1.5797,1.553,1.5479,1.5589,1.6093,1.5951,1.577,1.6158,1.5988,1.5756,1.5842,1.5549,1.5247,1.5247,1.4854,1.4622,1.4914,1.4651,1.4419,1.4512,1.4489,1.4922,1.615,1.6428,1.6872,1.7808,1.741,1.705,1.6907,1.6789,1.706,1.7862,1.7522,1.7175,1.6914,1.6529,1.6412,1.661,1.6336,1.6925,1.8433,1.7604,1.7938,1.9305,1.8605,1.817,1.4836,1.4485,1.4563,1.552,1.6199,1.7158,0.0,0.0,2.0552,2.225,2.3055,2.376,2.4817,2.5332,2.576,2.6319,2.6433,2.6458,2.6487,2.5886,2.5252,2.4672,2.4565,2.3891,2.2317,2.2328,2.2387,2.2252,2.2096,2.201,2.2101,2.1921,2.1807,2.1807,2.1807,2.1776,2.1725,2.1776,2.1321,2.0312,2.0364,2.0162,1.972,1.9824,1.9334,1.8361,1.6366,1.5512,1.5459,1.4167,1.3767,1.409,1.4504,1.5045,1.5647,1.6299,1.6717,1.6955,1.7028,1.6395,1.5633,1.6253,1.6021,1.5613,1.6169,1.633,1.6348,1.6416,1.6451,1.649,1.6655,1.6673,1.6669,1.6722,1.6464,1.6337,1.6735,1.625,1.5724,1.5724,1.5331,1.491,1.4543,1.4419,1.4535,1.4971,1.4811,1.491,1.5535,1.5768,1.5956,1.6074,1.6016,1.6127,1.6523,1.6744,1.717,1.7862,1.774,1.7866,1.8345,1.7769,1.7534,1.7722,1.7637,1.7669,1.7887,1.8178,1.8558,1.904,1.8934,1.8881,1.6836,1.7013,1.7389,0.0,1.8985,2.0058,2.1188,2.1793,2.2593,2.4315,2.5132,2.5711,2.6355,2.6618,2.6683,0.0,2.6624,2.644,2.5886,2.5523,2.4838,2.3634,2.3646,2.3423,2.2515,2.2515,2.2553,2.2478,2.2214,2.2138,2.2252,2.1949,2.1807,2.1807,2.1807,2.1807,2.1807,2.1807,2.1342,2.0395,2.0664,2.0452,1.9813,2.0342,1.9865,1.8583,1.6438,1.5481,1.537,1.453,1.4248,1.4403,1.4565,1.5095,1.5783,1.6007,1.6384,1.6734,1.6573,1.5944,1.5258,1.5819,1.571,1.5439,1.5739,1.6105,1.6402,1.6477,1.6477,1.6506,1.6534,1.6364,1.6165,1.6165,1.6117,1.6148,1.6432,1.6283,1.612,1.6177,1.5618,1.5127,1.5214,1.4985,1.4871,1.5061,1.477,1.4759,1.5415,1.5862,1.6141,1.6264,1.6121,1.6137,1.6349,1.6701,1.7128,1.7632,1.787,1.7843,1.7502,1.7522,1.7496,1.7381,1.7501,1.7939,1.8742,1.8776,1.9212,1.9978,1.963,1.9656,1.7771,0.0,0.0,1.9819,2.1112,2.2387,2.2882,2.3619,2.4574,2.5814,2.6504,2.7007,2.7258,2.7302,2.71,2.6496,2.6393,2.607,2.5111,2.4838,2.4268,2.3028,2.2918,2.2885,2.2804,2.274,2.2703,2.2703,2.2617,2.2505,2.2402,2.2279,2.2052,2.1807,2.1807,2.1869,2.1994,2.1869,2.1466,2.0803,2.101,2.0772,2.0197,2.0682,2.0078,1.8476,1.6892,1.5855,1.5292,1.4935,1.4692,1.4605,1.4848,1.5275,1.5799,1.5762,1.6058,1.65,1.652,1.5808,1.4984,1.5618,1.5584,1.532,1.5537,1.5965,1.6433,1.6529,1.6477,1.6413,1.6413,1.6153,1.5877,1.5877,1.5911,1.5974,1.6248,1.631,1.6332,1.6471,1.5942,1.5538,1.5767,1.5516,1.5277,1.5277,1.5006,1.498,1.5503,1.5923,1.6221,1.6348,1.6297,1.6219,1.6219,1.6951,1.751,1.7742,1.8192,1.8193,1.7636,1.7641,1.7695,1.7763,1.7655,1.8225,1.9501,1.9317,1.9734,2.0687,2.0258,2.0271,0.0,0.0,1.8565,2.0018,2.1775,2.3433,2.4487,2.5788,2.6756,2.6699,2.7105,2.7443,2.7335,2.7302,2.6952,2.5814,2.5627,2.5264,2.4301,2.368,2.3409,2.3545,2.2648,2.2295,0.0,2.2815,2.2703,2.2703,2.3364,2.3353,2.244,2.2883,2.2723,2.1845,2.1807,2.2025,2.247,2.2035,2.1797,2.1756,2.1321,2.1104,2.1046,2.0667,1.961,1.7994,1.7617,1.6785,1.5672,1.5308,1.4959,1.4677,1.5444,1.5762,1.5798,1.5807,1.5972,1.6306,1.701,1.6113,1.4774,1.5771,1.5607,1.5158,1.5853,1.6236,1.6467,1.6872,1.6715,1.6413,1.6413,1.6392,1.6392,1.6392,1.6133,1.6062,1.6645,1.6518,1.6332,1.6471,1.6476,1.6312,1.5887,1.58,1.5789,1.5789,1.5778,1.5767,1.5789,1.58,1.5811,1.5836,1.6115,1.6233,1.6033,1.7699,1.8632,1.8395,1.8816,1.9321,1.9888,1.8734,1.8602,1.9683,1.8635,1.8635,1.9798,1.9773,2.0093,2.0699,2.0674,2.0674,1.8572,0.0,2.0938,2.2579,2.4169,2.5342,2.551,2.6156,2.6496,2.5494,2.5103,2.4789,2.4341,2.4596,2.4611,2.3863,2.4438,2.4635,2.3514,2.3324,2.3029,2.2224,2.2332,0.0,0.0,0.0,0.0,2.3562,2.3265,2.308,2.3143,2.2708,2.2268,2.1807,2.1807,2.2025,2.249,2.2335,2.2263,2.2252,2.1203,2.0975,2.1431,1.9885,1.8865,1.8275,1.7383,1.6621,1.5999,1.565,1.5308,1.5035,1.5292,1.5247,1.4991,1.4991,1.5051,1.5182,1.5418,1.4974,1.4411,1.5244,1.5486,1.5527,1.5969,1.6417,1.6758,1.6643,1.6498,1.6413,1.6413,1.6184,1.5946,1.5946,1.586,1.5842,1.6143,1.6345,1.6563,1.6801,1.658,1.6456,1.6765,1.6514,1.6378,1.6743,1.6476,1.6258,1.6258,1.6258,1.6258,1.6258,1.637,1.6421,1.6336,1.7567,1.8297,1.8201,1.9055,1.9315,1.8759,1.8698,1.8531,1.8143,1.8104,1.8498,1.9265,2.003,2.0692,2.1224,2.1224,2.1224,2.0496,2.1643,2.2772,2.4296,2.556,2.6328,2.6136,2.6149,2.5966,2.4988,2.4017,2.3239,2.2847,2.296,2.2914,2.2304,2.2824,2.3074,2.2509,2.244,2.2316,2.1908,2.2258,2.2511,0.0,0.0,0.0,2.3624,2.3375,2.3191,2.3095,2.2782,2.2344,2.1807,2.1963,2.2273,2.2739,2.2739,2.257,2.218,2.1003,2.0552,2.0708,1.9626,1.881,1.8212,1.7597,1.7,1.6365,1.6015,1.5594,1.5189,1.5189,1.4959,1.4605,1.4605,1.4605,1.4641,1.4919,1.4695,1.4415,1.5325,1.5719,1.5947,1.6239,1.6648,1.6955,1.6694,1.6498,1.6413,1.6413,1.6184,1.5967,1.5967,1.5967,1.5984,1.6129,1.6388,1.6655,1.6881,1.6718,1.6704,1.7129,1.6967,1.6896,1.7262,1.7005,1.6787,1.6787,1.6634,1.6487,1.6487,1.6699,1.6712,1.6508,1.7683,1.8413,1.8413,1.9095,1.9259,1.8728,1.8677,1.8452,1.792,1.8023,1.8498,1.9303,2.0229,2.0883,2.1211,2.142,2.1407,2.2237,2.3295,2.405,2.518,2.5948,2.6394,2.6308,2.5815,2.5282,2.4939,2.3741,2.2703,0.0,0.0,2.1886,2.1229,2.0938,2.0975,2.1385,2.1231,2.1464,0.0,0.0,0.0,0.0,0.0,0.0,2.2968,0.0,2.3585,2.2542,2.3106,2.2947,2.1835,2.2252,2.2718,2.3184,2.3225,2.2778,2.1773,2.0796,1.9938,1.917,1.9869,1.929,1.7834,1.8229,1.778,1.6642,1.6365,1.5817,1.5189,1.5205,1.4975,1.4605,1.4605,1.4605,1.4713,1.548,1.524,1.4791,1.5956,1.6276,1.6311,1.6718,1.692,1.7037,1.6986,1.6705,1.6413,1.6413,1.6413,1.6413,1.6413,1.6413,1.6431,1.6552,1.6581,1.6637,1.6751,1.6909,1.7011,1.7011,1.7172,1.7306,1.7306,1.7306,1.7306,1.7306,1.6852,1.6531,1.6531,1.7036,1.7168,1.6584,1.8027,1.896,1.896,1.8987,1.9212,1.9695,1.8709,1.8383,1.8955,1.8418,1.8688,1.9783,2.0385,2.069,2.0703,2.1237,2.1211,2.4181,2.4815,2.5263,2.5793,2.6346,2.6379,2.4927,2.4864,2.4435,2.208,2.1022,2.0144,0.0,0.0,0.0,1.9955,2.1429,0.0,2.2173,2.2078,0.0,2.2446,0.0,2.2462,2.2767,2.2669,0.0,0.0,2.3176,2.3338,2.3427,2.2968,2.2467,2.2025,2.233,2.2718,2.3184,2.3857,2.3701,2.2721,2.1545,2.0612,1.9958,1.8914,1.8197,1.779,1.7669,1.712,1.6357,1.6483,1.6039,1.5205,1.5451,1.5173,1.4605,1.4605,1.4605,1.4641,1.4812,1.4776,1.4832,1.6286,1.6741,1.6816,1.7326,1.7492,1.7389,1.6736,1.6467,1.6413,1.6413,1.6413,1.6413,1.6413,1.6413,1.6402,1.6431,1.6459,1.6477,1.6609,1.6853,1.7011,1.7011,1.7172,1.7306,1.7306,1.7306,1.7306,1.7306,1.7197,1.7109,1.7109,1.7219,1.7247,1.7109,1.7857,1.8321,1.8321,1.8735,1.8869,1.8551,1.8598,1.851,1.826,1.8462,1.8892,1.9574,2.0245,2.0555,2.0576,2.1194,2.1198,2.5995,2.6541,2.6843,2.6526,2.6262,2.5613,2.3781,2.3137,2.2271,2.0063,1.9142,0.0,0.0,0.0,0.0,0.0,0.0,0.0,2.3033,2.2658,2.2473,0.0,2.2628,0.0,2.2553,2.2665,2.274,0.0,2.2852,2.299,2.329,2.2718,2.2327,2.2111,2.2645,2.3192,2.3774,2.345,2.3028,2.2482,2.0882,2.01,1.9947,1.8612,1.8133,1.8319,1.7592,1.7048,1.6675,1.6722,1.6261,1.5634,1.5666,1.5348,1.4855,1.466,1.4605,1.4605,1.4605,1.4812,1.5303,1.6515,1.7104,1.7364,1.7324,1.7325,1.7133,1.6204,1.5951,1.6019,1.6316,1.6413,1.6413,1.6413,1.6413,1.6413,1.6413,1.6413,1.6431,1.6581,1.6712,1.687,1.6983,1.7078,1.72,1.7306,1.7306,1.7306,1.7306,1.7306,1.7306,1.7306,1.7306,1.7306,1.7306,1.7762,1.8171,1.8382,1.8504,1.8619,1.8702,1.8526,1.8396,1.8305,1.8556,1.8947,1.9502,2.0163,2.0503,2.0526,2.0952,2.0845,2.7582,2.815,2.8308,2.7193,2.5969,2.4636,2.2811,2.1272,1.9841,1.8539,0.0,1.7173,1.6369,1.7352,1.8572,1.9379,0.0,2.2037,2.3812,2.3156,2.2794,2.3508,2.2976,2.2595,2.2583,2.2746,2.2827,2.2762,2.2854,2.2832,2.274,2.2553,2.238,2.2289,2.2908,2.3608,2.4305,2.2589,2.165,2.1516,1.9948,1.9266,1.9419,1.873,1.8562,1.8803,1.7689,1.7183,1.7119,1.6841,1.65,1.6103,1.5793,1.5513,1.5141,1.474,1.4605,1.4605,1.4605,1.5133,1.5903,1.6559,1.7242,1.7702,1.6908,1.6646,1.648,1.5604,1.5351,1.5498,1.6168,1.6323,1.6352,1.6467,1.6454,1.6394,1.6485,1.6454,1.6431,1.6552,1.6581,1.6684,1.6899,1.6983,1.7078,1.7239,1.7278,1.7306,1.7306,1.7306,1.7306,1.7306,1.7306,1.7306,1.7306,1.7726,1.8158,1.8572,1.8289,1.8445,1.9281,1.8592,1.8381,1.8774,1.8851,1.9116,1.9587,2.0176,2.0434,2.0349,2.0499,2.0256,2.8431,2.8412,2.8255,2.7176,2.5969,2.4451,2.2003,2.078,0.0,0.0,0.0,1.6751,1.5888,1.6609,0.0,2.018,0.0,0.0,0.0,0.0,2.4061,0.0,0.0,0.0,0.0,0.0,0.0,0.0,2.3584,2.3649,2.297,2.2777,2.2841,2.3234,2.2443,2.2426,2.3313,2.2262,2.1329,2.0574,2.0979,2.024,1.8556,1.8898,1.8529,1.7596,1.7026,0.0,1.6412,1.6594,1.6349,1.58,1.5736,1.5513,1.5141,1.474,1.4605,1.4605,1.4605,1.5133,1.5833,1.5939,1.649,1.6955,1.6123,1.5882,1.5779,1.5226,1.5066,1.5219,1.5827,1.5987,1.6128,1.6745,1.6643,1.6477,1.682,1.6632,1.6402,1.6431,1.6534,1.6599,1.6655,1.6842,1.7011,1.7039,1.7183,1.7306,1.7306,1.7306,1.7306,1.7306,1.7306,1.7306,1.7306,1.7726,1.7864,1.7589,1.8189,1.8495,1.8276,1.8827,1.9211,1.9288,1.966,1.9888,1.9985,2.0211,2.0084,1.9596,1.9797,1.9559,2.8893,2.8816,2.8565,2.6902,2.5125,2.3149,2.0674,0.0,0.0,0.0,1.5776,1.595,1.5044,0.0,0.0,0.0,0.0,0.0,0.0,0.0,0.0,0.0,0.0,0.0,0.0,0.0,0.0,0.0,0.0,2.3863,2.3226,2.3383,2.3652,2.4016,2.2866,2.2536,2.3086,2.1676,2.0754,2.0294,2.0499,1.9946,1.8712,1.8803,1.8389,1.7631,1.6966,1.6594,1.6451,1.6626,1.6491,1.619,1.5825,1.5616,1.538,1.4803,1.4605,1.4605,1.4605,1.5256,1.599,1.5602,1.5991,1.6434,1.5661,1.5204,1.4937,1.5021,1.4942,1.4978,1.5762,1.6072,1.6315,1.6695,1.6951,1.714,1.7327,1.7203,1.7015,1.6777,1.6774,1.6777,1.6612,1.6712,1.6825,1.6881,1.7032,1.7145,1.7145,1.7239,1.7306,1.7306,1.7306,1.7415,1.7639,1.8086,1.8261,1.8032,1.8676,1.8971,1.8753,1.9147,1.9507,1.9758,1.9998,2.0118,2.0118,2.0225,2.0132,1.9843,1.9685,1.9454,2.8825,2.8817,2.8565,2.6577,2.4255,2.1819,1.9485,1.7499,0.0,0.0,1.4814,1.507,1.4339,0.0,0.0,0.0,0.0,0.0,0.0,0.0,0.0,0.0,0.0,0.0,0.0,0.0,0.0,0.0,0.0,2.427,2.3686,2.401,2.4272,2.4478,2.3188,2.2571,2.278,2.0917,2.0076,2.0294,2.0128,1.9704,1.9136,1.8987,1.8516,1.7683,1.7009,1.6689,1.6689,1.6689,1.665,1.6515,1.592,1.5672,1.5507,1.4959,1.4724,1.4724,1.4724,1.5349,1.6062,1.5294,1.5644,1.6165,1.542,1.4765,1.4368,1.4849,1.4857,1.4892,1.5618,1.6123,1.6426,1.6462,1.6953,1.7364,1.7263,1.7336,1.7369,1.6971,1.6949,1.6893,1.655,1.6548,1.6581,1.6542,1.6853,1.7116,1.7173,1.7394,1.7545,1.7612,1.7426,1.7475,1.7966,1.8425,1.8687,1.8687,1.9244,1.9496,1.9387,1.9486,1.9725,2.0107,2.0118,2.0118,2.0118,2.0223,2.0271,2.0248,1.972,1.9493,2.7992,2.797,2.7551,2.6382,2.3954,2.1285,1.9052,0.0,0.0,1.4118,1.4118,1.4307,1.421,1.4645,1.5753,0.0,0.0,2.0791,0.0,0.0,0.0,0.0,0.0,0.0,0.0,0.0,0.0,0.0,2.5688,2.5446,2.4443,2.4274,2.4272,2.4478,2.2494,2.1568,2.1828,1.9903,1.9409,2.0294,2.1114,2.0712,1.9221,2.0051,1.909,1.6812,1.673,1.6689,0.0,1.6689,1.6507,1.6214,1.5825,1.5491,1.5221,1.5157,1.5133,1.5133,1.5133,1.5423,1.5637,1.4895,1.5399,1.6152,1.5401,1.4916,1.4577,1.4641,1.488,1.515,1.5197,1.5642,1.6137,1.6073,1.6193,1.6233,1.579,1.6218,1.6692,1.6652,1.684,1.6817,1.6257,1.6389,1.6389,1.5786,1.6713,1.7515,1.7719,1.8056,1.8376,1.8556,1.782,1.7475,1.7966,1.8425,1.8687,1.8687,1.9529,1.9845,1.9409,1.9813,2.0074,2.0118,2.0118,2.0118,2.0118,2.0096,2.0107,2.0096,1.9635,1.9405,2.6907,2.7221,2.6873,2.5504,2.3005,2.0452,1.876,0.0,0.0,1.4251,1.4257,1.428,1.4104,1.4489,1.5178,1.623,0.0,0.0,0.0,0.0,0.0,0.0,0.0,0.0,0.0,0.0,0.0,0.0,2.5485,2.5491,2.5349,2.5163,2.4732,2.4102,2.2539,2.1423,2.0881,2.0076,1.9894,2.0294,2.1517,2.1112,1.9213,1.9927,1.8947,1.6689,1.6689,1.6689,0.0,1.6689,1.6483,1.619,1.6047,1.5785,1.5497,1.5253,1.5346,1.5451,1.5253,1.5539,1.5952,1.5674,1.5865,1.6049,1.512,1.4573,1.4375,1.4847,1.4911,1.4924,1.5345,1.5996,1.6458,1.6165,1.6531,1.6811,1.6434,1.6578,1.6703,1.6417,1.6284,1.6057,1.5522,1.5546,1.5465,1.502,1.595,1.6807,1.7055,1.7639,1.8202,1.8654,1.8378,1.8327,1.8818,1.9026,1.9124,1.9124,1.9736,1.99,1.9409,1.9856,2.0118,2.0118,2.0118,2.0118,2.0118,2.0118,2.0118,2.0107,1.9911,1.9824,2.5453,2.6262,2.6299,2.4993,2.2498,1.9969,0.0,0.0,1.4194,1.4378,1.4337,1.4221,1.4033,1.4583,1.4995,1.4873,0.0,1.7376,0.0,0.0,0.0,0.0,0.0,0.0,0.0,0.0,0.0,2.5285,2.5474,2.5737,2.5895,2.5696,2.5158,2.4231,2.278,2.1587,2.0701,2.043,2.043,2.0746,2.1742,2.128,1.963,1.9725,1.8633,1.6689,1.6689,1.6689,0.0,1.6578,1.6365,1.6039,1.5936,1.569,1.5364,1.534,1.5419,1.5515,1.5417,1.5713,1.6174,1.5968,1.6111,1.6166,1.508,1.4697,1.4645,1.5003,1.4733,1.4546,1.5263,1.5788,1.6094,1.5931,1.6263,1.6501,1.6263,1.6411,1.6433,1.5995,1.5782,1.557,1.5132,1.5111,1.5074,1.485,1.5698,1.6517,1.6996,1.7626,1.8285,1.8988,1.9051,1.9169,1.9366,1.9387,1.9442,1.9595,1.9922,1.9965,1.9616,1.9933,2.0118,2.0118,2.0118,2.0118,2.0118,2.0118,2.0118,2.0118,2.0118,2.0118,2.357,2.4964,2.5787,2.5247,2.2738,2.0065,0.0,0.0,1.4328,1.4378,1.4197,1.3997,1.3997,1.4772,1.5206,1.4588,1.5964,0.0,0.0,0.0,0.0,0.0,0.0,0.0,0.0,0.0,0.0,2.5316,2.6163,0.0,2.5937,2.5696,2.5464,2.52,2.3129,2.1908,2.1695,2.0746,2.0754,2.1695,2.1695,2.1298,2.0541,1.963,1.8305,1.6689,1.6689,1.6689,0.0,1.6357,1.5999,1.5688,1.5324,1.4975,1.47,1.5419,1.5505,1.5237,1.5601,1.5904,1.6095,1.5419,1.5888,1.6491,1.5499,1.5404,1.5543,1.4979,1.4306,1.3946,1.4659,1.4718,1.4736,1.5131,1.4903,1.4649,1.4605,1.5232,1.5686,1.5283,1.5486,1.5571,1.5272,1.5342,1.5525,1.5591,1.6219,1.7051,1.7964,1.8311,1.8857,1.9781,1.9889,1.9771,1.9431,1.9387,1.9595,2.0074,2.0118,2.0118,2.0107,2.0118,2.0118,2.0118,2.0118,2.0118,2.0118,2.0118,2.0118,2.0118,2.0118,2.0118,2.0747,2.1756,2.2139,2.1618,1.9874,1.8131,1.7591,0.0,1.4217,1.4136,1.4116,1.4046,1.3787,1.3883,1.428,1.5009,1.55,0.0,0.0,0.0,0.0,0.0,0.0,0.0,0.0,0.0,0.0,2.683,2.6471,2.6096,2.5917,2.6011,2.5498,2.4284,2.34,2.2561,2.1695,2.2031,2.2199,2.2174,2.226,2.1565,2.0177,1.9285,1.8071,1.6689,1.6689,1.6689,1.6665,1.6349,1.5999,1.5704,1.5601,1.5316,1.5038,1.5261,1.557,1.5825,1.5467,1.5721,1.6134,1.5674,1.5745,1.5991,1.5912,1.5952,1.5819,1.4767,1.4935,1.5296,1.463,1.5227,1.5881,1.5324,1.5451,1.5477,1.4764,1.5013,1.5332,1.5218,1.5078,1.5016,1.5173,1.524,1.5193,1.4955,1.5698,1.6455,1.6928,1.7469,1.818,1.9168,1.9271,1.9435,1.9825,1.9781,1.9846,2.0074,2.0118,2.0118,2.0118,2.0118,2.0118,2.0118,2.0118,2.0118,2.0118,2.0118,2.0118,2.0118,2.0118,2.0118,0.0,1.9872,2.044,2.0211,1.8947,0.0,0.0,0.0,1.4233,1.4093,1.3975,1.3823,1.3563,1.348,1.3766,1.4834,1.5037,0.0,0.0,0.0,0.0,0.0,0.0,0.0,0.0,0.0,2.6276,2.6839,2.6282,2.6044,2.6281,2.6314,2.5785,2.4627,2.3837,2.3042,2.2217,2.279,2.2959,2.2643,2.2273,2.1409,2.0172,1.8797,1.7639,1.6681,1.6554,1.6491,0.0,1.6015,1.569,1.5513,1.534,1.5157,1.499,1.5133,1.5372,1.5578,1.5284,1.5467,1.5809,1.5744,1.5712,1.5752,1.5944,1.5945,1.5582,1.4288,1.4758,1.5357,1.4091,1.5014,1.6095,1.5218,1.5449,1.5642,1.499,1.4919,1.4982,1.4982,1.4756,1.4756,1.5284,1.5372,1.5388,1.539,1.584,1.6296,1.6721,1.7119,1.7688,1.8588,1.8842,1.9156,1.9748,1.9866,1.9976,2.0074,2.0118,2.0118,2.0118,2.0118,2.0118,2.0118,2.0118,2.0118,2.0118,2.0118,2.0118,2.0118,2.0118,2.0118,0.0,1.8883,1.9989,2.0273,1.9305,1.8096,0.0,0.0,0.0,0.0,1.3823,1.3478,1.3484,1.3477,1.3694,1.4377,1.4767,0.0,0.0,0.0,0.0,0.0,0.0,0.0,0.0,2.6319,2.776,2.6032,2.5912,2.6213,2.6885,2.6584,2.6206,2.586,2.4359,2.3434,2.3183,2.3183,2.3153,2.3085,2.1834,2.0976,2.0439,1.833,1.7098,0.0,1.6357,1.6206,1.615,1.5467,1.5189,1.5149,1.4748,1.4605,1.4645,1.5022,1.4951,1.4684,1.5038,1.5165,1.5266,1.5515,1.5626,1.5672,1.5648,1.5459,1.5014,1.3746,1.4094,1.4582,1.3245,1.4318,1.559,1.4902,1.5018,1.5213,1.5226,1.4919,1.4645,1.4645,1.4645,1.4867,1.5594,1.5736,1.592,1.6586,1.6396,1.6444,1.7162,1.7137,1.736,1.8072,1.8459,1.8848,1.9203,1.9603,1.9944,2.0085,2.0074,2.0074,2.0118,2.0118,2.0118,2.0118,2.0118,2.0118,2.0118,2.0118,2.0118,2.0118,2.0118,2.0118,1.5551,0.0,1.6396,1.6674,1.6478,1.6189,0.0,0.0,0.0,0.0,0.0,0.0,0.0,1.3721,1.3919,1.5901,1.5851,0.0,0.0,0.0,0.0,0.0,0.0,0.0,0.0,2.7005,2.755,2.8533,2.7316,2.6343,2.5937,2.665,2.6552,2.5392,2.4988,2.4594,2.4176,2.4176,2.3839,2.3155,2.2207,2.0999,1.958,1.8371,1.7409,1.6673,1.6357,1.6206,1.615,1.5467,1.5189,1.5149,1.4748,1.4605,1.4613,1.47,1.4887,1.503,1.4795,1.4951,1.5149,1.4951,1.5078,1.5245,1.493,1.503,1.5048,1.4268,1.495,1.556,1.4271,1.5018,1.5976,1.5544,1.5541,1.5491,1.5274,1.5118,1.5062,1.5062,1.5062,1.5276,1.596,1.5856,1.592,1.6586,1.6396,1.6341,1.6806,1.6815,1.6964,1.7445,1.7593,1.7872,1.8421,1.9065,1.9648,2.0085,2.0009,2.0009,2.0118,2.0118,2.0118,2.0118,2.0118,2.0118,2.0118,2.0118,2.0118,2.0118,2.0118,2.0118,1.4819,1.5289,1.5695,1.5867,1.6003,1.6068,1.5995,0.0,0.0,0.0,0.0,0.0,0.0,0.0,0.0,0.0,1.6578,0.0,0.0,0.0,0.0,0.0,0.0,0.0,0.0,2.731,2.7247,2.7496,2.6714,2.6179,2.6055,2.6432,2.6313,2.5541,2.5232,2.4861,2.4497,2.4497,2.4146,2.3505,2.2408,2.1281,2.0099,1.8678,1.7723,1.7269,1.6517,1.6111,1.592,1.5396,1.5086,1.4919,1.4684,1.4605,1.4605,1.4605,1.4732,1.4911,1.4676,1.4843,1.5125,1.4724,1.4887,1.5118,1.4716,1.474,1.482,1.4373,1.5088,1.56,1.4036,1.4591,1.5443,1.4947,1.4942,1.5085,1.5184,1.5054,1.4982,1.5149,1.5308,1.5531,1.5904,1.5936,1.5991,1.6214,1.6222,1.6277,1.6468,1.6594,1.6773,1.7015,1.7189,1.7394,1.7653,1.8466,1.9172,1.9712,1.9854,1.9976,2.0074,2.0118,2.0118,2.0118,2.0118,2.0118,2.0118,2.0118,2.0118,2.0118,2.0118,2.0118,1.4704,1.554,1.6302,1.6219,1.6379,1.6482,1.6126,0.0,0.0,0.0,0.0,0.0,0.0,0.0,0.0,0.0,0.0,0.0,0.0,0.0,0.0,0.0,0.0,0.0,2.691,2.7356,2.7031,2.5562,2.552,2.5842,2.6337,2.6137,2.5924,2.5796,2.5242,2.4786,2.4497,2.4497,2.4322,2.3877,2.2693,2.1774,2.1132,1.9128,1.8083,1.7854,1.6667,0.0,1.5616,1.5245,1.4919,1.4605,1.4605,1.4605,1.4605,1.4605,1.4605,1.4605,1.4605,1.4811,1.5046,1.47,1.4811,1.5046,1.47,1.4605,1.456,1.4342,1.4925,1.5203,1.3418,1.3829,1.4563,1.3896,1.3999,1.4388,1.4942,1.4822,1.4692,1.5038,1.5324,1.5539,1.5594,1.5809,1.5896,1.5744,1.5888,1.6087,1.619,1.638,1.6578,1.6681,1.6957,1.7096,1.7034,1.7825,1.8524,1.9008,1.9609,2.0052,2.0227,2.0151,2.0118,2.0118,2.0118,2.0118,2.0118,2.0118,2.0118,2.0118,2.0118,2.0151,1.5021,1.5836,1.6295,1.5509,1.5375,1.5436,1.5441,0.0,0.0,0.0,0.0,0.0,0.0,0.0,0.0,0.0,0.0,0.0,0.0,0.0,0.0,0.0,0.0,2.9338,2.6688,2.7017,2.7173,2.6519,2.5946,2.5547,2.5434,2.5958,2.5958,2.5317,2.519,2.4946,2.4497,2.4497,2.4322,2.3867,2.3279,2.2362,2.1132,1.9727,1.8522,1.7501,0.0,1.5608,1.5237,1.4835,1.4653,1.4605,1.4605,1.4605,1.4605,1.4605,1.4605,1.4605,1.4605,1.4637,1.4676,1.4621,1.4637,1.4676,1.4621,1.4605,1.4577,1.456,1.4909,1.504,1.3911,1.4007,1.4215,1.3601,1.3658,1.3983,1.4351,1.4522,1.4621,1.4676,1.4732,1.4895,1.5205,1.5054,1.5025,1.5594,1.5483,1.5547,1.6134,1.5991,1.6071,1.6626,1.6493,1.6501,1.675,1.7248,1.7657,1.7852,1.9349,2.0414,2.0751,2.0325,2.0118,2.0118,2.0118,2.0118,2.0118,2.0118,2.0118,2.0118,2.0118,2.0325,1.493,1.5354,1.5695,1.5905,1.6227,1.638,1.588,0.0,0.0,0.0,0.0,0.0,0.0,0.0,0.0,0.0,0.0,0.0,0.0,0.0,0.0,0.0,0.0,2.8572,2.7195,2.6953,2.652,2.5594,2.5186,2.5048,2.5211,2.5541,2.5562,2.52,2.52,2.4988,2.4497,2.4497,2.4322,2.3919,2.366,2.2971,2.1839,2.037,1.9137,1.8139,0.0,1.5944,1.5451,1.5475,1.5268,1.4935,1.4935,1.4779,1.4605,1.4605,1.4605,1.4605,1.4605,1.4605,1.4605,1.4605,1.4605,1.4605,1.4605,1.4605,1.4605,1.4605,1.4535,1.4256,1.3514,1.3175,1.3059,1.3133,1.3212,1.3514,1.4292,1.4535,1.4605,1.4605,1.4764,1.4927,1.4895,1.4919,1.4975,1.5102,1.5157,1.53,1.5618,1.5666,1.5872,1.6397,1.6301,1.6269,1.6436,1.6999,1.761,1.8278,1.9458,2.0194,2.033,2.0475,2.0413,2.0118,2.0118,2.0118,2.0118,2.0118,2.0118,2.0118,2.0413,2.0653,1.4965,1.5078,1.5205,1.6221,0.0,1.7065,1.7069,0.0,0.0,0.0,0.0,0.0,0.0,0.0,0.0,0.0,0.0,0.0,0.0,0.0,2.6876,2.8239,2.8008,2.7608,2.7457,2.6682,2.5733,2.4571,2.4497,2.47,2.5158,2.52,2.52,2.52,2.52,2.4988,2.4497,2.4497,2.4332,2.4033,2.3971,2.3371,2.2329,2.0738,1.9439,1.8436,1.7119,1.6206,1.5624,1.5936,1.5674,1.507,1.5149,1.4959,1.4605,1.4605,1.4533,1.4418,1.4418,1.4418,1.4418,1.4418,1.4497,1.4605,1.4605,1.4605,1.4569,1.4461,1.4021,1.347,1.301,1.2452,1.2077,1.2415,1.2617,1.3035,1.3916,1.4208,1.4281,1.4281,1.4479,1.4562,1.4248,1.4462,1.4554,1.4248,1.4579,1.4901,1.4979,1.5249,1.5602,1.6031,1.6079,1.6158,1.6317,1.6861,1.7567,1.8488,1.951,2.0031,1.9868,2.0394,2.043,1.9911,2.0042,2.0172,2.0282,2.0282,2.0336,2.0456,2.086,2.1124,1.5565,1.5549,1.5264,1.5662,1.5672,0.0,1.9018,1.8289,0.0,0.0,0.0,0.0,0.0,0.0,0.0,0.0,0.0,0.0,0.0,0.0,2.9572,2.9602,2.9016,2.8082,2.6724,2.5782,2.508,2.4528,2.4497,2.47,2.5158,2.52,2.52,2.52,2.52,2.4988,2.4497,2.4497,2.4487,2.4445,2.4074,2.3226,2.191,2.0577,1.911,1.7549,1.6618,1.5856,1.5245,1.5616,1.5308,1.4676,1.5054,1.4959,1.4605,1.4605,1.4274,1.3869,1.3869,1.3869,1.3869,1.3869,1.4201,1.4605,1.4605,1.4605,1.4497,1.4013,1.3441,1.2936,1.2893,1.2452,1.1855,1.1335,1.1866,1.247,1.2546,1.301,1.3388,1.3388,1.3221,1.3075,1.3046,1.3068,1.3075,1.3046,1.3528,1.4019,1.4328,1.4566,1.4938,1.5642,1.5752,1.5996,1.6679,1.683,1.7033,1.7489,1.9307,2.0183,1.9823,1.992,1.9792,1.9386,1.9835,2.0336,2.0839,2.0839,2.108,2.1483,2.1516,2.1778,1.5047,1.5628,1.6126,1.652,0.0,0.0,0.0,0.0,0.0,0.0,0.0,0.0,0.0,0.0,0.0,0.0,0.0,0.0,3.0405,3.0726,3.0413,2.9061,2.9129,2.8302,2.5913,2.5626,2.5253,2.455,2.4497,2.4658,2.4988,2.5031,2.5031,2.5031,2.5031,2.4871,2.4497,2.4497,2.4497,2.4497,2.4332,2.3731,2.2676,2.1107,1.9628,1.8225,1.703,1.6261,1.5825,1.5952,1.5721,1.5261,1.4959,1.4724,1.4569,1.4238,1.3977,1.376,1.3368,1.3258,1.3295,1.3688,1.4085,1.4442,1.456,1.4764,1.4898,1.4408,1.3622,1.2826,1.2452,1.2034,1.1714,1.1891,1.2395,1.2955,1.3163,1.35,1.3741,1.3592,1.346,1.3321,1.3177,1.3142,1.308,1.2928,1.3397,1.377,1.3683,1.4227,1.4807,1.531,1.5959,1.6421,1.6718,1.7016,1.7257,1.7378,1.8747,1.9448,1.9239,1.9627,1.962,1.9182,1.9387,1.9742,2.032,2.0618,2.1072,2.1592,2.1898,2.2138,1.5037,1.5704,1.6348,0.0,0.0,0.0,0.0,0.0,0.0,0.0,0.0,0.0,0.0,0.0,0.0,0.0,0.0,3.0986,3.0986,3.1136,3.0608,2.881,2.8793,2.8016,2.5636,2.537,2.5147,2.454,2.4497,2.4615,2.4903,2.4903,2.4903,2.4903,2.4903,2.4786,2.4497,2.4497,2.4425,2.4333,2.4333,2.3804,2.2717,2.1135,1.9719,1.8461,1.7227,1.6491,1.6206,1.6206,1.5936,1.5459,1.4835,1.4605,1.4533,1.4013,1.3688,1.3433,1.282,1.2636,1.2673,1.3105,1.3653,1.417,1.4307,1.4662,1.4922,1.4488,1.3659,1.2753,1.2157,1.1709,1.1471,1.1879,1.2316,1.274,1.2969,1.3154,1.324,1.304,1.3,1.294,1.2741,1.2781,1.2812,1.2612,1.3105,1.3407,1.3167,1.4117,1.5026,1.5597,1.6201,1.657,1.6681,1.6976,1.7188,1.7188,1.814,1.867,1.8649,1.9191,1.9357,1.9051,1.9183,1.9571,2.0127,2.0661,2.1225,2.1754,2.227,2.2531,1.5738,1.5804,1.5774,0.0,0.0,0.0,0.0,0.0,0.0,0.0,0.0,0.0,0.0,0.0,0.0,2.694,2.9264,3.0986,3.0986,3.0811,3.0292,2.9199,2.8159,2.7058,2.5902,2.502,2.4497,2.4497,2.4497,2.4615,2.4861,2.4903,2.4903,2.4903,2.4903,2.4775,2.4497,2.4487,2.4312,2.3867,2.3909,2.3195,2.1858,2.0596,1.9286,1.7957,1.709,1.6491,1.6198,1.6198,1.5793,1.5141,1.4748,1.4605,1.4525,1.3977,1.3397,1.2826,1.2187,1.2003,1.2003,1.2003,1.2813,1.3796,1.3796,1.4165,1.4497,1.3941,1.3368,1.2753,1.2157,1.1558,1.1111,1.1111,1.1291,1.1501,1.1495,1.1501,1.1501,1.1501,1.1501,1.1501,1.1501,1.1718,1.1886,1.1886,1.2399,1.2803,1.2803,1.421,1.5577,1.6576,1.638,1.6357,1.6665,1.6689,1.6697,1.6689,1.7505,1.8028,1.8115,1.861,1.8911,1.8885,1.9413,1.9922,2.0399,2.1077,2.1649,2.2101,2.2703,2.3001,1.4755,1.5474,0.0,0.0,0.0,0.0,0.0,0.0,0.0,0.0,0.0,0.0,0.0,0.0,0.0,2.7963,2.9662,3.0986,3.0986,3.0305,2.9381,2.8295,2.7209,2.608,2.4988,2.4658,2.4497,2.4497,2.4497,2.454,2.4615,2.4615,2.4615,2.4615,2.4356,2.4158,2.4074,2.3753,2.3525,2.3391,2.306,2.2712,2.228,2.0707,1.9463,1.8491,1.7219,1.6389,1.5817,1.5586,1.5213,1.4756,1.4645,1.4605,1.4497,1.3513,1.3039,1.2746,1.1706,1.1372,1.1446,1.1855,1.2692,1.3569,1.3755,1.4371,1.4857,1.4046,1.3368,1.2753,1.2157,1.1558,1.116,1.1321,1.1712,1.2029,1.1808,1.191,1.2042,1.2042,1.2042,1.2137,1.2324,1.227,1.2198,1.2198,1.2525,1.3028,1.3662,1.413,1.4695,1.5418,1.5896,1.6301,1.6744,1.7038,1.731,1.7595,1.7878,1.8029,1.8037,1.8503,1.8765,1.8759,1.8901,1.925,1.9855,2.0775,2.1539,2.2101,2.2703,2.3001,1.5269,1.6255,0.0,0.0,0.0,0.0,0.0,0.0,0.0,0.0,0.0,0.0,0.0,0.0,0.0,2.8399,2.9832,3.0748,3.0063,3.0012,2.9369,2.7522,2.6994,2.6193,2.4658,2.4497,2.4497,2.4497,2.4497,2.4497,2.4497,2.4497,2.4425,2.4281,2.4022,2.3795,2.3608,2.3329,2.3091,2.2915,2.2635,2.223,2.1656,2.0313,1.9445,1.8926,1.7239,1.6198,1.5666,1.5459,1.5086,1.4629,1.4906,1.4851,1.4477,1.3469,1.2998,1.2716,1.1521,1.1111,1.1149,1.1521,1.2337,1.3198,1.3126,1.3792,1.4516,1.3965,1.3178,1.2553,1.252,1.1826,1.1154,1.1285,1.1606,1.1793,1.1636,1.1727,1.1866,1.194,1.2083,1.224,1.2499,1.2506,1.2469,1.2469,1.262,1.3146,1.4173,1.4084,1.4332,1.5283,1.559,1.5971,1.6708,1.7009,1.7392,1.7935,1.8166,1.8282,1.8282,1.854,1.8767,1.8944,1.8944,1.9129,1.9457,2.0381,2.0972,2.1367,2.2004,2.2268,1.659,0.0,0.0,0.0,0.0,0.0,0.0,0.0,0.0,0.0,0.0,0.0,0.0,2.9404,2.8987,2.85,2.9781,3.0305,2.8624,2.9704,2.9614,2.6842,2.7116,2.676,2.4743,2.4497,2.4497,2.4497,2.4466,2.4456,2.4497,2.4414,2.425,2.3888,2.3836,2.3557,2.3132,2.308,2.2853,2.2439,2.235,2.1695,2.0459,1.9659,1.9198,1.8906,1.6975,1.5936,1.5634,1.5634,1.5261,1.4716,1.5388,1.5207,1.4467,1.3686,1.3166,1.2684,1.1552,1.1172,1.1148,1.1148,1.1911,1.2709,1.215,1.2806,1.3724,1.3651,1.2842,1.2173,1.2897,1.2079,1.1111,1.1111,1.1111,1.1123,1.1172,1.1166,1.12,1.1507,1.1754,1.2059,1.2367,1.2578,1.2705,1.2705,1.2705,1.3151,1.4302,1.3965,1.4219,1.565,1.5331,1.5445,1.6566,1.6771,1.7149,1.7929,1.8441,1.8732,1.8732,1.8732,1.8922,1.9301,1.9301,1.9301,1.9301,1.9932,2.0206,2.0206,2.0895,2.1203,0.0,1.7176,0.0,0.0,0.0,0.0,0.0,0.0,0.0,0.0,0.0,0.0,0.0,3.0164,3.0075,2.8652,2.9303,2.9626,2.8545,2.7976,2.7452,2.6812,2.6038,2.5348,2.4861,2.4615,2.4497,2.4497,2.4219,2.4178,2.4476,2.3867,2.3608,2.3867,2.3174,2.2749,2.2646,2.2283,2.2056,2.1952,2.1277,2.079,2.0459,1.9659,1.8422,1.6826,1.5857,1.5364,1.5292,1.5292,1.5205,1.5078,1.5237,1.4928,1.4268,1.3591,1.2965,1.2444,1.1907,1.1573,1.1405,1.1405,1.1784,1.215,1.204,1.2519,1.3003,1.2519,1.2187,1.1942,1.1664,1.1341,1.1111,1.1111,1.1111,1.1226,1.1655,1.1549,1.1543,1.2053,1.2192,1.2451,1.3139,1.2952,1.2705,1.2705,1.2705,1.2868,1.334,1.3329,1.3527,1.4251,1.4321,1.4878,1.6191,1.6711,1.7409,1.8452,1.8927,1.9152,1.9152,1.9152,1.9222,1.9301,1.9301,1.9301,1.9301,1.9932,2.0206,2.0206,2.0895,2.1203,0.0,0.0,0.0,0.0,0.0,0.0,0.0,0.0,0.0,0.0,0.0,0.0,2.9858,2.9885,2.9454,2.7727,2.8159,2.8276,2.7035,2.7064,2.6892,2.5943,2.5417,2.4975,2.4609,2.4232,2.4065,2.4209,2.3805,2.365,2.3888,2.3443,2.3194,2.3215,2.2749,2.2387,2.217,2.1921,2.1606,2.1175,2.0741,2.006,1.9313,1.8868,1.7854,1.638,1.5721,1.5515,1.5658,1.5491,1.5419,1.5459,1.5444,1.5049,1.4393,1.3577,1.2994,1.2511,1.2071,1.1796,1.1657,1.1537,1.1902,1.2298,1.1714,1.21,1.2553,1.2116,1.1781,1.1583,1.1684,1.1396,1.1208,1.1594,1.1389,1.119,1.1473,1.1495,1.1609,1.2047,1.2228,1.253,1.3212,1.3091,1.2862,1.2723,1.2705,1.2807,1.3091,1.3006,1.3127,1.3664,1.367,1.4228,1.5793,1.6242,1.7044,1.8551,1.887,1.9112,1.9301,1.9301,1.9301,1.9301,1.9301,1.9301,1.9301,1.9618,1.9775,1.9775,2.0338,2.0467,0.0,0.0,0.0,0.0,0.0,0.0,0.0,0.0,0.0,0.0,0.0,0.0,2.9601,2.9087,2.8208,2.6461,2.6863,2.6804,2.5286,2.6278,2.653,2.4941,2.5019,2.4902,2.4206,2.3727,2.3583,2.3774,2.3329,2.3101,2.3184,2.3039,2.2811,2.2511,2.2418,2.219,2.1807,2.1725,2.1255,2.043,2.0043,1.9102,1.7609,1.7609,1.7217,1.6516,1.5936,1.5777,1.592,1.5745,1.5635,1.5544,1.5574,1.5146,1.4341,1.3561,1.3022,1.2628,1.2147,1.1922,1.1838,1.1579,1.1992,1.24,1.1468,1.1677,1.219,1.1996,1.1521,1.1272,1.1993,1.1652,1.1292,1.2005,1.1667,1.122,1.1359,1.1498,1.1651,1.1999,1.227,1.2578,1.2982,1.3091,1.3025,1.2747,1.2705,1.2789,1.3019,1.285,1.2898,1.3393,1.3212,1.3699,1.5267,1.5662,1.6502,1.8163,1.8551,1.8834,1.9192,1.9192,1.9231,1.9301,1.9301,1.9301,1.9301,1.9301,1.9301,1.9311,1.9659,1.9641,0.0,0.0,0.0,0.0,0.0,0.0,0.0,0.0,0.0,0.0,0.0,2.8987,2.8657,2.8176,2.7323,2.5628,2.5707,2.5657,2.4733,2.4812,2.484,2.4574,2.4378,2.4158,2.3873,2.3619,2.3458,2.3318,2.2853,2.277,2.3163,2.2428,2.2149,2.248,2.2108,2.1869,2.1807,2.1414,2.0825,2.0056,1.8299,1.6962,1.601,1.601,1.5933,1.5817,1.5752,1.5364,1.4859,1.5443,1.5366,1.4854,1.5158,1.4555,1.3473,1.3281,1.2864,1.234,1.2258,1.2073,1.1838,1.1579,1.1591,1.1648,1.1498,1.1536,1.1593,1.1563,1.1336,1.1117,1.1228,1.1173,1.1202,1.1513,1.1513,1.1621,1.2343,1.2161,1.197,1.2506,1.2825,1.2921,1.2789,1.2964,1.3025,1.2747,1.2705,1.2717,1.2753,1.2729,1.2825,1.3101,1.2928,1.3262,1.4532,1.5393,1.6239,1.6977,1.8037,1.8661,1.8789,1.8772,1.8922,1.9301,1.9301,1.9301,1.9301,1.9301,1.9301,1.9301,1.9356,1.9356,0.0,0.0,0.0,0.0,0.0,0.0,0.0,0.0,0.0,0.0,2.6772,2.6647,2.6835,2.6506,2.5784,2.4552,2.4482,2.4465,2.4099,2.4061,2.4061,2.4061,2.3732,2.3513,2.3559,2.3151,2.2903,2.2979,2.2455,2.2087,2.2035,2.1642,2.1393,2.1342,2.1135,2.1031,2.1031,2.0798,2.0092,1.8901,1.7113,1.6057,1.5712,1.5712,1.5712,1.5704,1.5521,1.5332,1.5207,1.5165,1.5086,1.4934,1.4527,1.4034,1.3493,1.3075,1.274,1.2512,1.2367,1.224,1.2077,1.1627,1.1688,1.1874,1.1579,1.1591,1.1682,1.1537,1.1329,1.1111,1.1111,1.1111,1.122,1.1609,1.1597,1.1706,1.2536,1.2409,1.2252,1.2632,1.3225,1.3461,1.279,1.2934,1.3025,1.2747,1.2705,1.2705,1.2705,1.2705,1.2753,1.2874,1.2777,1.3059,1.3952,1.475,1.5599,1.6529,1.7408,1.817,1.8669,1.87,1.8882,1.9301,1.9301,1.9301,1.9301,1.9301,1.9421,1.965,1.965,1.9769,0.0,0.0,0.0,0.0,0.0,0.0,0.0,0.0,0.0,0.0,2.4989,2.4682,2.5214,2.496,2.4461,2.3799,2.3585,2.3509,2.3509,2.3509,2.3509,2.3509,2.322,2.3068,2.3199,2.2756,2.246,2.2436,2.197,2.1462,2.0969,2.0901,2.0746,2.0395,2.0385,2.0385,2.0385,1.9905,1.9033,1.7779,1.6192,1.5411,1.5411,1.5411,1.5411,1.5404,1.5253,1.5276,1.5382,1.4812,1.4645,1.4634,1.389,1.3494,1.3296,1.2851,1.2705,1.2656,1.233,1.2216,1.2137,1.1639,1.1802,1.2155,1.179,1.1784,1.1856,1.1724,1.1393,1.1141,1.128,1.1214,1.1262,1.1878,1.1784,1.1766,1.2463,1.2499,1.2469,1.2662,1.3256,1.3503,1.2826,1.288,1.2946,1.2735,1.2705,1.2705,1.2705,1.2705,1.2705,1.2705,1.2705,1.2948,1.35,1.4175,1.5014,1.602,1.6816,1.7646,1.85,1.866,1.8882,1.9301,1.9301,1.9301,1.9301,1.9301,1.9522,1.9893,1.9893,2.0104,0.0,0.0,0.0,0.0,0.0,0.0,0.0,0.0,0.0,0.0,2.3673,2.3615,2.4108,2.397,2.376,2.3733,2.334,2.3045,2.3045,2.3045,2.3045,2.3045,2.3012,2.2938,2.2735,2.2713,2.2334,2.1539,2.146,2.1131,2.0483,2.0426,2.0416,2.0385,2.0385,2.0385,2.0385,1.8579,1.7409,1.6927,1.5396,1.466,1.466,1.466,1.466,1.4676,1.5046,1.4998,1.4648,1.4417,1.3951,1.3376,1.3333,1.2943,1.2408,1.2608,1.2705,1.2632,1.2079,1.1904,1.1856,1.1585,1.1676,1.1946,1.2204,1.2107,1.1928,1.2204,1.1715,1.1232,1.1745,1.1498,1.131,1.2107,1.2048,1.194,1.227,1.2518,1.2687,1.2699,1.2759,1.2765,1.2711,1.2717,1.2723,1.2705,1.2705,1.2705,1.2705,1.2705,1.2705,1.2705,1.2705,1.2813,1.3123,1.3779,1.4506,1.5118,1.6259,1.7257,1.8008,1.8451,1.8882,1.9301,1.9301,1.9301,1.9301,1.9301,1.9522,1.9893,1.9893,2.0104,0.0,0.0,0.0,0.0,0.0,0.0,0.0,0.0,0.0,0.0,2.2105,2.2081,2.2982,2.3181,2.3403,2.3891,2.3435,2.3176,2.3632,2.3021,2.2564,2.2564,2.228,2.2179,2.2422,2.2064,2.179,2.1788,2.1269,2.0722,2.0167,1.9785,1.9561,1.9561,1.9261,1.9251,1.9551,1.795,1.7035,1.6862,1.5338,1.4605,1.4605,1.4605,1.4605,1.4613,1.474,1.4724,1.4557,1.3933,1.362,1.3489,1.2894,1.2617,1.2554,1.2481,1.2451,1.2379,1.1814,1.1742,1.1814,1.1407,1.1525,1.1908,1.1796,1.1706,1.1651,1.1748,1.1473,1.1154,1.1353,1.1256,1.1274,1.1908,1.2246,1.2451,1.2542,1.2983,1.3222,1.279,1.3052,1.3222,1.279,1.2705,1.2705,1.2705,1.2705,1.2705,1.2705,1.2705,1.2705,1.2705,1.2705,1.2747,1.285,1.3495,1.413,1.4817,1.5646,1.6676,1.7959,1.8161,1.8603,1.9301,1.9301,1.9301,1.9301,1.9301,1.965,2.025,1.9769,2.0163,0.0,0.0,0.0,0.0,0.0,0.0,0.0,0.0,0.0,2.1444,2.118,2.1174,2.2983,2.2879,2.2932,2.4024,2.3807,2.3695,2.4397,2.3432,2.2595,2.2464,2.1811,2.1407,2.1535,2.13,2.1153,2.1188,2.0666,2.0078,1.9492,1.8934,1.8692,1.887,1.8569,1.8501,1.8721,1.7516,1.6768,1.6524,1.5232,1.4605,1.4605,1.4605,1.4605,1.4605,1.4605,1.4605,1.4513,1.3556,1.3388,1.3645,1.2833,1.2612,1.2731,1.2779,1.2557,1.2252,1.1778,1.1682,1.1706,1.1473,1.1624,1.1868,1.1784,1.1694,1.1621,1.1621,1.1423,1.1292,1.1467,1.1582,1.1715,1.1986,1.2391,1.2705,1.2705,1.3052,1.3222,1.279,1.3045,1.3215,1.279,1.2705,1.2705,1.2705,1.2705,1.279,1.3003,1.2833,1.279,1.3003,1.2833,1.2705,1.2705,1.3307,1.3984,1.465,1.5484,1.6605,1.813,1.823,1.8624,1.9472,1.9375,1.9301,1.9301,1.9301,1.965,2.031,1.9769,2.0237,0.0,0.0,0.0,0.0,0.0,0.0,1.6759,0.0,1.8626,2.1313,2.0885,2.0957,2.4045,2.3004,2.2279,2.413,2.4366,2.4558,2.5168,2.4143,2.3144,2.2661,2.1543,2.0654,2.014,2.0544,2.0497,1.967,1.9594,1.9251,1.8466,1.7968,1.7884,1.833,1.8403,1.8263,1.7983,1.7276,1.6524,1.5798,1.4991,1.4605,1.4605,1.4605,1.4605,1.4605,1.4605,1.4605,1.4497,1.3404,1.3266,1.3762,1.3126,1.2863,1.2868,1.3419,1.3063,1.2252,1.2005,1.1718,1.1543,1.1802,1.188,1.1968,1.2216,1.2073,1.1908,1.1908,1.1694,1.1621,1.2168,1.2493,1.2626,1.2373,1.2512,1.2705,1.2705,1.2705,1.2705,1.2705,1.2705,1.2705,1.2705,1.2705,1.2705,1.2705,1.2705,1.2918,1.3603,1.3088,1.296,1.361,1.3088,1.2705,1.2705,1.3307,1.3948,1.4622,1.5733,1.7005,1.8505,1.867,1.9098,1.9902,1.9549,1.9338,1.9338,1.9311,1.9522,1.9893,1.9912,2.0332,1.1769,0.0,0.0,0.0,0.0,0.0,1.5328,1.6146,1.7257,1.8842,1.8709,1.9104,2.1825,2.1861,2.2224,2.4468,2.3902,2.3281,2.3601,2.2538,2.1376,2.044,1.9709,1.9375,1.9573,1.9736,1.9846,0.0,1.9415,1.9009,1.8776,1.8103,1.7606,1.7389,1.804,1.811,1.75,1.7092,1.6524,1.5798,1.4991,1.4605,1.4605,1.4605,1.4605,1.4605,1.4605,1.4605,1.4569,1.384,1.3763,1.4,1.2946,1.2642,1.2777,1.2488,1.2095,1.1724,1.1844,1.1832,1.1784,1.1902,1.188,1.1902,1.1742,1.1657,1.1597,1.1597,1.1682,1.1808,1.1952,1.2228,1.2403,1.233,1.2512,1.2705,1.2705,1.2705,1.2705,1.2705,1.2705,1.2705,1.2705,1.2705,1.2705,1.2705,1.2705,1.279,1.296,1.279,1.279,1.296,1.279,1.2705,1.2705,1.2875,1.3346,1.4196,1.481,1.6057,1.8087,1.8455,1.9162,2.0305,2.0204,2.0182,2.0182,1.9586,1.9522,1.9902,2.0512,2.0897,0.0,0.0,0.0,0.0,0.0,0.0,1.4978,1.5691,1.6675,0.0,1.8297,1.8728,2.1019,2.1293,2.1847,2.3888,2.3582,2.328,2.3754,2.2743,2.1438,2.0087,1.9235,1.8681,1.8542,1.8709,1.8877,1.9087,1.8621,1.8171,1.7859,1.7396,1.7099,1.7017,1.7523,1.7515,1.6845,1.6698,1.6181,1.5303,1.4812,1.4605,1.4605,1.4605,1.4605,1.4605,1.4605,1.4605,1.4569,1.4013,1.388,1.3963,1.3141,1.2724,1.2602,1.2515,1.2154,1.1694,1.1952,1.197,1.1904,1.2047,1.2083,1.2059,1.1862,1.182,1.1796,1.1688,1.1844,1.2073,1.2216,1.2361,1.2475,1.2475,1.2596,1.2705,1.2705,1.2705,1.2705,1.2705,1.2705,1.2705,1.2705,1.2705,1.2705,1.2705,1.2705,1.2826,1.3243,1.3299,1.3336,1.3299,1.3299,1.3163,1.2753,1.296,1.3455,1.4309,1.5042,1.6347,1.8399,1.8589,1.9236,2.047,2.0356,2.0314,2.0521,1.9879,1.9687,1.9912,2.0741,2.1108,0.0,0.0,0.0,0.0,1.29,0.0,1.4977,1.5547,1.6321,1.8437,1.8541,1.8822,2.0707,2.0779,2.1007,2.2476,2.3113,2.3715,2.4517,2.3658,2.2322,2.0616,1.9415,1.8357,1.7395,1.7715,1.7941,1.7762,1.7605,1.718,1.6433,1.6413,1.656,1.6924,1.6986,1.6704,1.6087,1.6108,1.5599,1.4486,1.4526,1.455,1.455,1.4589,1.4605,1.4605,1.4605,1.4569,1.4461,1.4013,1.3796,1.3746,1.3397,1.2869,1.2408,1.2914,1.2556,1.192,1.221,1.2161,1.2011,1.227,1.2337,1.2312,1.2312,1.2312,1.227,1.2065,1.2174,1.2409,1.2644,1.2705,1.2705,1.2705,1.2705,1.2705,1.2705,1.2705,1.2705,1.2705,1.2705,1.2705,1.2705,1.2705,1.2705,1.2705,1.2705,1.3047,1.3946,1.4102,1.4139,1.4152,1.4226,1.3905,1.3058,1.3476,1.4082,1.4825,1.579,1.7191,1.9059,1.8889,1.9322,2.0525,2.025,2.0241,2.0585,2.0149,1.9976,2.004,2.0778,2.1135,0.0,0.0,0.0,0.0,0.0,0.0,1.3216,1.3976,1.4878,0.0,1.5778,1.6414,1.7996,1.8284,1.8752,2.0056,2.1065,2.1873,2.2336,2.2196,2.1188,1.8865,1.8382,1.7999,1.7362,1.7715,1.7981,1.7941,1.7675,1.718,1.6433,1.6413,1.6454,1.6508,1.6831,1.6416,1.5241,1.5602,1.5107,1.3791,1.4077,1.4212,1.4228,1.447,1.4605,1.4605,1.4605,1.4346,1.3941,1.3833,1.3796,1.3695,1.2691,1.2199,1.2058,1.1907,1.1727,1.1633,1.2149,1.2282,1.2282,1.2542,1.2487,1.2312,1.2312,1.2312,1.2343,1.2506,1.2584,1.2638,1.2693,1.2705,1.2705,1.2705,1.2705,1.2705,1.2705,1.2705,1.2705,1.2705,1.2705,1.2705,1.2705,1.2705,1.2705,1.2705,1.2705,1.2979,1.3681,1.3773,1.3985,1.4529,1.4614,1.4663,1.4852,1.4349,1.4614,1.6,1.5936,1.6708,1.8708,1.9051,1.9766,2.0979,2.1202,2.1211,2.0989,2.0594,2.0567,2.0879,2.1034,2.1291,0.0,0.0,0.0,1.2708,0.0,0.0,0.0,1.4156,1.507,1.5336,1.5724,1.6266,1.7134,0.0,1.8103,1.8967,2.0445,2.1151,2.0157,2.0545,2.0241,1.834,1.7875,1.7727,1.7652,1.7639,1.7581,1.7399,1.7245,1.6937,1.6423,1.6413,1.6259,1.5923,1.6105,1.565,1.4515,1.4741,1.442,1.3584,1.3942,1.4109,1.4125,1.4439,1.4605,1.4605,1.4605,1.431,1.3796,1.347,1.3178,1.2842,1.2224,1.1818,1.1571,1.1654,1.1688,1.176,1.2324,1.2506,1.253,1.2662,1.2614,1.2506,1.2506,1.2506,1.2536,1.2668,1.2705,1.2705,1.2705,1.2705,1.2705,1.2705,1.2705,1.2705,1.2705,1.2705,1.2705,1.2705,1.2705,1.2705,1.2705,1.2705,1.2705,1.2705,1.2705,1.301,1.3797,1.4409,1.4874,1.5227,1.5355,1.5483,1.5684,1.4914,1.5069,1.6612,1.6704,1.7376,1.892,1.9203,1.9784,2.0796,2.1218,2.142,2.142,2.1183,2.1117,2.1108,2.1319,2.142,0.0,0.0,0.0,0.0,0.0,1.37,0.0,0.0,0.0,0.0,0.0,0.0,0.0,0.0,0.0,0.0,0.0,0.0,0.0,1.8422,0.0,1.779,1.7558,1.7562,1.7785,1.7437,1.7203,1.713,1.6772,1.6595,1.6584,1.6329,1.5992,1.5508,1.5303,1.4833,1.4013,1.3945,1.3772,1.3497,1.3839,1.4045,1.4125,1.4439,1.4605,1.4605,1.4605,1.4238,1.3579,1.3112,1.2489,1.1818,1.1818,1.1552,1.1244,1.1645,1.1874,1.2059,1.2481,1.2662,1.2705,1.2705,1.2705,1.2705,1.2705,1.2705,1.2705,1.2705,1.2705,1.2705,1.2705,1.2705,1.2705,1.2705,1.279,1.2875,1.2875,1.2875,1.2875,1.2875,1.2832,1.2771,1.2711,1.2747,1.2765,1.2711,1.2747,1.3102,1.4007,1.5108,1.5871,1.5939,1.6327,1.6576,1.6525,1.573,1.5861,1.7359,1.7626,1.8215,1.9258,1.9357,1.9732,2.0393,2.0796,2.1163,2.1458,2.1458,2.1366,2.1236,2.1449,2.1385,0.0,0.0,0.0,0.0,1.3676,0.0,0.0,0.0,1.3932,1.3967,0.0,0.0,0.0,0.0,0.0,0.0,0.0,0.0,1.5052,1.5288,1.5717,1.6085,1.7048,1.7512,1.716,1.7005,1.732,1.8251,1.6771,1.6227,1.7158,1.6124,1.5615,1.5856,1.5051,1.4421,1.4013,1.3711,1.3428,1.3147,1.3481,1.3807,1.4125,1.4439,1.4605,1.4605,1.4605,1.3985,1.301,1.2936,1.2224,1.1186,1.1186,1.13,1.1453,1.1513,1.1832,1.2276,1.2337,1.2506,1.2705,1.2705,1.2705,1.2705,1.2705,1.2705,1.2705,1.2705,1.2705,1.2705,1.2705,1.2705,1.2705,1.2705,1.313,1.3603,1.3603,1.3603,1.3603,1.3603,1.3299,1.3,1.2747,1.291,1.2988,1.2741,1.2916,1.3299,1.4008,1.5212,1.6144,1.6536,1.7638,1.8361,1.8397,1.761,1.7634,1.8975,1.8359,1.8385,1.9246,1.9646,1.9866,1.9957,2.0342,2.0613,2.0659,2.0659,2.0964,2.1614,2.1328,2.1154,0.0,0.0,0.0,0.0,0.0,0.0,1.2949,0.0,1.417,0.0,0.0,0.0,0.0,0.0,0.0,0.0,1.4998,0.0,0.0,0.0,1.5227,0.0,0.0,0.0,1.6316,1.6903,1.7456,1.8017,1.6724,1.6324,1.7242,1.6673,1.6059,1.5413,1.5263,1.4746,1.3786,1.363,1.351,1.3378,1.339,1.3623,1.409,1.4111,1.431,1.4605,1.4605,1.3949,1.29,1.29,1.2194,1.1111,1.1111,1.1242,1.1513,1.1663,1.1952,1.2337,1.2487,1.2614,1.2705,1.2705,1.2705,1.2705,1.2705,1.2705,1.2705,1.2705,1.2705,1.2705,1.2705,1.2705,1.2705,1.2705,1.3222,1.3695,1.3695,1.4195,1.4487,1.4021,1.3956,1.3749,1.3038,1.3169,1.3308,1.3194,1.3145,1.3342,1.3991,1.4868,1.5778,1.6778,1.7333,1.807,1.8967,1.8256,1.8207,1.9222,1.8975,1.8935,1.9262,1.9705,1.9893,1.9893,2.0319,2.0631,2.086,2.086,2.1034,2.1321,2.0952,2.0769,1.4345,0.0,0.0,0.0,0.0,0.0,1.2987,1.358,1.4475,0.0,0.0,0.0,0.0,0.0,0.0,0.0,0.0,1.4343,0.0,1.3613,0.0,0.0,0.0,0.0,0.0,1.6316,1.6931,1.7226,1.6287,1.6104,1.7104,1.6628,1.5975,1.5168,1.514,1.4684,1.3761,1.3665,1.3565,1.3499,1.3301,1.3397,1.3769,1.3792,1.4013,1.4382,1.4533,1.4057,1.3112,1.2973,1.2298,1.1341,1.1233,1.1357,1.1621,1.1814,1.2089,1.2355,1.2614,1.2705,1.2705,1.2705,1.2705,1.2705,1.2705,1.2705,1.2705,1.2705,1.2705,1.2705,1.2705,1.2833,1.296,1.296,1.3639,1.4299,1.4387,1.5035,1.5433,1.4952,1.4774,1.4463,1.3772,1.3631,1.3574,1.3429,1.3369,1.3487,1.3983,1.5003,1.6038,1.6871,1.7552,1.8312,1.9207,1.8727,1.8647,1.9262,1.9301,1.9301,1.9301,1.9595,1.976,1.976,2.0044,2.0319,2.0613,2.0613,2.0613,2.0613,2.0549,2.0457,1.5752,1.576,1.5561,1.3445,1.3196,1.315,1.2005,1.3127,1.4325,1.4069,0.0,0.0,0.0,0.0,0.0,0.0,0.0,0.0,0.0,0.0,0.0,0.0,0.0,0.0,0.0,1.4916,1.5309,1.6107,1.5218,1.529,1.6737,1.5454,1.4924,1.5464,1.4287,1.3811,1.4093,1.3751,1.3481,1.3197,1.3204,1.3099,1.2959,1.3542,1.3796,1.3869,1.4382,1.4274,1.3724,1.3149,1.2526,1.1961,1.1598,1.1639,1.1908,1.192,1.2089,1.2355,1.2614,1.2705,1.2705,1.2705,1.2705,1.2705,1.2705,1.2705,1.2705,1.2705,1.2705,1.2705,1.2705,1.3179,1.3652,1.3652,1.4692,1.574,1.6117,1.6234,1.6374,1.6682,1.5791,1.4995,1.4942,1.4347,1.3719,1.3212,1.3562,1.3884,1.3907,1.601,1.7328,1.6873,1.8972,2.0099,1.9366,1.9262,1.9262,1.9301,1.9301,1.9301,1.9301,1.9311,1.932,1.932,1.9329,1.9347,1.9356,1.9356,1.9356,1.9375,2.0154,2.0278,1.6165,1.6789,1.6991,1.4876,1.4898,1.4957,1.3058,1.3679,1.4547,1.4148,1.4712,0.0,0.0,0.0,0.0,0.0,0.0,0.0,0.0,0.0,0.0,0.0,0.0,0.0,0.0,0.0,1.4192,1.4851,1.4713,1.4897,1.552,1.6348,1.6216,1.495,1.5474,1.536,1.4423,1.4304,1.4022,1.3596,1.3596,1.3548,1.3506,1.3724,1.3977,1.4346,1.4533,1.431,1.376,1.3149,1.2526,1.1961,1.1611,1.1549,1.1663,1.2012,1.2343,1.2584,1.2674,1.2705,1.2705,1.2705,1.2705,1.2705,1.2705,1.2705,1.2705,1.2705,1.2705,1.279,1.3264,1.3519,1.3867,1.4602,1.5426,1.6202,1.6568,1.7167,1.7499,1.7124,1.6892,1.639,1.5226,1.4937,1.4666,1.3971,1.3906,1.3922,1.3884,1.4805,1.5795,1.6809,1.7262,1.8055,1.9557,1.9467,1.9054,1.8487,1.8975,1.9301,1.9301,1.9301,1.9301,1.9301,1.9301,1.9439,1.9714,1.9714,1.9714,1.9683,1.9957,2.0021,1.6612,1.7314,1.7645,1.5939,1.6056,1.6071,1.4182,1.4619,1.5317,1.4881,1.507,1.5379,0.0,0.0,0.0,0.0,0.0,0.0,0.0,1.204,0.0,0.0,0.0,0.0,0.0,1.2555,1.2924,1.3191,1.3687,1.4092,1.4381,1.5988,1.6215,1.4641,1.5696,1.5757,1.4605,1.4605,1.4346,1.3796,1.3796,1.3688,1.347,1.3688,1.3869,1.4021,1.4201,1.4013,1.3441,1.2931,1.2496,1.2117,1.1895,1.1766,1.1814,1.2192,1.2481,1.2705,1.2705,1.2705,1.2705,1.2705,1.2705,1.2705,1.2705,1.2705,1.2705,1.2705,1.2705,1.2833,1.3519,1.3857,1.4311,1.5419,1.6149,1.6799,1.7236,1.7825,1.82,1.7834,1.7742,1.7345,1.6162,1.5879,1.5453,1.4314,1.4093,1.4045,1.4045,1.4603,1.5543,1.701,1.7113,1.7845,1.9716,1.9677,1.9217,1.8496,1.8975,1.9301,1.9301,1.9301,1.9366,1.9522,1.9375,1.9512,1.9893,1.9778,1.9705,1.9705,1.9705,1.9705]}]]